GFSSGP_250_spd_003.txt.gz
Wind_Speed
103 101 102 102 100 99 101 99 91 88 87 87 83 82 81 81 81 80 78 82 84 86 85 83 80 81 81 83 84 81 84 86 82 87 86 86 89 93 84 91 91 88 88 94 93 90 88 80 77
107 104 106 105 104 95 99 96 93 87 87 83 81 80 78 80 81 77 77 77 78 81 78 77 74 77 76 81 72 75 79 80 82 82 84 91 86 84 91 91 86 92 93 92 95 86 86 76 67
104 104 104 104 101 98 95 95 92 88 82 79 87 74 76 82 77 78 81 80 80 76 74 76 77 72 66 65 67 73 78 79 83 89 92 88 88 90 85 89 95 93 97 89 87 86 78 68 61
90 101 102 102 99 93 93 90 87 86 80 80 81 69 77 76 77 77 79 69 64 68 72 73 70 67 64 74 79 84 81 86 91 92 92 89 86 88 88 90 91 94 92 89 80 77 69 61 61
83 85 87 89 87 87 86 88 86 78 79 75 79 75 76 68 68 73 77 74 73 67 66 67 75 71 73 81 84 88 84 89 92 87 82 88 88 86 86 92 95 97 84 84 74 66 63 57 55
66 69 69 68 69 77 77 78 77 69 75 78 81 77 77 67 68 71 71 73 75 68 74 67 71 74 84 82 83 85 92 84 80 85 85 84 86 87 92 96 92 87 80 77 69 63 57 54 47
55 53 54 58 62 66 65 63 64 64 74 76 80 84 91 90 73 79 77 69 70 72 76 75 79 80 87 89 88 84 84 84 82 82 85 82 94 96 93 90 84 85 70 67 62 60 54 50 52
43 45 48 53 55 55 56 57 61 67 72 75 79 78 81 88 98 93 88 84 87 92 89 83 79 81 82 83 81 80 81 84 83 88 88 92 84 81 82 79 80 71 64 64 58 57 54 51 42
39 43 47 49 51 52 55 59 65 70 71 71 76 74 76 60 69 77 85 83 83 84 84 85 84 80 75 77 81 81 76 82 89 86 79 77 80 79 75 71 67 65 62 57 54 53 52 48 44
36 37 40 41 42 45 46 51 57 61 64 65 69 75 76 79 63 72 79 83 71 73 72 67 70 79 78 82 83 83 88 83 77 79 81 84 84 76 71 69 64 61 60 51 49 50 50 46 44
29 32 34 37 39 42 44 44 45 50 55 61 63 67 72 64 65 67 65 70 73 68 72 75 74 78 79 78 81 76 71 80 83 83 81 80 76 71 63 64 65 58 52 51 52 52 49 46 46
25 25 29 32 34 36 39 38 37 41 47 52 60 60 52 56 74 73 69 67 71 65 69 70 76 81 80 73 72 79 80 80 84 81 78 69 64 65 66 63 59 53 52 57 58 58 55 56 56
27 25 28 28 29 32 37 38 37 38 39 43 51 55 57 51 55 58 60 61 55 55 56 59 63 67 70 71 74 82 85 82 78 73 65 62 54 56 54 55 56 55 63 62 67 65 65 68 67
29 27 27 27 27 30 32 34 37 34 31 36 41 44 51 55 55 56 57 56 57 60 65 70 72 71 73 76 80 79 82 79 73 62 56 53 52 50 44 62 56 70 68 69 73 75 76 79 80
26 26 24 21 21 25 26 28 29 30 35 39 35 41 50 54 56 58 59 62 64 66 64 63 66 74 75 76 77 77 75 72 64 60 60 64 69 70 73 70 74 74 75 80 80 83 85 87 89
22 22 23 23 22 23 23 25 29 29 35 32 37 42 43 42 54 61 62 66 67 67 67 66 69 73 72 72 68 66 65 67 64 56 56 65 68 69 76 78 73 74 84 87 88 92 95 95 91
22 23 24 24 24 24 24 24 24 26 26 27 36 42 47 48 49 49 53 58 62 66 67 67 68 65 61 63 62 60 59 57 50 52 58 64 70 76 77 81 85 89 90 93 97 100 98 89 87
20 20 19 22 27 27 27 27 27 28 29 31 34 35 37 40 43 45 49 51 52 50 48 50 53 55 53 50 53 54 52 52 53 59 66 71 74 80 85 88 91 96 98 100 100 96 92 89 89
19 23 24 25 26 25 25 27 29 31 32 32 32 35 38 41 39 40 41 40 41 42 42 44 46 45 46 49 53 54 55 58 60 65 70 76 80 85 90 95 95 95 96 95 93 92 92 93 93
23 23 24 26 26 25 26 28 30 32 33 35 36 34 32 33 34 33 33 35 36 37 39 41 42 44 46 51 55 58 61 65 68 71 75 78 81 84 86 88 89 89 90 91 92 93 91 90 90
22 22 22 21 21 22 24 26 26 28 29 27 25 26 27 27 25 26 28 31 34 36 39 41 45 49 52 55 58 60 61 63 65 68 70 73 76 79 82 84 85 88 90 91 91 92 95 98 101
21 20 20 21 20 19 20 20 19 20 19 18 18 19 19 19 20 22 25 31 36 39 42 44 45 46 46 48 52 56 59 61 64 67 70 72 75 78 80 83 85 87 89 89 93 99 104 109 113
20 19 15 14 12 14 16 19 21 20 17 15 16 16 15 19 22 22 25 29 31 35 38 42 44 45 48 51 54 57 60 63 65 68 71 73 75 77 79 81 82 85 90 96 102 108 112 112 116
16 12 12 13 15 16 14 15 17 14 14 13 13 15 17 20 23 26 28 32 35 39 42 46 49 51 53 56 59 62 64 66 68 68 70 72 73 72 74 80 86 93 100 104 110 114 114 115 117
13 15 14 10 9 13 13 15 15 11 9 9 13 18 22 26 29 32 34 38 41 44 48 52 55 57 59 61 63 65 67 68 69 69 68 68 70 77 83 87 92 100 104 111 113 114 118 116 115
8 8 6 3 3 3 2 3 5 8 11 13 16 20 24 28 30 33 37 39 43 47 50 54 56 59 61 63 64 65 64 64 65 67 70 74 78 84 90 94 100 105 112 116 115 115 114 108 107
13 12 10 7 2 1 4 6 8 11 14 17 18 21 23 27 32 36 40 44 48 51 53 55 57 58 59 59 61 62 63 65 67 70 74 79 85 89 95 102 106 111 117 117 112 111 112 108 105
14 11 8 6 5 5 8 10 12 14 15 17 20 24 28 32 39 43 45 47 50 52 55 56 56 57 59 60 59 62 64 65 69 74 79 85 90 95 102 106 111 116 116 113 114 115 109 103 99
10 8 7 6 5 6 8 12 14 17 20 22 24 29 33 38 43 46 49 51 54 55 57 60 60 60 60 61 61 62 64 68 73 79 84 90 94 100 107 111 114 116 115 117 116 109 102 96 91
7 5 6 7 7 9 12 15 19 21 23 25 29 34 37 41 47 51 51 49 51 55 59 61 60 60 61 62 62 65 68 73 80 84 88 93 99 107 110 115 116 116 118 117 109 102 95 89 85

GFSSGP_250_spd_006.txt.gz
Wind_Speed
94 96 100 100 101 102 101 100 97 95 92 91 89 88 89 84 83 82 81 81 79 80 83 82 81 82 79 83 84 85 83 85 81 82 78 75 75 74 76 78 84 84 84 82 86 81 84 90 82
100 100 100 102 103 103 103 101 97 94 94 95 91 86 85 81 82 80 77 76 77 80 86 82 81 81 79 78 76 77 79 79 81 72 66 72 69 79 83 85 87 78 82 85 84 82 89 86 78
104 103 104 105 105 106 105 102 97 96 94 93 90 84 83 81 81 81 78 72 68 74 80 81 74 74 74 74 81 75 74 71 67 65 70 75 81 83 86 81 80 81 83 88 86 88 86 74 75
102 106 108 105 105 107 106 103 99 94 89 90 87 82 81 83 76 78 77 71 71 73 74 77 77 77 75 59 60 64 68 65 68 73 74 77 78 83 87 83 85 83 89 86 85 85 81 73 67
90 100 102 100 100 99 104 100 100 96 93 87 84 80 80 82 78 77 71 70 70 70 73 68 68 74 72 75 77 72 71 72 77 75 81 82 83 82 81 82 85 91 84 84 78 80 69 69 66
73 73 75 74 73 85 90 88 88 87 87 84 81 72 75 74 75 77 71 60 65 71 73 75 68 64 67 67 62 75 82 81 77 85 85 81 77 80 78 84 89 86 78 76 80 76 70 65 58
55 56 54 54 58 62 66 69 65 69 71 72 71 69 70 69 73 73 73 75 71 75 74 74 73 69 75 69 70 71 75 85 86 82 77 81 81 80 89 90 83 81 79 84 84 72 62 60 53
45 45 42 44 41 44 48 52 58 60 62 61 63 67 66 72 73 72 65 70 63 63 65 67 76 67 65 76 82 84 85 79 73 71 75 74 80 82 88 82 82 84 86 83 73 62 66 58 49
39 37 38 38 38 43 46 49 53 55 57 59 64 66 70 66 69 75 74 62 61 61 65 60 64 69 68 69 69 66 78 77 77 82 84 92 86 85 81 83 83 86 84 71 66 67 57 52 43
33 34 37 38 41 45 45 46 49 51 54 58 62 61 66 69 70 67 75 82 78 73 73 78 82 69 71 78 74 70 75 83 85 78 80 80 84 83 84 88 87 83 79 73 70 58 52 50 47
29 31 32 34 34 37 40 41 42 47 52 54 58 63 61 67 67 67 60 63 67 74 79 70 74 83 85 73 70 72 78 76 79 83 84 78 82 89 86 91 90 81 75 77 62 53 50 50 52
26 27 24 27 32 32 32 33 36 37 38 42 48 53 55 58 58 63 66 68 55 60 63 61 56 60 68 73 71 72 71 70 76 77 80 84 87 88 84 84 79 72 64 60 53 59 55 61 59
23 22 19 21 24 25 27 26 26 34 36 33 34 35 42 49 53 49 64 61 65 71 67 65 71 68 67 66 66 66 71 77 77 79 80 86 82 83 81 72 70 63 58 59 65 63 64 63 59
23 20 22 21 21 21 21 22 24 26 30 31 27 27 32 38 45 50 51 51 47 48 52 57 58 62 61 65 71 75 79 77 79 79 76 72 72 72 71 73 64 62 66 67 69 70 72 75 73
23 26 28 25 23 28 27 27 27 28 29 34 34 29 28 29 38 50 50 53 58 56 55 57 63 68 70 71 73 78 80 79 74 71 72 65 62 65 63 64 65 68 69 72 76 77 74 72 88
25 27 29 29 23 20 21 24 26 28 28 27 28 31 30 32 35 36 42 49 54 57 57 59 62 66 69 68 67 66 66 65 71 66 61 61 61 59 61 66 70 72 73 72 74 81 87 90 92
25 27 26 25 25 25 25 24 26 25 24 27 26 28 31 33 35 39 42 42 43 46 50 55 55 58 58 55 55 57 58 57 56 58 62 61 60 62 66 68 75 75 80 86 88 89 91 91 90
25 21 25 27 28 27 26 26 27 27 26 27 26 26 28 31 34 37 40 43 44 45 47 50 50 48 49 52 51 50 51 55 59 62 63 63 65 68 71 74 77 82 86 88 88 87 87 87 88
25 26 26 25 25 24 27 27 29 28 28 29 29 28 29 31 33 36 39 41 42 42 45 45 47 47 46 47 50 52 54 57 60 63 65 66 67 69 71 72 75 78 80 83 84 86 87 88 85
25 24 23 24 24 23 25 26 26 27 28 28 29 30 31 32 34 34 34 35 35 38 39 39 40 43 44 46 50 53 54 56 58 60 62 65 68 71 74 77 79 81 83 83 85 85 85 85 80
22 22 23 23 25 26 28 28 26 24 24 25 27 28 28 28 27 27 28 29 30 31 34 37 39 41 43 45 48 51 54 57 60 64 66 68 71 74 76 79 81 82 83 85 84 81 81 86 91
24 24 25 24 23 23 24 24 23 22 21 22 21 19 19 20 21 21 22 26 28 31 31 34 37 40 43 47 51 55 58 60 64 67 69 72 74 77 79 80 81 82 83 81 79 84 90 92 98
23 23 22 19 19 24 24 21 21 18 14 12 12 15 16 16 17 19 19 21 25 28 32 36 41 44 48 52 56 59 62 65 67 70 73 74 74 73 71 71 72 74 76 82 88 91 94 100 104
21 20 20 21 21 21 19 17 16 9 10 12 13 10 8 10 13 17 23 26 30 34 36 39 43 47 50 54 57 60 63 64 65 65 64 64 64 64 66 68 73 78 84 88 93 98 102 106 112
17 20 19 17 16 14 11 13 11 10 8 5 7 9 12 15 19 21 24 28 31 35 39 42 46 48 50 51 53 55 58 60 62 63 64 66 66 68 72 77 81 87 91 95 97 103 107 113 115
20 17 15 14 13 9 7 6 3 2 4 8 11 13 15 16 17 20 25 30 34 39 43 46 47 50 52 54 58 61 62 63 65 66 67 68 69 72 76 81 87 91 95 98 103 109 111 113 114
20 17 15 14 11 8 5 3 4 6 8 11 13 14 15 18 23 27 30 34 39 40 44 48 52 55 56 56 58 60 61 62 64 65 66 68 72 76 82 87 93 97 101 107 111 112 114 112 111
14 13 12 9 7 5 5 5 6 8 11 13 15 17 21 25 29 32 34 39 43 47 49 53 56 58 60 61 63 64 64 62 62 64 67 71 76 82 87 92 97 103 107 110 111 112 110 110 104
17 14 11 9 7 7 7 8 10 13 16 18 20 23 26 30 34 37 39 45 49 52 56 60 63 64 63 64 66 69 69 66 67 71 75 79 85 90 94 99 102 107 109 111 109 108 108 106 102
16 12 10 9 9 10 12 12 14 16 19 23 26 29 32 35 38 40 43 49 54 57 61 65 68 69 68 67 68 70 70 70 74 78 82 86 92 97 100 102 107 109 108 108 109 109 104 98 92

GFSSGP_250_spd_009.txt.gz
Wind_Speed
97 103 102 102 103 105 104 107 101 98 97 96 96 95 91 88 84 80 76 77 75 75 82 80 81 83 77 77 79 79 80 81 81 78 81 82 82 80 80 78 73 70 72 77 81 87 86 82 84
100 102 101 103 104 106 104 107 103 98 96 96 95 94 92 91 86 85 81 80 77 73 76 79 80 80 80 77 78 73 72 72 73 73 73 75 77 73 66 66 71 78 81 84 87 85 82 83 84
104 105 100 100 102 105 105 106 98 98 98 94 94 94 92 90 88 84 81 78 74 76 78 82 82 80 79 79 79 78 76 69 71 68 74 62 63 67 68 74 76 80 85 89 85 85 83 86 85
95 101 104 105 102 104 105 99 95 94 94 92 91 93 92 89 88 84 79 77 74 72 77 82 82 79 82 78 73 61 68 63 64 68 68 71 74 74 80 82 83 84 84 82 84 81 92 84 78
85 96 97 99 95 98 94 92 91 97 90 89 88 88 88 86 82 78 78 70 52 61 68 73 88 87 81 61 57 61 65 74 70 63 67 69 70 78 77 79 73 80 81 77 84 89 81 75 82
79 84 87 89 93 91 89 90 91 79 87 86 93 84 85 84 79 69 66 53 47 62 64 53 49 57 63 72 75 74 70 59 66 75 76 73 75 77 80 63 73 77 80 89 86 85 78 79 83
68 73 77 78 79 78 76 79 83 79 86 84 89 83 76 77 69 67 54 54 38 35 50 67 69 65 61 75 74 74 68 65 71 73 75 73 68 68 77 82 83 80 86 82 78 75 81 84 81
58 56 64 60 61 59 58 62 64 69 67 70 66 63 71 74 64 60 49 45 50 52 64 67 73 63 70 61 68 74 75 74 79 72 72 75 70 73 76 77 84 84 79 78 80 82 84 79 78
42 42 43 42 44 36 48 47 49 48 52 55 47 59 61 64 60 59 55 56 51 61 65 67 70 78 70 77 83 81 77 81 79 81 76 82 88 83 77 78 76 77 80 80 82 85 79 76 67
35 34 34 33 35 36 41 42 43 42 47 48 55 58 52 52 48 46 58 60 69 71 73 76 82 83 83 80 82 72 67 74 76 80 81 80 79 80 75 80 82 84 84 86 87 80 76 69 60
30 33 28 17 37 38 41 39 42 38 36 46 47 47 48 54 56 51 51 58 64 74 69 71 73 75 80 78 80 81 82 83 84 86 92 80 79 81 82 84 84 81 82 82 77 73 71 63 60
25 26 26 29 31 35 34 31 29 30 19 39 33 44 44 46 49 51 58 55 63 68 79 75 77 80 80 82 81 82 85 87 84 81 78 76 78 82 82 80 81 82 79 76 76 67 65 63 59
26 25 24 23 31 31 25 26 22 28 41 49 39 36 37 40 40 45 53 57 65 68 68 83 87 85 86 88 80 73 70 71 76 79 80 81 78 80 82 82 83 84 82 79 71 67 64 62 62
22 23 25 23 19 19 19 21 25 26 29 41 40 35 27 28 32 34 39 45 52 56 62 72 75 76 75 78 81 80 81 86 83 79 82 80 83 86 82 85 82 78 72 73 68 66 67 65 66
23 25 24 23 23 19 19 23 22 26 26 26 26 28 28 26 25 30 36 41 45 51 59 60 62 63 67 64 65 70 75 79 83 81 81 83 82 80 82 78 71 70 71 70 70 69 72 69 80
28 27 25 28 28 21 25 29 28 28 28 28 28 29 31 35 33 30 36 36 46 54 60 59 59 62 67 70 71 73 72 73 75 77 79 81 78 80 74 73 71 69 69 71 70 72 77 83 83
27 29 29 28 30 28 24 25 26 26 28 31 30 28 27 29 32 34 35 42 48 50 53 59 58 61 62 61 62 65 67 71 73 73 75 72 69 68 68 69 71 72 71 71 72 73 73 74 78
30 27 27 29 27 26 29 29 28 27 27 27 26 27 31 29 29 33 36 38 41 44 48 51 52 54 57 59 62 64 65 66 65 63 61 61 64 66 67 66 68 69 70 71 73 74 77 79 78
28 27 25 22 24 28 30 30 31 28 28 29 29 29 30 31 30 30 33 36 40 43 46 47 49 52 54 55 56 55 54 54 54 54 55 58 61 65 67 68 70 74 79 79 81 82 85 86 87
27 24 24 24 27 28 29 28 27 29 29 29 31 32 33 32 33 33 35 36 38 40 42 44 46 46 45 43 43 45 46 49 52 57 61 65 69 71 74 77 80 82 84 86 87 87 85 86 84
25 26 25 26 26 25 26 26 27 28 28 29 29 30 30 31 31 33 34 35 35 36 36 34 32 32 35 39 43 46 50 55 59 63 67 70 75 78 81 83 85 87 89 88 86 82 79 78 78
25 27 26 26 26 25 25 27 28 26 25 27 27 27 28 28 28 29 29 25 21 22 23 27 30 33 38 42 46 50 53 54 58 60 62 66 68 71 73 74 74 74 73 73 73 76 78 83 87
28 26 26 26 24 25 22 21 21 23 20 22 24 25 25 20 19 18 16 15 18 20 23 27 31 36 40 44 48 51 53 54 55 57 59 62 64 66 66 67 68 70 71 73 77 81 87 88 93
27 27 29 27 24 24 21 20 22 16 13 21 20 18 14 12 13 13 14 15 18 22 26 30 34 38 40 43 47 50 53 55 59 59 60 63 66 67 68 68 69 72 75 79 82 86 90 94 101
29 26 23 24 23 18 14 17 17 13 20 20 14 12 13 13 13 13 14 17 22 26 30 33 37 41 43 47 51 53 54 56 56 59 62 65 66 66 67 69 73 77 80 83 88 93 100 106 111
23 22 21 19 17 14 14 17 12 15 16 13 13 12 11 12 13 15 18 23 27 30 34 38 43 48 51 53 57 59 60 61 62 63 68 70 70 69 71 75 80 83 87 91 98 104 109 111 112
19 18 17 17 14 13 11 10 10 10 10 10 11 11 13 15 17 20 23 27 32 35 39 43 47 51 54 57 61 65 68 70 71 71 74 75 73 74 77 81 84 90 95 100 106 109 108 109 109
17 17 16 15 14 14 14 12 10 9 10 11 13 15 18 21 25 28 31 33 37 40 43 48 52 56 58 62 64 68 70 72 72 74 76 76 78 81 84 89 93 97 101 106 108 109 111 108 104
19 19 18 17 17 16 14 11 9 10 13 15 18 22 25 28 33 35 37 40 43 45 48 52 56 60 63 65 67 72 73 73 76 77 79 82 84 88 92 97 102 106 108 111 110 110 108 104 104
20 18 17 16 15 13 12 13 14 16 18 19 22 26 28 32 37 41 42 44 49 51 53 57 61 65 69 71 72 76 77 79 81 82 85 87 90 96 101 105 108 109 113 112 110 107 106 107 106

GFSSGP_250_spd_012.txt.gz
Wind_Speed
102 103 102 102 99 99 97 99 100 95 96 102 99 97 97 98 93 89 81 74 72 69 72 71 71 74 78 79 78 76 74 74 72 73 71 75 68 70 68 70 69 70 72 72 74 72 74 78 81
99 101 103 102 103 100 99 101 100 97 103 98 98 98 95 95 92 90 84 78 80 79 82 80 78 77 79 81 77 75 74 77 73 73 75 77 70 70 64 63 66 69 67 69 76 78 80 81 82
95 96 100 102 101 102 99 104 101 100 101 100 98 97 98 96 92 88 82 77 78 78 79 76 73 71 76 78 78 76 78 72 71 76 72 65 64 63 66 72 69 66 71 73 76 76 81 80 75
84 88 94 94 101 100 101 100 99 98 99 93 95 91 96 96 92 89 84 75 69 66 71 69 67 67 68 71 77 74 80 78 79 81 73 58 57 71 70 63 65 75 74 77 76 73 74 80 82
74 79 82 86 95 97 102 92 89 82 77 84 87 93 95 93 87 84 76 66 61 60 65 61 62 64 65 70 69 67 74 68 64 63 56 59 71 67 61 69 73 70 72 76 80 77 84 79 77
66 71 73 74 82 88 92 79 84 62 73 83 69 83 84 81 78 78 67 64 54 54 48 42 52 57 59 66 66 57 62 58 60 61 62 67 70 57 64 68 73 81 82 75 75 84 79 73 73
60 63 63 66 72 72 62 72 55 48 55 60 65 72 56 53 55 64 59 51 48 43 35 49 58 55 55 57 59 62 57 59 62 58 65 66 61 63 75 80 74 70 75 81 82 80 73 71 79
55 52 52 53 51 48 53 56 45 43 43 56 51 57 49 26 49 45 46 44 50 47 42 43 49 49 55 53 52 55 55 59 57 56 58 64 68 75 77 77 79 82 82 85 84 81 79 82 82
50 45 42 41 42 29 28 34 28 39 46 41 38 26 29 32 46 37 38 40 40 29 36 49 44 54 52 48 49 58 65 64 62 66 69 76 85 81 73 77 81 86 83 81 81 80 84 84 84
40 40 42 34 25 24 25 27 32 45 28 36 31 30 19 36 42 33 38 39 40 41 51 48 49 51 51 56 67 68 72 74 77 73 76 71 84 80 78 82 84 85 80 83 83 85 87 88 91
34 33 30 29 25 41 40 47 47 48 40 30 15 36 56 47 35 37 38 35 49 58 60 61 65 65 68 69 67 69 72 73 75 83 77 76 75 84 84 82 82 85 84 90 89 91 89 87 89
30 30 28 27 32 39 44 51 51 49 37 24 28 28 40 56 57 50 39 39 56 64 70 69 67 70 70 72 68 67 73 79 80 81 87 86 90 85 76 81 84 91 95 94 93 87 92 94 92
27 30 28 39 37 30 33 36 40 35 37 46 46 36 37 28 31 41 48 50 52 58 75 80 80 79 80 76 74 73 73 79 82 82 86 88 87 88 88 87 93 98 99 98 95 95 91 86 76
28 26 32 35 33 34 31 36 32 30 32 42 46 47 36 32 34 37 42 48 57 60 64 75 84 85 89 88 87 85 89 91 87 86 86 89 90 93 95 97 96 95 91 94 94 91 85 76 72
25 28 31 30 29 29 39 36 22 28 32 42 43 46 54 49 44 40 36 38 43 51 60 66 70 78 88 89 89 90 94 97 95 92 96 99 98 92 95 96 93 91 90 90 86 79 75 73 73
28 32 32 32 31 29 25 18 16 20 23 24 33 43 52 45 35 35 35 33 37 37 44 49 55 66 75 87 86 87 86 86 88 89 90 88 88 92 88 88 88 86 82 77 77 75 74 72 72
29 30 30 34 32 30 24 19 20 22 20 27 32 36 37 36 32 30 33 38 38 46 45 47 52 57 59 61 67 72 75 77 80 82 83 84 80 81 80 77 73 72 72 72 72 74 76 77 77
34 35 39 31 26 29 26 25 17 18 14 12 21 30 32 31 31 37 43 38 40 43 47 51 56 59 60 64 68 68 70 69 68 71 71 72 71 69 66 65 69 72 74 74 76 78 81 83 85
38 35 29 24 25 24 22 20 24 24 24 34 34 33 34 34 31 37 42 40 39 41 43 46 48 50 53 55 57 57 59 60 61 61 59 60 59 63 66 69 71 73 75 77 78 78 79 81 83
28 25 24 23 20 20 22 24 26 27 30 35 36 38 35 33 34 37 39 41 40 41 42 43 44 45 47 49 50 49 47 47 47 50 55 58 62 64 66 67 68 70 71 72 72 71 69 71 73
27 25 22 21 20 20 23 26 28 27 29 30 31 31 31 32 36 38 38 38 38 38 38 39 38 37 36 35 36 37 39 43 47 51 56 58 61 64 66 67 67 68 69 70 70 68 68 67 71
29 24 24 20 20 24 24 23 22 26 28 28 31 31 33 33 33 35 33 32 33 32 29 28 27 28 29 32 35 38 38 40 46 48 52 56 58 62 64 65 67 68 69 70 71 72 74 77 78
27 24 22 20 24 24 24 24 25 27 23 20 22 24 28 30 30 30 29 26 24 23 24 24 24 27 29 32 35 40 44 45 50 54 57 60 62 63 63 65 68 71 74 74 76 77 79 83 88
27 24 23 23 25 24 27 24 24 18 17 14 28 35 30 27 27 24 21 20 22 22 21 24 26 30 33 36 41 45 49 52 55 56 60 65 66 66 67 70 72 74 78 80 81 84 87 91 94
27 24 25 26 26 29 25 18 24 17 13 16 35 44 30 24 23 20 22 20 20 21 23 27 32 37 41 44 47 51 54 56 62 64 66 69 71 71 73 75 76 79 83 86 89 93 96 100 103
25 27 27 28 27 23 18 18 24 19 27 30 42 30 24 23 24 23 20 21 23 26 29 32 36 41 47 51 54 57 60 64 68 71 73 74 76 77 78 80 81 85 90 94 98 102 106 109 108
28 29 28 26 20 19 18 20 22 21 18 20 26 23 25 23 21 20 22 25 29 32 37 40 44 49 55 56 57 60 65 69 72 74 77 80 82 82 83 84 87 90 94 100 105 108 109 106 103
28 26 23 21 20 19 19 22 18 17 18 20 21 22 22 22 23 23 27 30 35 40 44 47 48 52 59 61 63 67 71 75 78 80 83 84 84 84 85 89 94 99 104 107 109 109 102 102 104
22 22 22 20 19 19 20 19 18 20 20 21 21 22 22 24 26 30 33 37 40 45 45 48 49 54 62 65 69 71 75 78 81 85 85 84 85 86 90 95 100 106 110 110 107 104 105 106 109
25 24 21 20 21 22 20 20 21 22 22 21 23 24 27 30 32 35 40 43 45 47 47 49 55 60 65 69 69 75 78 82 84 83 83 84 88 92 97 101 106 111 109 103 104 104 107 110 111

GFSSGP_250_spd_015.txt.gz
Wind_Speed
95 100 101 100 96 95 96 99 104 89 91 91 90 89 89 91 91 87 84 83 76 73 71 58 71 69 67 79 75 69 73 77 78 76 74 74 74 74 75 71 71 73 70 62 61 62 68 67 65
86 90 95 100 96 94 96 103 101 93 94 95 91 90 93 92 94 90 82 84 89 80 69 72 77 81 84 82 80 80 81 78 74 75 72 74 74 72 70 73 72 73 63 61 68 68 61 66 67
78 79 85 82 89 90 100 100 98 96 95 94 91 91 95 92 87 84 83 77 83 80 72 66 68 71 70 73 71 73 75 77 75 70 70 70 69 69 72 70 72 70 62 67 74 57 66 65 68
68 72 72 72 83 86 97 98 94 94 91 90 89 91 88 85 84 80 68 57 60 66 65 65 62 64 68 69 72 72 73 71 68 69 67 67 62 59 64 64 61 63 65 71 56 63 69 69 76
61 64 61 65 70 78 82 86 84 88 82 89 79 84 83 85 83 75 59 39 50 52 57 53 55 61 67 75 68 66 61 60 60 60 60 59 62 62 59 57 58 62 61 67 70 63 71 80 74
53 56 56 60 67 76 84 81 80 79 84 80 73 75 77 74 64 57 48 37 44 51 53 55 55 59 55 68 60 56 59 57 60 56 54 55 57 55 55 56 52 63 64 68 77 73 73 77 76
44 46 51 58 62 75 72 68 59 60 69 73 59 62 60 58 40 44 43 49 48 50 50 42 46 43 56 61 62 64 63 59 57 53 51 51 54 53 58 62 59 68 68 75 83 80 72 77 80
35 42 46 53 59 64 50 48 53 59 59 46 41 44 45 29 36 36 39 37 38 43 26 36 43 50 62 62 58 56 56 51 50 52 52 55 58 63 60 61 66 71 71 78 81 79 90 82 76
31 39 52 51 50 38 36 36 43 44 40 38 32 19 17 24 32 37 33 36 37 43 47 43 44 50 58 57 53 53 50 49 51 51 54 61 67 62 61 68 74 79 79 79 76 87 84 75 77
36 43 37 37 33 29 31 35 36 33 32 29 12 15 16 13 26 36 31 35 31 40 49 40 44 44 49 53 52 51 51 55 52 57 61 61 58 66 70 73 71 76 74 82 87 86 82 86 88
39 35 29 31 28 33 33 40 36 31 35 27 22 30 27 31 26 24 26 30 34 31 42 49 54 54 59 57 53 53 54 55 56 60 63 66 68 73 73 76 80 77 81 86 91 92 95 89 93
33 33 32 28 36 37 31 28 22 26 30 24 24 32 27 29 31 26 30 31 31 40 42 51 53 52 67 56 58 64 64 65 64 66 64 71 71 76 79 79 81 84 87 85 83 91 94 95 93
29 28 31 36 44 40 38 33 22 21 29 30 36 32 36 39 45 44 50 38 40 54 55 62 64 62 63 64 63 70 71 75 78 80 76 78 82 83 81 82 85 90 91 93 97 99 101 99 99
28 31 31 35 37 43 41 32 28 31 34 29 34 39 36 33 43 40 52 53 46 44 59 62 69 77 72 72 74 78 81 81 81 81 85 89 93 91 94 95 98 99 101 102 99 94 95 99 99
23 30 31 27 35 33 30 25 26 24 20 24 34 39 36 41 49 40 41 44 49 45 54 57 72 71 73 78 82 84 86 86 90 93 96 98 100 101 97 99 96 95 96 96 99 98 100 100 96
28 35 29 31 30 34 33 24 29 24 26 25 38 47 45 45 47 49 49 54 54 51 48 59 68 73 80 81 84 87 84 85 88 92 91 91 92 92 93 97 96 94 92 91 92 93 92 86 84
39 34 35 37 34 32 28 27 29 26 23 23 30 43 52 49 45 44 49 53 54 43 43 47 53 61 66 66 70 78 81 79 84 84 79 79 82 86 89 89 89 88 87 85 82 79 79 80 81
30 33 34 43 30 28 23 22 20 21 21 18 24 30 35 38 41 41 43 42 42 38 42 45 48 51 59 59 61 61 63 67 69 74 76 76 80 75 75 78 77 77 76 76 76 76 76 76 75
33 35 39 30 25 22 26 27 26 23 22 19 21 10 23 28 31 31 33 35 38 43 48 49 45 49 54 59 62 64 65 64 63 65 69 71 72 70 68 68 69 71 72 73 74 73 74 76 78
32 25 24 23 23 22 23 29 23 28 31 28 30 28 30 31 33 35 32 39 40 39 45 51 49 48 48 52 54 59 59 59 57 57 56 58 58 57 56 60 63 66 69 71 71 72 75 77 77
28 26 22 26 26 28 24 24 24 28 29 29 31 35 39 43 39 36 36 36 39 40 43 47 46 48 49 49 47 45 44 44 47 48 48 50 53 56 60 63 65 67 68 70 73 75 76 76 77
26 23 21 23 24 22 26 21 24 27 31 34 30 32 35 35 35 35 36 36 36 37 37 39 40 37 38 37 36 38 39 40 41 44 47 51 55 57 62 66 69 72 74 76 77 79 80 80 81
24 25 24 23 25 25 25 27 26 28 32 23 25 26 16 18 19 25 27 27 27 28 30 31 32 31 33 37 38 38 38 41 43 47 51 54 58 61 65 69 73 78 80 81 81 82 83 86 89
25 26 28 23 23 24 30 22 23 28 25 27 26 26 27 23 22 29 28 25 25 23 25 28 31 33 36 38 40 42 45 48 51 54 57 61 65 68 73 77 80 83 81 81 84 85 90 95 97
26 30 27 26 28 28 24 26 27 28 20 18 21 28 28 25 26 29 27 22 22 24 25 29 33 36 41 44 45 47 50 53 55 59 64 69 72 75 79 82 83 81 82 85 90 94 97 101 105
30 26 23 27 27 28 25 28 29 24 17 20 27 30 25 31 26 29 25 26 27 26 25 29 35 40 46 49 51 52 55 60 63 67 68 70 76 80 84 85 84 84 84 89 95 100 104 109 111
28 24 27 28 25 27 27 26 20 21 22 23 34 31 29 33 28 28 24 25 29 29 32 34 39 44 49 52 53 54 59 64 68 68 71 77 81 85 86 85 86 86 89 94 99 104 109 111 107
27 29 28 27 26 24 25 24 23 25 21 19 27 31 31 33 30 26 27 29 32 35 37 38 39 45 51 54 57 60 65 65 67 72 77 82 86 88 87 87 88 91 96 101 106 109 109 105 105
34 31 28 24 23 23 28 23 27 23 21 19 21 24 27 27 27 26 28 31 37 41 44 45 44 47 53 58 61 61 62 67 72 78 81 86 88 88 89 90 92 96 102 107 111 110 105 106 106
31 29 23 23 24 24 27 25 23 21 20 21 21 24 27 28 29 30 32 34 39 43 47 52 51 53 56 63 67 66 67 73 79 82 85 89 90 90 90 91 96 101 107 110 108 103 103 104 105

GFSSGP_250_spd_018.txt.gz
Wind_Speed
68 72 75 83 84 90 97 100 99 96 94 89 94 94 92 91 85 85 83 81 79 78 74 74 77 74 75 78 79 76 78 71 70 74 79 77 76 80 79 78 76 75 75 74 69 65 67 66 62
62 66 67 73 74 88 91 99 100 95 93 91 92 93 93 91 89 86 85 81 80 76 75 74 73 76 73 75 77 77 72 73 74 80 76 77 75 76 75 77 76 73 74 68 64 63 60 58 60
59 63 64 66 70 80 88 95 95 91 92 93 92 94 94 93 90 85 83 84 76 75 73 71 70 71 64 64 67 68 72 78 80 79 77 74 74 77 77 76 75 74 70 65 57 57 58 55 59
53 57 61 61 66 75 88 88 85 87 92 92 89 90 91 88 87 83 82 78 71 63 62 60 59 58 57 59 63 66 74 76 78 77 76 75 76 72 70 67 67 66 57 57 55 55 53 60 61
44 52 56 58 67 82 79 73 76 74 79 84 85 84 80 83 83 82 73 68 55 56 50 44 51 53 53 57 61 64 71 70 73 73 73 70 61 53 57 64 58 51 51 55 57 58 61 62 69
37 46 53 61 69 63 63 65 60 64 70 67 74 75 71 71 72 69 60 51 31 18 25 34 46 45 50 53 59 63 63 63 67 62 58 53 57 61 61 53 51 47 51 56 60 64 67 71 73
32 45 57 64 57 53 49 49 54 57 50 58 65 63 60 62 55 50 47 34 32 23 22 47 47 50 49 49 53 54 58 64 61 61 59 57 57 53 51 52 55 54 57 62 64 65 70 71 75
30 41 51 48 44 44 38 41 43 48 56 59 59 49 44 47 41 36 34 36 52 43 24 37 31 45 35 39 51 57 61 65 61 57 59 54 50 50 51 53 55 60 65 65 65 69 74 78 81
37 44 39 36 35 39 34 37 40 40 43 46 46 43 40 39 29 23 25 36 48 63 61 51 54 39 41 51 57 60 59 66 61 61 55 49 49 48 54 56 57 62 57 68 69 74 79 76 76
35 37 33 37 29 23 28 34 37 43 44 46 43 29 26 24 20 21 25 34 50 62 62 61 59 57 54 66 63 72 62 64 61 48 51 49 51 57 57 57 62 68 70 72 72 69 78 83 80
32 30 34 29 25 22 27 28 32 35 36 26 24 27 28 19 20 24 28 27 46 52 51 54 61 59 67 64 61 61 68 69 67 61 61 55 54 57 60 58 61 63 70 76 81 84 84 87 90
31 30 28 24 28 29 30 33 35 33 24 29 30 34 36 29 20 18 24 32 32 38 44 34 53 67 61 53 57 62 66 59 63 68 63 68 67 61 70 71 72 81 81 82 88 94 95 98 104
27 27 24 22 31 31 31 36 40 32 26 39 33 34 42 45 33 31 28 35 35 38 42 50 55 59 61 56 59 61 65 69 70 69 72 73 78 76 79 83 87 87 90 92 99 103 106 103 94
20 26 25 27 33 35 40 32 36 33 35 38 35 41 49 48 45 44 39 31 38 39 37 44 57 55 62 65 68 64 61 66 72 74 78 81 81 83 86 91 94 96 98 99 90 89 91 96 98
12 14 29 34 36 36 36 33 26 30 47 42 37 45 50 46 49 50 45 48 48 43 42 43 58 62 63 69 77 70 71 76 82 84 86 84 87 91 93 94 94 95 94 97 93 98 92 91 85
23 28 29 32 36 37 37 31 28 28 27 38 40 43 46 52 49 43 43 45 50 54 55 50 52 56 64 71 72 76 74 77 79 86 87 90 89 91 94 92 87 86 87 87 88 87 83 85 86
27 32 34 32 38 41 35 27 28 24 24 26 32 37 46 47 53 50 48 50 50 49 49 52 51 56 56 59 65 74 83 86 92 77 78 83 80 79 78 81 83 80 79 76 78 79 80 78 77
28 37 38 35 36 34 34 26 22 21 25 29 30 36 52 56 44 50 55 52 48 49 51 53 60 57 56 57 56 58 63 70 75 73 74 77 78 81 82 77 76 75 74 74 73 73 74 75 76
30 34 37 35 29 26 33 24 22 25 26 27 29 31 43 55 54 50 48 51 53 53 52 55 54 52 51 50 49 51 54 61 65 69 72 72 75 77 74 72 69 68 69 69 70 71 74 77 79
29 38 35 31 29 29 27 29 29 31 26 25 24 27 34 41 45 50 47 45 44 42 39 43 45 47 50 50 52 55 57 59 61 64 66 67 69 68 66 64 65 65 67 70 73 75 79 82 84
31 27 26 24 27 25 26 27 27 31 32 31 31 29 31 36 32 32 35 39 41 36 38 39 39 44 47 47 51 53 55 55 55 54 56 58 59 60 61 63 66 67 69 73 76 80 84 86 85
28 26 25 26 26 28 27 26 26 30 30 30 33 37 33 30 33 35 40 46 42 36 36 35 36 42 43 43 44 44 45 46 48 53 56 58 60 62 65 67 68 70 73 76 81 85 87 87 86
28 27 30 27 25 26 28 27 29 25 25 27 32 34 35 38 34 37 34 36 26 28 31 32 29 33 35 35 35 39 42 46 50 55 59 61 64 69 70 71 72 73 77 82 87 89 88 88 89
31 30 26 26 24 23 25 25 26 29 31 30 30 33 37 39 39 38 32 26 25 27 28 25 33 32 33 36 38 41 46 51 55 59 61 62 65 64 64 68 71 76 81 86 89 88 88 88 90
28 28 30 30 31 29 27 26 27 26 28 30 32 30 30 32 40 39 32 26 20 21 24 29 32 34 36 39 43 44 48 52 55 57 61 63 64 63 66 72 77 80 83 88 89 89 89 91 95
25 31 32 31 32 31 29 27 23 26 29 32 30 26 27 29 29 25 22 23 21 25 29 30 33 37 40 43 47 48 49 52 57 59 60 62 62 67 72 78 81 84 88 92 89 90 92 95 103
27 25 26 25 29 30 28 26 25 28 28 28 30 26 22 23 25 28 29 27 26 27 29 33 35 40 45 47 48 53 56 60 61 60 62 66 68 72 77 80 84 88 92 90 91 92 97 103 106
26 26 27 29 29 31 27 26 30 27 26 27 28 25 22 22 23 27 28 28 30 32 33 37 40 43 44 49 54 56 60 61 61 63 69 73 75 80 83 85 90 92 92 94 95 99 105 106 103
22 27 27 28 31 33 32 27 29 26 24 24 25 22 20 22 25 24 25 30 33 35 37 39 42 46 48 52 57 61 63 62 63 70 76 80 82 84 87 90 94 92 95 98 102 106 106 103 102
26 34 32 32 32 34 34 28 26 22 20 20 22 25 25 24 26 27 33 35 36 39 40 42 44 46 51 57 61 63 64 66 69 75 80 83 86 89 92 93 92 93 98 103 104 103 102 101 100

GFSSGP_250_spd_021.txt.gz
Wind_Speed
58 57 58 60 64 69 74 83 96 95 94 93 92 91 89 91 89 90 87 83 80 80 76 74 74 73 73 72 73 73 71 71 70 74 75 78 78 77 78 79 77 78 78 75 72 74 74 73 71
54 57 62 60 61 60 69 77 82 87 91 93 92 92 92 93 92 90 88 83 79 79 78 75 73 72 71 71 73 69 68 68 71 73 74 78 76 76 77 77 79 81 77 76 80 72 69 61 56
46 54 60 62 63 66 69 70 74 80 85 86 90 95 92 93 92 90 88 87 82 76 74 69 67 65 72 72 70 69 62 65 69 72 74 72 73 74 78 79 78 77 77 75 69 67 62 60 50
43 49 54 59 66 66 71 65 71 74 78 77 83 89 84 90 87 85 84 84 78 76 72 66 66 72 67 60 59 67 65 58 61 64 67 67 73 79 77 77 74 73 76 72 70 62 53 47 48
39 45 48 53 59 67 66 63 66 68 69 71 76 84 84 87 85 81 79 76 69 60 58 59 52 52 56 61 63 57 52 53 61 61 65 71 72 71 76 74 70 66 64 67 67 61 60 55 48
35 38 42 47 54 53 52 55 58 59 56 61 70 75 76 79 80 75 72 66 55 52 49 50 50 46 50 46 50 47 49 51 52 55 58 63 66 65 66 62 60 64 58 56 56 55 58 54 54
31 32 38 42 39 45 44 46 47 44 50 55 61 66 67 68 69 66 62 56 42 37 19 26 31 43 43 41 42 44 47 54 60 57 53 59 60 59 62 63 59 56 56 53 54 55 57 61 62
30 30 34 33 36 36 34 34 34 42 45 49 49 55 50 49 48 44 45 50 49 47 38 28 30 43 38 29 39 49 49 44 46 52 55 63 63 62 60 63 65 59 60 56 60 61 64 63 58
26 28 29 30 31 33 29 28 35 39 45 47 51 47 34 28 28 31 33 38 36 40 40 39 40 27 26 40 41 39 45 43 49 61 65 46 51 62 65 63 57 56 57 55 53 56 56 57 62
27 26 27 29 26 26 30 32 35 37 43 45 41 34 26 36 31 29 31 41 37 42 44 45 45 47 42 58 50 51 49 54 59 56 60 63 64 73 63 60 58 59 63 61 61 66 73 74 77
22 22 23 29 25 28 32 33 28 35 43 44 39 30 31 35 30 35 37 42 46 50 48 52 46 50 50 52 56 61 47 49 60 68 64 66 70 58 68 65 70 68 73 74 79 78 79 83 89
13 16 20 28 24 26 32 35 36 33 42 36 35 30 29 37 31 39 50 53 53 57 65 61 59 56 57 61 66 64 60 61 59 60 62 65 69 73 73 69 70 78 81 81 81 88 90 93 95
11 14 24 26 27 26 25 29 23 29 30 34 34 32 32 36 30 30 38 41 52 60 64 68 73 67 57 60 65 67 66 58 70 67 66 64 72 70 72 78 83 83 83 86 90 91 97 99 97
13 12 21 26 25 22 23 23 24 27 28 28 31 36 38 41 37 29 34 40 42 49 59 70 70 71 67 57 63 69 70 69 65 71 69 72 68 70 81 79 86 91 93 96 89 92 86 88 86
10 12 12 18 25 24 27 26 28 29 29 30 41 37 44 47 42 42 36 35 38 39 48 50 62 52 59 65 60 71 78 76 72 76 71 74 79 78 80 85 82 79 86 93 89 83 87 89 94
18 18 23 26 24 25 30 32 33 32 35 35 44 40 46 53 48 46 42 38 37 36 42 43 46 47 48 47 54 68 75 76 75 74 80 79 80 87 91 91 88 89 83 80 83 81 83 87 83
21 23 19 27 27 35 32 34 32 35 40 40 43 43 44 45 41 46 50 37 34 41 44 46 50 50 49 55 63 67 71 69 73 78 80 84 84 81 78 74 78 79 79 75 79 81 78 78 79
17 18 23 29 31 39 34 36 29 29 24 35 28 39 42 40 44 46 47 51 50 45 46 51 53 58 56 61 62 60 64 65 67 67 68 67 65 69 69 72 72 76 76 75 74 75 77 76 78
19 20 24 28 26 32 30 28 24 21 26 24 30 34 35 44 46 50 51 50 53 50 47 51 54 53 56 56 58 63 63 60 58 60 60 63 67 68 69 71 71 71 71 74 75 76 76 77 82
24 22 26 29 29 31 26 29 25 22 24 25 25 31 39 42 48 52 54 55 52 52 56 54 59 63 62 61 57 59 56 54 56 58 61 63 64 64 64 63 66 70 73 75 76 79 83 85 87
22 26 28 33 28 23 22 22 25 27 26 26 26 29 30 32 33 37 53 55 59 60 60 61 61 55 56 56 52 49 51 52 54 56 56 54 54 56 59 64 69 72 75 78 81 83 80 78 83
21 26 25 29 31 26 31 26 24 28 28 31 33 35 35 34 34 37 42 43 45 45 46 51 52 52 50 47 47 47 46 44 45 45 47 51 56 61 64 68 71 74 77 79 75 74 78 83 87
19 26 26 20 24 26 27 27 29 29 27 29 34 34 33 32 32 36 39 42 44 42 42 44 46 46 45 42 35 35 37 39 40 44 50 56 60 62 62 65 67 68 69 71 75 79 83 87 90
14 20 27 26 22 25 25 29 29 30 31 34 31 31 32 33 38 39 38 40 41 42 36 36 33 30 30 32 34 38 40 43 43 48 53 55 57 62 64 64 64 66 70 75 79 83 87 88 91
15 18 25 26 26 29 28 29 30 28 29 31 33 34 35 35 33 32 36 37 38 37 33 27 26 25 33 35 39 41 44 48 49 54 57 60 63 65 65 64 68 72 75 78 83 86 87 86 85
18 22 24 26 29 30 29 31 30 28 32 30 32 35 35 34 35 31 30 32 34 28 28 31 30 26 35 36 41 46 51 53 54 57 60 63 67 68 65 68 73 76 78 82 87 85 83 85 87
19 21 24 29 28 31 31 30 31 33 32 30 27 30 32 31 30 26 27 25 27 25 29 31 29 35 40 42 44 51 54 52 56 59 64 65 64 65 68 74 78 81 83 86 91 87 85 88 93
21 20 22 26 27 28 26 27 32 31 33 31 28 28 27 24 23 25 22 21 26 29 31 31 35 39 41 46 49 51 53 55 60 63 63 64 66 70 76 78 80 84 86 91 92 88 90 94 98
21 18 20 22 26 28 28 28 32 33 34 37 31 28 23 24 26 22 20 24 27 29 32 37 40 42 44 47 49 50 53 59 63 64 65 68 71 76 79 84 85 88 91 95 91 91 95 98 102
23 28 26 25 25 27 30 32 33 32 31 31 26 25 23 22 23 25 26 29 29 34 37 41 40 42 45 47 50 54 59 64 66 67 69 73 78 84 85 88 90 91 96 94 93 96 99 103 107

GFSSGP_250_spd_027.txt.gz
Wind_Speed
67 59 56 54 52 53 56 60 64 67 67 72 73 79 88 90 91 92 90 89 89 82 83 81 80 80 79 76 74 71 71 73 73 72 69 68 71 72 69 70 71 73 75 76 76 76 75 74 73
60 54 50 48 48 48 55 54 51 53 52 60 52 59 72 80 84 89 88 87 87 83 82 81 78 77 77 75 72 69 70 72 73 70 69 70 71 72 72 73 71 74 74 75 75 73 73 73 74
55 47 43 42 42 41 46 52 51 51 49 56 58 50 46 67 73 72 76 78 82 83 83 81 77 76 77 71 70 69 67 70 72 72 71 73 70 73 71 71 72 69 72 71 70 72 71 72 71
51 44 39 37 35 36 39 48 52 50 54 56 61 63 60 56 59 70 75 71 76 76 78 79 75 73 72 73 73 71 71 72 71 70 69 68 61 67 71 69 68 68 69 69 68 71 71 72 72
50 41 37 33 31 34 36 42 50 52 56 55 58 57 55 54 61 60 66 73 75 75 76 70 69 68 70 71 70 66 69 65 64 62 61 59 61 62 63 61 65 65 64 65 66 66 67 68 70
52 38 34 31 28 30 32 36 43 48 55 55 53 52 50 53 51 54 61 65 65 48 57 61 66 66 61 67 60 52 56 59 56 56 55 55 52 57 59 60 61 61 61 65 63 63 66 66 67
50 33 29 26 24 24 24 27 33 38 49 54 50 48 50 51 49 49 49 55 60 60 56 59 60 56 60 55 50 53 54 45 46 50 50 51 53 55 57 58 56 62 59 58 60 62 63 64 65
48 28 21 19 18 19 20 22 29 30 42 52 51 48 49 48 47 45 46 51 44 34 38 36 36 50 51 50 43 46 39 40 44 50 55 52 55 55 58 53 55 51 56 54 57 61 63 65 66
49 20 13 14 13 15 17 21 28 29 36 45 51 51 48 42 40 45 45 42 40 41 39 31 34 48 51 52 50 41 41 41 41 48 51 54 53 55 52 56 57 52 53 56 57 62 65 60 63
46 16 10 12 11 11 12 12 17 25 24 30 38 45 43 43 40 44 40 41 38 33 38 47 57 51 51 50 45 38 47 50 45 50 53 55 60 56 47 55 60 61 62 63 63 65 58 64 68
42 18 13 9 10 10 15 16 17 19 22 24 29 31 36 39 42 37 35 31 25 35 43 43 46 54 50 48 43 48 51 48 53 55 60 55 54 51 55 52 54 59 57 62 56 62 68 67 72
32 18 12 7 8 14 18 19 22 16 28 29 30 35 32 30 34 28 30 28 32 44 47 44 52 51 53 51 49 51 50 51 51 59 56 58 56 55 60 63 54 60 67 62 67 70 75 75 78
28 14 4 13 17 16 25 27 24 24 32 30 26 29 24 30 31 34 35 30 26 46 47 47 49 51 52 56 51 55 55 58 58 59 62 63 62 59 62 61 65 70 69 74 76 79 79 83 89
24 12 6 21 24 28 27 27 28 25 25 18 24 27 26 33 34 37 31 38 39 47 58 50 46 50 47 51 51 50 55 57 58 57 57 59 61 64 66 65 71 75 80 84 85 87 88 88 82
16 10 14 24 25 28 27 24 22 24 21 26 25 28 27 30 31 35 32 32 41 38 53 54 52 45 50 52 54 56 48 50 58 58 56 54 59 60 61 63 65 69 71 73 78 80 81 82 77
15 10 11 19 20 26 28 20 20 21 18 19 23 28 30 28 26 28 29 35 32 31 45 56 55 53 55 52 48 60 57 55 56 63 65 65 67 71 63 66 67 70 75 79 81 79 77 71 70
15 6 10 13 15 14 21 20 19 20 12 11 16 22 25 24 31 23 30 41 39 35 38 45 54 52 57 60 58 54 63 68 61 57 57 58 65 68 72 74 76 81 79 80 82 76 70 67 65
13 10 8 5 13 13 14 16 15 16 11 11 11 12 13 33 36 29 27 39 39 43 38 31 41 48 55 53 53 56 53 51 60 62 66 72 70 71 73 72 76 78 80 78 72 70 66 61 63
13 7 8 7 7 10 10 17 17 16 14 15 16 17 19 24 39 32 27 36 42 44 41 47 49 54 48 52 60 59 55 54 59 61 63 67 67 68 71 72 73 73 68 67 65 59 60 64 66
16 9 9 8 8 9 16 19 19 20 19 18 15 19 24 17 28 35 30 23 38 43 42 43 43 43 51 61 56 55 55 57 60 63 65 68 69 73 73 71 71 63 60 57 58 61 64 68 71
22 11 11 10 10 12 12 12 14 19 23 26 20 17 25 29 25 23 27 38 33 36 37 43 47 50 52 52 56 53 55 61 58 60 63 66 65 62 62 63 55 53 56 61 63 65 70 72 73
20 10 13 15 15 16 18 18 17 20 25 25 23 22 20 25 33 32 28 27 30 34 37 34 35 39 44 43 47 49 50 53 55 55 53 49 47 48 49 48 50 54 60 62 65 68 73 73 73
22 19 12 14 15 18 21 22 17 20 25 28 28 25 27 26 29 29 30 32 33 33 33 34 35 37 38 40 43 46 47 50 49 49 48 44 42 47 48 52 56 61 63 64 70 73 71 72 75
23 22 19 15 15 17 17 23 27 23 23 26 29 29 27 24 24 24 26 28 28 29 33 36 37 39 41 42 44 45 42 43 44 44 44 46 48 51 52 56 61 63 64 69 73 76 77 76 79
25 21 23 20 17 19 19 21 25 28 29 23 24 23 23 25 28 26 25 26 29 31 34 37 39 40 42 44 42 37 36 40 44 44 46 51 55 55 58 62 65 66 69 73 77 79 77 79 84
30 25 22 24 21 22 22 29 26 23 22 23 24 25 24 25 26 26 26 27 29 31 35 37 38 43 41 38 37 32 34 36 43 46 52 57 57 58 62 64 67 73 74 78 79 79 79 83 88
38 26 26 22 21 23 26 27 33 27 26 27 28 28 30 30 29 30 29 28 30 34 36 38 37 36 34 30 31 32 34 37 42 48 53 58 61 64 65 69 76 78 79 78 81 82 83 86 90
34 27 27 24 21 27 32 33 32 31 31 30 32 34 32 32 33 34 34 31 34 32 34 34 33 31 29 28 29 32 35 36 42 48 55 62 64 66 67 76 78 78 79 82 83 85 86 90 93
31 23 26 26 27 26 29 32 34 33 33 35 34 36 36 34 35 37 35 35 33 31 32 29 27 25 25 26 29 32 37 38 47 56 59 59 63 66 74 77 78 80 82 86 87 89 91 94 95
32 25 23 26 30 26 27 35 37 33 35 36 34 35 37 38 38 37 36 33 32 33 28 25 24 26 28 30 32 34 41 46 51 55 59 64 69 72 75 77 80 83 86 91 93 93 95 98 100

GFSSGP_250_spd_030.txt.gz
Wind_Speed
73 77 71 66 62 59 57 57 56 61 61 65 70 71 75 79 85 85 94 96 97 92 89 88 89 88 84 83 82 81 79 77 75 75 75 77 78 79 79 79 77 76 76 73 72 74 74 74 75
76 75 68 62 60 55 49 48 51 55 60 59 63 60 57 59 70 75 80 86 86 87 88 88 89 87 84 83 81 80 77 75 74 77 79 79 79 80 79 80 77 76 74 75 73 69 70 73 73
76 74 64 59 55 50 45 41 43 51 58 54 50 34 20 37 55 69 74 80 78 86 86 87 87 83 83 80 80 77 75 76 77 78 80 79 80 80 81 80 76 73 72 72 68 70 72 72 73
78 68 58 53 47 41 39 36 37 44 52 48 42 41 40 26 40 52 70 72 73 75 80 76 81 83 81 79 74 71 72 71 75 76 77 78 78 76 76 76 72 72 70 69 70 68 69 68 71
75 63 53 43 37 33 31 31 31 35 43 46 46 53 56 48 39 39 49 64 66 68 71 64 72 75 75 77 78 75 73 74 74 74 76 75 77 76 77 74 70 68 69 65 66 66 67 68 70
77 59 47 32 28 25 24 25 27 31 37 46 50 61 70 61 56 55 37 43 57 55 51 52 49 60 63 63 70 69 67 68 68 68 67 67 67 65 65 63 65 63 60 60 62 63 65 67 67
74 58 45 28 23 20 20 23 25 30 33 42 49 58 68 75 69 63 52 44 43 40 40 46 50 50 55 55 57 58 58 60 56 57 58 56 58 57 57 58 56 56 57 58 63 60 61 63 62
66 58 48 26 17 17 16 18 22 24 27 33 44 50 57 65 66 58 56 52 47 45 36 39 46 37 31 39 42 45 47 52 49 50 52 50 51 50 52 54 54 55 60 58 62 63 62 62 62
60 58 42 25 16 14 12 12 15 23 24 31 40 50 54 48 54 52 45 51 47 46 34 37 43 39 29 19 30 41 44 47 47 42 35 38 44 52 49 49 53 54 56 59 60 59 60 60 60
57 54 38 22 15 10 4 4 8 15 14 17 32 42 45 43 44 48 51 49 40 37 44 41 41 34 30 38 41 44 45 46 46 35 45 44 44 47 52 54 58 59 60 53 59 63 64 59 57
55 51 35 20 12 6 11 6 8 15 14 15 21 26 39 40 40 40 39 39 39 33 44 41 41 44 47 47 51 48 50 48 39 50 50 51 51 52 52 57 59 56 57 58 59 62 61 62 67
54 47 33 17 9 8 17 18 15 17 16 23 24 25 31 37 38 39 37 30 30 30 34 40 46 38 50 53 59 47 52 56 51 51 56 53 62 61 62 61 62 63 60 65 64 60 68 67 76
52 43 27 15 4 11 15 22 25 22 23 26 28 31 32 30 32 36 37 33 29 33 40 45 46 50 54 54 51 49 54 51 51 51 53 57 52 57 60 60 62 64 58 59 57 56 62 68 70
49 38 26 12 11 24 29 28 24 22 21 29 28 30 24 29 31 33 36 36 34 34 39 28 50 56 51 40 43 52 53 50 52 50 52 54 54 54 60 61 61 60 65 68 65 69 68 70 75
44 32 21 7 10 26 29 27 25 24 21 25 23 27 25 27 30 33 34 35 34 36 36 39 36 50 58 55 46 48 52 49 49 54 60 61 58 63 61 62 58 62 66 70 70 72 74 72 73
39 28 20 11 10 22 27 25 24 28 23 25 24 25 27 27 26 27 27 26 37 39 40 44 41 52 50 53 48 45 54 53 53 52 51 53 57 58 61 67 71 73 71 71 74 73 73 77 71
36 27 14 14 13 13 19 18 16 25 23 20 20 24 27 26 19 23 24 22 24 34 24 35 44 50 46 42 45 53 54 58 53 62 65 62 65 64 66 64 65 70 68 71 72 76 75 73 69
33 28 13 10 11 8 12 15 15 17 15 14 14 10 21 27 19 18 22 20 30 28 31 37 42 38 53 47 46 46 50 59 62 60 56 54 66 69 73 64 66 67 71 75 78 76 76 71 63
30 29 13 9 8 8 11 19 13 15 16 12 15 11 13 14 22 24 29 21 20 30 35 32 34 42 38 48 53 55 57 54 61 57 64 57 59 63 64 65 68 69 76 80 76 69 61 59 60
31 25 17 11 8 6 12 16 19 18 16 17 16 14 13 17 20 26 28 30 20 26 35 39 42 43 46 51 60 57 51 57 61 63 62 61 61 64 65 68 70 73 75 65 60 56 57 59 63
34 25 22 14 8 10 7 8 13 19 18 19 17 18 16 20 20 31 36 34 36 29 30 38 44 45 47 48 47 50 60 64 64 64 61 64 65 60 62 64 66 66 62 57 56 57 61 64 65
35 29 22 22 14 13 12 14 12 14 18 23 23 22 15 17 23 24 25 30 36 33 33 32 32 41 45 45 48 50 53 53 54 57 59 60 59 57 58 58 58 58 54 57 59 62 65 67 70
32 30 24 21 18 14 17 19 19 18 17 21 23 27 21 19 19 23 33 33 31 30 32 33 34 35 33 34 36 38 43 44 47 47 51 53 54 53 55 56 57 55 57 62 65 66 66 70 75
31 28 23 21 20 20 19 17 19 23 19 17 22 25 27 24 22 25 26 27 28 30 35 37 39 37 37 38 39 39 41 42 44 47 50 51 48 48 49 52 55 57 61 64 68 69 72 74 78
32 27 28 23 21 24 23 23 23 22 26 26 22 25 27 27 26 27 28 26 28 29 32 34 35 35 36 36 38 39 41 43 42 41 41 41 45 45 50 55 58 62 65 69 72 76 79 83 84
28 30 30 23 25 24 24 29 25 21 21 23 26 27 24 27 28 29 29 29 30 29 31 34 34 34 36 37 35 37 36 36 36 33 33 39 46 49 55 60 59 67 71 75 78 82 83 85 85
28 30 30 25 22 25 25 29 31 30 28 27 25 26 27 28 31 31 31 32 33 31 30 34 35 36 35 35 34 32 31 32 34 37 40 43 49 50 55 60 64 69 70 77 83 83 85 87 88
27 29 28 28 24 24 27 31 34 34 31 30 31 30 30 30 31 35 34 34 31 31 34 36 37 35 35 36 36 32 31 29 27 38 46 47 48 54 60 63 67 73 79 81 84 86 86 89 91
27 28 28 30 23 24 32 34 35 33 34 32 32 33 34 34 35 36 37 35 34 35 36 38 35 34 37 36 33 32 32 30 34 40 48 50 56 61 62 65 71 76 79 83 85 86 89 93 95
27 31 26 28 27 25 30 36 38 33 33 36 38 38 37 38 38 38 38 38 39 40 41 38 34 36 36 37 36 35 38 36 38 45 51 56 60 62 64 70 75 78 80 84 88 90 93 97 100

GFSSGP_250_spd_036.txt.gz
Wind_Speed
69 70 71 71 71 73 77 80 76 71 72 62 53 48 50 47 44 31 55 50 34 40 62 69 70 83 91 92 95 95 94 93 93 91 89 87 85 84 85 83 82 84 83 82 81 82 80 82 81
67 69 68 70 72 74 77 71 68 64 61 54 47 40 41 41 18 41 71 50 35 46 49 51 53 64 78 85 90 93 94 94 93 91 91 90 87 87 86 84 84 86 84 85 84 84 84 84 82
65 66 65 66 70 71 67 66 61 49 45 34 24 24 28 21 22 37 69 68 50 43 53 61 59 63 66 82 85 89 92 93 93 91 89 89 87 88 86 86 86 85 84 87 86 85 83 83 83
66 64 67 69 67 66 65 54 42 31 27 19 14 19 21 42 31 32 57 41 30 32 46 49 43 46 62 68 76 83 85 89 89 90 92 87 87 85 83 84 84 83 86 86 84 84 83 82 83
63 64 63 60 55 59 52 40 30 18 11 13 25 12 20 34 52 43 49 52 50 31 54 52 54 46 57 56 62 71 74 81 86 89 89 85 85 82 82 84 82 81 81 82 83 82 81 81 78
57 54 54 57 55 49 48 29 10 12 9 12 14 18 23 29 40 47 45 48 44 31 33 45 48 52 44 43 49 57 64 65 67 74 82 81 83 82 78 77 78 77 76 75 74 77 77 73 72
52 48 52 51 47 36 33 25 20 23 43 38 16 14 24 25 32 44 63 55 37 34 31 51 38 41 36 40 47 48 54 56 67 64 62 66 71 76 75 71 72 71 71 72 69 67 64 65 62
42 47 49 43 41 28 17 7 15 35 30 29 22 10 31 31 50 57 55 46 54 34 46 35 34 31 35 36 31 31 32 40 41 48 55 57 54 56 60 60 61 61 59 56 57 59 55 53 57
43 49 48 41 33 25 9 11 19 27 23 21 32 29 38 48 63 65 53 56 48 45 38 37 35 39 33 25 27 23 19 31 34 35 36 41 42 39 41 44 46 46 51 51 48 46 50 56 61
47 50 47 41 31 19 10 8 15 32 24 18 22 43 44 50 71 69 60 61 51 47 44 36 38 35 35 31 36 27 33 32 24 30 35 35 34 39 40 43 42 47 46 50 53 55 51 58 56
46 49 46 39 27 11 9 13 34 19 17 19 23 23 46 65 77 72 65 64 60 53 49 43 38 37 39 40 37 36 30 31 29 29 36 39 41 39 43 45 47 50 52 54 52 52 55 55 58
44 48 45 37 19 11 13 40 28 24 20 29 25 20 46 70 74 76 72 67 63 56 52 46 38 39 39 40 39 39 40 39 41 37 40 47 47 45 44 49 49 49 54 59 57 57 58 54 61
41 45 45 34 15 13 16 28 22 23 23 31 35 25 52 63 72 73 66 67 65 56 55 48 40 41 47 44 42 42 45 48 47 46 43 49 47 46 47 50 50 53 57 57 55 49 53 58 59
38 45 47 34 18 15 18 24 19 19 27 29 35 28 41 58 68 70 66 69 67 65 59 57 48 40 43 47 49 41 44 50 53 53 51 49 47 49 52 57 57 57 59 51 49 53 58 63 67
38 41 45 32 14 19 6 7 5 12 25 22 31 27 29 45 67 68 72 76 77 71 63 62 53 46 43 48 51 54 50 43 50 58 57 54 49 51 55 54 51 58 63 67 60 68 66 67 72
34 39 43 33 7 14 13 6 7 9 22 25 22 27 30 38 55 67 70 67 67 67 68 64 61 59 51 50 54 54 56 51 50 46 44 48 50 50 54 56 55 55 56 62 63 63 63 70 76
33 34 40 39 12 8 7 3 13 10 20 16 19 23 23 29 34 39 49 54 53 54 47 42 43 47 47 52 52 55 59 55 51 46 37 36 40 47 45 50 55 58 60 61 66 67 69 74 77
37 31 35 37 28 6 11 7 9 18 22 18 18 19 23 31 24 25 28 34 37 40 40 42 44 43 44 40 43 44 51 47 44 39 36 39 46 49 55 57 59 62 64 66 71 76 76 76 78
51 35 31 37 33 23 11 13 14 8 18 22 19 19 23 25 28 25 27 22 25 28 25 23 30 33 39 40 44 43 36 39 41 48 46 47 51 51 52 54 57 63 64 72 74 66 70 77 78
49 46 31 33 32 31 20 16 17 11 21 14 17 21 23 14 28 26 33 27 27 30 29 28 31 39 36 36 44 49 51 46 46 46 46 59 59 63 64 63 67 68 68 66 71 77 77 74 82
48 50 38 31 32 33 23 22 20 14 20 20 21 27 22 22 23 33 30 26 33 32 35 38 35 39 39 35 35 35 45 48 54 53 57 56 57 60 61 65 66 69 71 72 73 75 72 71 73
47 51 48 31 31 31 29 19 17 18 15 20 27 24 29 28 27 26 29 27 24 28 31 37 37 41 45 43 43 47 47 45 45 49 53 59 62 64 65 66 69 69 73 72 71 72 70 70 68
44 50 47 34 30 32 31 28 17 17 20 17 17 23 29 34 31 19 30 29 31 32 33 36 36 34 34 38 39 43 46 51 55 52 54 51 56 61 62 64 64 66 66 65 66 66 63 67 66
49 51 48 37 29 32 33 30 24 19 19 20 19 21 24 38 39 29 25 31 37 34 40 43 39 45 45 46 42 40 42 43 45 46 49 52 54 57 58 59 61 60 60 63 64 57 60 65 69
46 52 47 45 30 32 34 32 30 27 21 13 21 11 24 34 43 41 26 28 31 36 39 38 34 34 39 45 48 48 49 50 51 51 47 50 53 54 56 59 58 55 53 55 51 58 62 69 75
38 45 46 44 34 33 39 37 35 30 29 16 25 24 32 35 46 42 34 32 32 34 36 38 38 37 38 40 42 45 42 41 42 38 38 42 49 53 55 56 54 53 54 58 56 61 68 73 76
36 42 46 41 39 29 32 37 37 35 27 27 24 25 29 32 37 40 45 39 40 37 38 39 37 37 39 40 39 38 35 36 31 28 39 43 49 51 51 54 55 57 59 61 64 67 69 72 76
37 41 43 39 39 29 32 36 36 38 33 24 29 24 24 31 34 34 40 41 37 36 35 37 37 42 43 40 39 35 29 25 27 39 44 48 49 51 55 59 61 63 60 62 64 66 70 75 81
37 42 40 47 38 33 33 36 40 42 35 33 28 26 27 24 28 36 38 38 39 40 41 36 21 58 48 42 37 37 32 34 43 52 53 50 50 54 57 61 62 63 66 66 69 72 77 82 87
44 39 46 50 36 36 31 37 36 37 38 36 30 28 26 27 27 30 35 37 40 41 42 43 41 46 46 41 33 41 43 43 42 43 47 51 51 54 58 61 64 66 68 71 74 78 82 87 89

GFSSGP_250_spd_039.txt.gz
Wind_Speed
69 71 72 72 70 72 72 74 72 71 68 61 57 59 57 58 54 57 35 38 45 37 39 49 51 45 50 51 62 75 82 86 91 91 91 90 90 88 88 88 86 87 86 84 84 83 83 83 82
68 69 70 69 71 69 72 73 70 64 62 56 53 52 52 49 45 36 30 47 61 40 40 26 36 27 33 48 53 57 61 76 87 90 91 92 90 90 91 90 89 90 90 88 86 87 86 85 84
68 68 69 68 68 70 69 64 61 60 57 52 45 40 38 34 35 33 39 50 65 57 42 28 34 33 33 35 40 48 56 57 72 83 88 89 90 91 92 92 92 93 92 89 88 89 88 87 85
63 63 62 64 65 67 64 59 55 49 42 30 20 20 14 21 30 36 51 52 56 46 30 31 39 32 35 41 48 49 43 51 52 71 78 83 86 89 90 90 92 93 90 89 91 89 88 87 88
55 57 59 60 59 60 55 50 43 28 4 12 29 28 32 30 33 41 65 69 51 46 37 25 31 33 38 49 50 49 46 40 42 48 62 73 77 82 85 88 91 90 86 88 86 88 86 86 85
48 50 55 53 53 50 44 37 20 7 15 12 27 32 28 29 36 30 53 64 45 41 23 20 29 47 45 46 43 43 41 34 33 38 43 51 67 73 75 81 84 85 86 85 82 81 78 78 77
45 56 58 50 48 42 37 23 19 27 32 28 23 17 29 33 38 35 44 49 44 37 29 19 23 46 42 45 42 43 35 35 35 37 43 46 53 56 61 66 68 72 80 79 78 77 74 75 75
51 52 52 49 46 37 30 20 36 35 25 23 12 21 16 30 28 36 46 55 56 41 37 29 57 47 39 44 50 43 38 34 32 38 38 38 46 48 48 48 47 50 53 49 52 57 56 58 55
51 45 45 45 39 30 13 43 39 25 23 31 19 26 20 28 31 39 55 56 58 45 45 41 45 41 42 43 45 42 36 26 29 31 33 27 34 35 35 31 36 34 39 41 43 46 47 50 51
41 35 37 41 37 23 21 42 33 27 32 36 26 28 30 28 35 41 53 65 61 59 53 59 49 51 34 33 40 34 34 31 30 32 25 29 33 35 35 38 37 31 36 41 49 48 51 48 48
38 32 38 39 35 11 30 34 17 21 28 39 32 37 33 29 38 52 62 67 71 61 54 65 59 57 45 44 34 33 39 36 40 32 30 33 34 38 43 41 43 42 42 48 48 46 51 48 51
35 33 39 38 30 6 28 32 19 21 30 28 30 31 36 35 41 51 66 67 72 61 58 54 52 52 50 46 48 44 44 44 38 34 36 35 36 40 40 37 39 40 41 45 51 49 51 51 54
31 31 38 38 22 16 21 26 20 14 28 37 32 23 26 38 44 48 63 69 76 64 63 52 51 48 44 44 47 49 47 49 44 36 43 39 35 38 45 41 41 42 43 47 48 49 53 52 53
41 33 36 37 16 12 30 25 8 6 12 17 25 25 27 39 47 56 63 69 64 62 55 53 55 51 48 44 41 44 45 46 44 41 44 43 45 46 45 47 48 47 45 46 49 52 56 61 61
40 37 31 36 25 17 7 15 8 9 9 11 19 23 28 22 53 62 68 71 61 60 59 56 54 55 50 44 38 37 40 42 43 43 45 47 52 52 53 52 49 48 54 54 49 50 54 58 59
37 43 33 29 26 19 19 8 9 9 4 19 27 21 30 26 50 65 75 72 68 60 63 59 58 55 52 50 45 42 44 47 49 49 46 48 50 50 47 52 54 46 46 49 55 56 58 58 61
38 40 45 28 28 26 22 24 15 9 7 14 21 24 20 32 45 63 65 71 69 64 60 68 66 60 58 52 51 54 52 50 53 56 60 61 58 52 50 50 45 42 49 49 49 54 59 64 67
37 36 42 44 30 25 20 21 16 8 11 17 16 19 18 21 30 49 67 68 69 66 65 64 67 65 63 63 62 63 57 56 56 59 59 44 42 41 38 41 40 44 48 53 59 61 65 66 71
33 34 38 43 43 26 25 18 18 22 22 17 14 21 19 25 26 28 39 75 72 74 69 68 74 71 69 66 67 58 56 50 50 48 51 47 46 44 43 50 42 45 53 62 67 66 70 69 72
34 36 34 39 46 35 25 20 13 14 29 29 25 16 22 28 30 30 28 34 48 67 73 75 77 74 71 64 58 54 53 49 44 37 40 47 50 53 50 48 53 56 61 67 69 69 71 74 76
38 39 32 41 40 45 32 28 24 13 16 20 24 16 23 23 26 29 31 31 33 37 45 56 55 59 64 72 58 48 39 42 47 50 50 49 53 55 55 56 56 61 64 67 69 72 76 77 78
43 38 31 40 37 41 38 30 30 24 20 12 18 16 20 22 20 20 24 35 30 35 31 33 34 36 36 37 40 42 41 40 42 42 43 48 54 57 59 62 65 65 67 67 69 71 72 73 78
39 39 41 36 30 37 43 35 28 24 21 17 16 20 18 22 24 29 22 31 27 31 27 39 45 39 41 42 45 48 48 53 49 48 51 53 58 59 63 64 64 67 67 66 66 71 74 76 77
39 36 40 33 31 35 39 33 29 27 20 16 21 11 23 22 25 35 35 25 31 29 32 33 36 40 45 43 45 49 47 46 44 44 46 50 50 52 51 55 58 62 61 64 67 70 72 74 74
42 36 40 35 35 37 37 36 35 31 27 25 14 21 19 25 26 32 38 37 28 31 35 36 37 40 43 44 45 42 46 52 51 54 57 57 58 48 49 50 54 59 58 61 64 67 69 68 66
41 39 40 34 35 38 36 36 41 29 32 30 22 21 21 25 22 25 36 43 41 32 32 32 34 39 41 42 43 46 49 46 46 49 53 51 49 51 41 50 53 55 61 63 65 66 67 66 68
40 41 42 43 42 37 36 39 40 27 32 33 28 23 19 21 34 28 27 42 50 45 34 37 37 37 40 43 45 44 43 43 45 47 44 44 44 49 44 47 59 62 64 65 68 69 70 73 76
44 45 44 44 43 33 33 37 42 31 29 31 28 21 20 18 25 27 27 28 36 45 49 45 44 35 28 32 33 33 34 39 39 39 38 41 38 40 41 53 60 65 70 69 70 71 73 76 78
49 46 47 49 46 32 33 33 35 36 34 35 32 29 28 27 23 24 24 25 28 29 32 36 35 25 34 44 42 32 33 37 40 31 34 35 49 51 54 58 64 72 74 73 72 72 74 78 80
54 49 50 48 39 31 37 37 42 39 35 39 38 37 32 27 32 31 27 27 27 30 36 37 34 39 40 38 33 36 29 17 22 39 37 39 58 61 59 63 67 70 73 75 74 75 78 81 83

GFSSGP_250_spd_042.txt.gz
Wind_Speed
59 61 65 67 73 75 76 77 76 74 67 69 68 64 62 62 66 67 51 47 49 39 32 33 36 39 49 49 53 51 53 55 61 70 83 85 88 89 90 91 91 90 88 87 86 85 84 85 85
59 62 65 71 76 71 72 72 71 68 61 56 54 52 54 56 57 54 38 42 40 44 41 36 35 37 45 45 35 34 46 45 41 42 58 76 80 81 88 90 91 92 90 90 89 90 86 88 90
62 64 67 68 60 61 66 68 64 57 59 48 46 47 47 52 52 48 39 42 42 55 55 49 47 23 32 30 29 23 21 29 35 34 47 54 59 69 80 85 88 91 91 90 89 88 88 88 91
61 58 56 58 57 57 59 55 57 61 54 49 47 41 42 41 42 41 40 41 51 64 66 41 40 25 35 37 31 28 35 28 36 38 41 44 55 49 60 72 85 87 88 87 87 86 85 86 90
50 50 53 49 55 63 58 51 48 58 52 43 31 26 30 26 28 34 34 38 60 65 55 48 24 24 43 35 36 40 37 37 41 45 43 39 44 48 44 53 65 76 80 79 83 83 82 85 85
47 46 45 51 53 49 53 46 42 49 46 26 23 26 26 26 30 35 42 50 77 72 66 60 37 33 34 39 35 38 40 45 46 46 35 36 39 40 39 42 47 58 68 72 73 74 75 77 81
42 42 46 55 48 50 50 41 35 36 28 27 26 27 29 30 33 39 48 60 73 70 59 46 37 36 34 23 44 35 48 47 46 47 36 34 39 39 40 41 44 43 47 57 58 57 59 58 67
42 43 49 51 42 48 49 33 27 24 30 38 33 37 34 39 37 47 53 71 74 68 46 35 39 28 40 32 41 44 50 54 43 43 41 39 41 39 41 41 42 45 45 46 44 46 47 46 57
39 46 51 45 44 41 40 21 32 36 40 37 30 37 41 46 41 63 65 68 74 74 51 42 32 35 38 51 57 47 46 46 40 38 41 39 41 38 36 35 39 34 33 37 37 42 43 43 50
38 46 41 38 40 29 27 28 34 32 34 29 31 35 41 42 43 66 68 59 72 73 55 48 33 31 47 61 53 48 37 33 41 36 33 30 39 38 41 31 35 43 38 38 38 38 37 40 45
34 40 37 38 36 26 28 41 25 30 29 26 27 32 40 40 44 54 67 69 63 65 57 52 47 54 57 57 45 47 40 43 44 37 32 34 37 41 42 40 40 40 42 42 38 41 37 44 53
31 40 39 37 35 30 30 37 27 25 30 31 28 26 29 41 41 51 64 70 70 66 63 60 59 61 56 56 37 44 42 45 39 37 34 38 42 42 40 43 45 48 46 46 42 39 45 47 51
28 35 42 36 35 29 28 25 38 29 30 27 27 28 25 30 36 44 59 71 71 69 63 63 64 59 55 53 46 41 42 43 40 40 38 40 43 44 43 39 36 40 41 48 41 41 43 47 50
32 30 34 36 34 28 24 14 39 25 26 34 36 35 31 33 32 35 55 68 77 69 59 62 71 68 60 53 46 42 42 44 45 43 44 45 45 45 40 41 43 45 45 46 48 49 52 52 51
24 30 31 35 39 28 16 15 20 27 25 32 20 17 36 35 37 35 47 57 80 71 67 65 67 64 63 58 58 48 43 44 40 39 41 42 41 44 43 42 48 51 52 50 50 53 53 51 54
22 24 30 34 35 36 27 21 21 24 28 36 24 16 14 33 40 39 42 47 62 75 65 68 67 64 60 53 48 43 43 44 43 44 43 44 47 45 47 47 49 51 49 50 53 55 56 49 52
26 26 30 33 35 37 27 27 27 21 23 30 34 15 18 12 34 35 42 48 52 68 68 70 66 65 67 54 50 46 47 48 43 47 49 52 53 53 53 53 53 53 58 59 55 55 50 53 55
29 29 33 34 35 36 37 27 28 25 19 24 19 19 17 15 17 31 33 46 48 58 63 64 66 62 56 52 50 51 53 55 56 58 59 58 56 55 58 61 65 58 59 56 58 57 57 55 57
35 35 28 35 34 37 35 27 28 30 27 29 32 25 28 24 17 21 30 39 47 60 60 64 59 60 59 62 57 58 59 63 65 67 64 65 66 61 64 65 62 57 51 55 54 55 57 59 65
29 33 26 31 35 33 32 32 27 30 28 25 26 27 25 24 20 23 25 37 42 55 65 67 67 68 62 60 61 64 67 71 70 65 67 52 49 63 55 48 44 45 50 51 55 60 62 66 68
29 35 35 30 30 32 34 35 26 25 25 25 23 19 18 22 22 25 28 29 40 49 61 62 63 66 68 65 63 64 68 67 60 66 55 56 55 52 48 49 56 58 60 63 64 65 66 69 71
37 34 36 35 30 32 34 38 30 27 29 23 19 19 18 19 28 22 24 32 34 44 40 49 60 65 63 67 69 73 61 64 69 60 58 63 61 49 50 51 55 58 62 64 67 67 68 67 67
42 36 38 38 36 30 35 36 33 28 27 28 20 20 16 16 20 26 25 27 29 37 41 44 50 62 61 53 57 57 60 64 54 46 45 47 52 51 51 55 58 59 61 61 63 65 65 64 65
44 41 42 41 39 32 32 36 29 33 25 27 24 19 17 18 18 21 30 33 26 28 35 36 45 60 65 60 53 48 43 42 44 45 48 50 53 56 56 58 62 67 68 69 69 68 63 61 61
45 32 34 36 35 31 31 34 29 33 24 26 29 22 21 19 19 18 20 37 32 30 35 36 37 37 35 38 42 43 41 46 45 46 46 49 53 55 59 60 63 63 60 60 61 61 61 60 63
53 46 37 36 36 32 33 31 26 27 23 22 23 24 22 19 19 17 17 20 41 38 35 35 36 35 36 37 38 41 43 46 46 47 49 49 48 50 47 45 46 52 54 57 60 57 59 62 69
53 50 45 38 37 35 33 30 29 33 29 30 31 21 24 22 21 21 21 22 24 38 45 41 39 37 36 35 34 33 35 40 32 28 33 39 39 37 39 41 47 50 52 57 59 60 67 73 75
53 52 48 42 39 38 36 32 31 29 27 31 33 28 23 24 23 19 24 27 25 32 35 44 41 41 34 37 36 33 31 31 27 28 31 29 33 32 36 46 46 51 54 59 67 71 74 77 81
58 52 47 49 41 36 36 35 33 27 28 26 29 27 27 24 23 21 22 25 31 28 32 33 39 44 45 44 36 36 33 23 26 30 28 28 28 28 41 53 57 57 59 65 68 72 78 80 80
64 54 49 47 38 37 35 36 35 36 25 29 25 29 30 31 25 18 17 20 26 35 34 37 35 39 42 36 34 30 35 35 35 32 24 43 33 38 51 60 66 58 61 71 80 84 85 87 87

GFSSGP_250_spd_045.txt.gz
Wind_Speed
58 59 59 62 62 65 69 68 70 71 70 70 73 74 70 71 75 77 76 69 70 69 64 61 60 55 47 46 37 37 45 42 46 49 53 61 64 76 85 89 89 88 89 91 91 92 92 89 87
58 60 59 59 64 69 73 69 61 63 65 69 69 68 64 66 68 69 68 68 63 59 56 51 53 51 44 39 38 38 43 36 42 46 49 49 50 51 62 79 86 89 92 90 91 93 93 90 89
59 61 65 67 68 63 61 64 62 61 60 69 68 62 61 57 61 64 63 63 59 53 51 47 53 49 41 35 35 33 34 31 23 23 22 31 40 41 48 56 64 74 86 91 90 89 90 91 91
54 53 53 54 52 55 57 61 62 52 52 64 61 56 50 47 44 50 57 55 52 45 42 50 52 44 44 35 28 27 25 32 33 30 21 28 37 38 42 43 49 58 68 76 87 86 89 88 89
50 50 52 52 52 51 53 54 51 55 55 59 57 54 49 41 38 39 42 46 42 44 47 58 54 57 41 33 35 30 27 30 37 32 24 32 35 39 43 41 42 45 50 54 63 76 81 82 81
45 47 49 49 50 49 57 55 54 51 52 56 53 52 45 37 36 30 32 34 40 47 62 59 57 47 42 39 32 38 37 36 35 34 31 32 38 41 42 39 36 40 42 50 53 57 64 72 75
46 42 47 45 41 57 55 52 50 50 48 50 43 41 38 34 28 22 27 33 40 51 62 61 61 56 42 51 52 41 40 38 36 38 34 33 37 41 41 40 37 40 38 43 48 53 54 52 53
38 38 41 45 53 53 50 49 45 44 37 33 29 30 29 25 20 20 32 43 52 61 63 66 64 54 42 47 43 43 41 38 36 39 38 41 42 40 39 43 44 48 50 43 44 49 51 46 43
34 37 37 42 45 50 47 44 39 31 26 27 30 29 26 28 19 24 32 41 56 76 67 64 60 50 45 49 43 32 35 39 41 36 44 44 40 35 40 38 46 50 45 39 39 43 47 45 43
32 30 30 45 54 56 44 39 26 22 24 28 29 26 29 26 20 24 34 42 59 67 61 57 57 43 42 44 47 48 42 45 43 40 49 40 36 37 32 45 41 38 39 44 42 44 44 42 40
22 26 34 37 50 41 40 36 20 25 23 29 22 27 28 29 20 25 32 46 77 70 62 56 48 47 48 47 42 38 45 46 40 40 43 38 41 35 32 34 40 38 40 41 41 43 43 42 44
23 27 25 37 40 40 39 32 26 28 22 27 23 26 20 34 29 32 41 55 69 72 64 53 49 50 53 54 45 40 45 50 43 44 35 33 24 23 28 33 35 36 39 36 36 40 44 44 48
19 21 24 31 35 44 32 33 23 19 27 22 28 25 24 31 30 35 41 53 66 72 70 61 54 54 46 45 51 49 44 46 46 44 37 31 29 34 35 33 32 34 38 35 37 37 43 47 47
18 22 25 24 29 37 34 28 24 18 24 19 30 32 33 25 31 42 51 56 69 72 68 62 58 52 45 50 52 51 47 39 39 40 39 33 34 36 32 38 36 36 36 40 43 39 46 49 50
22 22 22 25 31 31 35 31 26 21 19 20 26 25 23 31 31 39 57 57 64 71 66 67 56 55 54 52 47 45 43 40 35 36 37 37 38 33 35 37 37 39 41 44 46 44 45 51 50
31 27 22 26 35 34 33 38 29 28 22 21 26 22 25 25 31 40 43 62 63 68 69 72 60 56 60 58 53 47 46 39 38 35 35 38 39 43 45 42 44 48 52 50 49 45 50 55 57
28 34 25 27 31 30 31 34 38 32 28 23 21 18 19 26 23 33 42 52 68 67 68 66 64 61 65 66 63 56 56 54 52 46 42 47 44 49 49 51 54 54 56 54 57 56 60 53 56
31 30 27 29 24 28 31 31 39 37 26 27 19 22 19 20 19 21 44 47 48 69 74 69 69 71 64 66 64 64 64 65 61 55 55 52 56 52 55 58 59 59 58 57 56 56 55 54 51
38 37 27 31 26 30 31 30 36 38 30 29 25 18 19 22 25 21 28 45 48 59 72 72 69 71 73 66 66 67 66 63 69 67 54 59 58 60 62 65 64 64 64 49 45 45 46 45 46
35 36 32 30 26 27 34 34 36 38 38 33 31 25 19 21 24 19 25 34 38 47 58 63 62 67 74 69 70 69 69 69 66 72 66 61 63 67 67 68 70 64 51 50 49 42 47 52 55
32 36 28 31 30 28 30 37 36 38 38 40 33 30 23 18 21 18 20 33 35 35 46 50 58 65 68 65 69 71 73 65 62 64 59 59 62 63 60 60 48 46 48 50 53 57 62 63 63
35 34 30 29 30 29 32 34 36 35 38 36 41 32 27 19 19 21 19 26 33 34 33 41 57 55 57 63 66 64 61 63 64 59 59 64 62 58 61 48 49 48 49 52 53 55 58 62 60
40 31 31 38 36 34 33 32 34 33 36 38 34 38 31 22 19 21 22 23 29 30 32 34 40 47 52 51 52 58 66 61 65 68 60 52 57 53 46 47 52 54 57 57 59 59 59 60 61
47 34 30 34 34 29 28 28 30 32 32 34 32 33 38 27 20 18 20 24 27 32 31 33 37 38 39 47 49 52 54 54 55 59 59 56 48 50 49 53 53 54 55 57 61 57 55 57 59
43 43 40 38 35 34 30 28 28 27 27 31 29 30 40 29 23 21 17 20 25 30 32 31 29 34 37 41 43 41 48 52 53 56 47 51 50 51 56 55 52 50 48 52 50 47 50 53 46
51 52 43 39 42 41 37 32 32 23 24 27 27 30 32 29 27 25 22 18 21 27 35 34 33 33 39 43 40 40 40 40 44 45 45 48 46 51 37 36 39 41 40 40 46 50 49 59 64
62 59 52 48 47 42 41 38 35 30 23 26 26 27 27 31 26 29 28 22 20 25 28 40 39 37 37 38 38 39 41 40 41 39 46 52 47 35 34 35 36 38 38 40 48 53 54 62 64
65 58 55 50 46 44 43 41 36 32 26 24 23 29 23 27 28 26 30 26 21 22 26 35 44 47 44 44 45 42 36 40 41 40 40 40 38 35 36 38 37 41 32 46 52 58 63 63 66
61 58 55 53 51 46 45 42 40 32 27 26 27 29 26 28 26 30 30 31 27 23 23 28 36 41 45 51 46 44 42 40 41 40 35 36 36 38 33 37 39 39 46 55 59 60 65 65 72
66 65 67 64 57 48 48 41 41 34 30 27 27 28 25 27 30 28 30 32 29 27 24 23 29 32 37 40 47 52 53 53 52 50 45 43 43 37 42 44 45 54 50 61 69 71 74 75 80

GFSSGP_250_spd_048.txt.gz
Wind_Speed
57 60 57 58 58 59 63 66 67 65 64 66 67 70 72 72 70 70 74 75 75 74 76 76 78 74 71 65 65 66 70 71 72 68 55 51 46 47 56 67 74 82 82 87 84 86 87 86 87
55 56 56 56 61 64 63 63 62 59 59 58 61 66 71 70 68 67 70 72 71 70 72 74 74 69 67 63 66 64 65 64 59 44 44 44 46 49 51 55 59 66 75 85 90 90 90 91 90
52 52 52 56 59 59 58 58 56 55 55 57 60 67 69 68 65 64 64 62 66 65 68 68 68 67 64 63 61 63 60 45 40 38 34 33 28 33 42 40 38 48 58 65 73 82 79 82 89
47 44 42 46 50 55 54 54 54 53 57 58 57 68 67 66 64 56 54 55 59 58 57 63 58 59 59 57 57 58 50 32 31 33 37 31 27 27 30 36 35 35 36 37 42 50 54 63 75
39 39 44 46 50 49 51 46 47 51 52 53 53 60 61 58 51 45 39 37 44 52 51 45 47 52 52 54 55 51 39 33 29 32 37 32 33 35 38 28 30 29 31 30 25 26 30 42 47
36 38 43 43 42 46 41 48 55 55 54 51 49 50 52 50 42 31 28 27 25 28 34 35 38 49 56 54 51 46 44 43 41 29 32 36 34 27 27 22 26 28 32 33 35 36 35 35 36
34 38 38 36 40 43 48 55 60 55 47 48 45 39 37 35 34 32 28 21 16 30 39 41 45 48 50 52 49 40 50 54 37 35 30 34 35 27 28 27 29 31 32 35 37 35 31 32 32
35 31 31 34 35 42 51 59 47 49 46 42 34 30 24 26 30 25 16 17 23 31 37 40 43 46 49 52 47 52 46 47 38 27 28 33 31 26 32 29 33 35 36 35 27 25 26 27 32
29 26 30 29 31 43 53 53 47 45 37 28 29 24 20 24 22 17 17 17 30 30 34 40 44 50 53 50 48 48 47 47 43 39 32 36 29 28 31 29 29 29 40 34 29 27 25 31 31
21 28 27 28 31 40 51 51 42 41 31 25 24 24 23 24 23 13 21 18 36 37 36 47 53 63 61 61 50 47 49 47 38 36 33 35 30 29 33 19 32 36 34 37 34 30 28 31 34
23 24 23 27 27 39 43 43 39 38 33 30 26 25 26 21 26 12 16 15 34 39 50 61 61 59 54 45 50 54 45 49 35 39 38 39 32 31 30 27 27 22 27 29 27 29 33 32 35
21 23 21 19 27 34 34 43 38 36 31 24 28 29 24 24 27 15 14 17 32 45 49 55 59 59 50 52 52 53 49 41 35 32 42 41 36 34 24 22 26 26 24 26 26 29 34 40 39
19 18 17 20 21 32 33 33 41 37 33 27 18 17 20 22 18 22 20 15 33 46 51 52 64 61 52 43 45 54 57 46 39 41 43 42 39 41 33 45 27 24 23 26 27 30 36 37 41
21 23 24 22 24 31 33 30 34 40 32 30 24 16 13 21 17 19 20 23 29 44 55 50 58 59 50 44 46 48 45 46 41 46 44 44 37 39 38 28 25 26 22 25 32 37 40 41 44
21 19 28 31 26 28 29 27 30 42 34 30 31 22 19 17 20 17 15 29 31 53 56 60 55 56 58 51 53 45 44 40 44 46 46 46 41 38 33 30 30 29 27 26 34 41 47 50 48
27 25 25 26 24 25 24 30 28 35 43 32 30 27 11 15 13 19 19 29 38 64 52 56 62 62 58 53 53 43 49 45 40 42 43 43 40 38 35 32 30 34 33 37 42 52 53 52 50
24 29 29 29 22 23 24 23 28 32 36 41 30 30 18 12 13 13 18 25 40 57 57 54 59 52 56 58 57 52 54 52 48 43 42 38 36 34 36 35 36 41 46 46 51 56 60 65 46
24 25 29 31 29 24 23 24 29 31 34 38 38 26 28 21 17 18 19 24 43 58 60 57 53 52 55 57 54 55 56 52 51 49 52 46 44 42 44 47 50 52 54 53 57 65 65 53 42
27 26 26 25 25 28 20 25 27 31 31 39 37 27 27 28 20 20 22 24 36 41 68 61 58 54 54 59 56 57 59 60 57 54 52 55 59 60 63 62 63 62 60 62 65 62 54 42 43
32 32 31 25 25 27 23 23 26 29 30 34 38 38 28 32 26 17 17 19 32 46 50 66 70 64 61 62 60 64 66 68 68 68 65 63 62 61 62 60 66 67 62 69 63 51 48 46 47
35 36 31 29 27 26 25 26 27 28 29 31 39 36 35 38 33 22 17 19 24 36 46 55 57 57 67 63 60 66 66 67 67 68 66 66 64 62 63 63 61 65 63 66 60 48 45 45 49
38 35 34 32 24 26 28 30 31 26 28 29 36 36 36 36 35 26 20 15 21 29 35 40 43 48 58 51 62 63 70 73 71 69 64 66 68 71 73 66 62 71 63 53 53 51 50 52 54
52 38 38 35 31 23 21 24 27 21 28 26 31 33 37 35 33 30 21 15 13 25 33 33 36 44 47 49 55 55 60 64 67 67 64 65 66 66 70 71 70 64 68 50 52 53 54 56 58
52 43 41 40 36 26 27 23 27 25 25 25 26 30 35 31 31 31 23 18 16 16 25 32 33 39 42 45 47 51 55 56 60 62 63 64 66 63 55 63 56 57 63 54 55 58 58 60 54
52 46 42 44 40 31 29 22 29 34 28 29 24 26 30 32 29 26 25 21 17 17 19 27 34 38 43 45 43 46 48 49 53 59 52 58 55 51 45 44 48 49 46 52 52 55 56 50 49
47 46 43 45 44 39 34 23 34 35 37 30 25 24 22 31 23 28 25 24 21 16 19 23 29 35 35 38 43 44 47 45 45 44 47 49 51 46 48 46 45 46 45 45 48 50 52 49 46
50 46 55 46 45 39 35 31 35 36 35 36 29 28 21 25 24 25 27 26 26 25 18 20 28 32 40 38 37 41 42 40 41 42 43 41 42 43 43 43 45 49 47 50 53 49 44 47 41
50 54 52 46 43 47 42 40 36 38 36 37 32 28 27 24 24 25 28 25 27 27 26 23 23 30 34 44 44 41 39 39 39 41 43 43 44 42 43 44 45 47 47 45 46 48 46 51 56
55 55 54 56 55 52 50 41 41 41 41 35 35 29 32 29 26 26 28 28 30 25 26 25 26 26 32 36 43 51 48 46 46 44 44 44 46 48 45 46 48 51 48 41 39 48 53 51 60
69 67 67 62 59 54 46 38 43 45 42 38 38 31 35 33 29 27 28 29 33 32 26 26 27 29 30 30 36 41 48 52 59 57 54 59 55 52 52 51 55 52 51 51 42 47 52 61 71

GFSSGP_250_spd_051.txt.gz
Wind_Speed
52 50 50 51 53 56 57 57 59 59 62 63 64 62 64 65 67 68 70 68 71 74 76 75 76 78 78 76 78 76 68 68 74 70 69 68 64 66 57 53 57 56 72 80 81 82 81 85 87
53 49 47 45 49 51 52 54 56 55 57 55 54 58 61 63 63 65 65 66 69 72 72 71 71 74 75 75 73 70 69 65 67 66 65 65 64 57 46 51 53 58 58 56 62 66 72 77 82
48 44 45 45 48 45 44 46 47 52 51 49 50 56 60 63 61 63 62 62 63 67 68 66 69 70 71 69 69 67 64 65 62 63 62 61 57 44 37 44 55 53 53 51 49 46 52 47 54
46 43 44 39 38 38 42 45 45 49 46 50 54 55 58 60 59 56 52 53 59 61 61 63 64 57 64 66 60 64 62 64 58 60 51 55 43 35 37 42 46 37 37 28 29 31 31 26 26
45 41 34 35 32 36 39 40 42 43 49 50 50 52 54 56 55 49 45 41 42 42 46 53 50 48 50 51 54 58 59 60 58 54 43 41 35 33 41 38 32 34 35 37 35 28 24 28 35
40 32 27 28 31 32 35 39 38 45 53 48 44 41 36 34 30 26 24 24 25 23 21 30 38 38 39 42 47 51 55 56 45 39 43 39 35 38 45 44 36 38 36 24 17 23 30 29 28
32 27 27 29 25 29 32 38 42 51 49 45 38 21 19 14 18 24 22 19 16 9 13 17 16 32 37 40 41 46 49 42 41 39 44 37 32 38 46 44 33 30 29 25 20 20 22 21 12
30 26 23 22 25 27 32 36 46 45 42 37 24 23 27 21 23 25 25 25 17 9 23 26 2 24 32 36 41 47 49 45 42 35 34 28 33 41 45 39 35 32 29 29 24 26 25 25 19
28 23 20 20 24 27 30 37 48 41 36 35 31 26 28 25 22 26 21 26 22 12 32 39 44 42 41 39 41 46 46 47 42 43 40 40 35 32 41 40 35 30 27 30 29 27 24 29 28
17 16 15 21 24 22 26 36 43 38 35 34 29 29 28 25 18 22 17 22 18 13 29 35 33 35 37 37 41 45 54 47 53 53 45 41 32 30 33 33 32 29 22 24 25 23 22 27 26
11 16 14 20 22 19 24 32 40 38 37 32 33 28 24 19 22 17 16 12 20 19 22 27 36 42 39 42 47 60 55 54 55 58 56 40 36 35 37 37 32 30 31 25 31 33 31 25 29
14 15 16 18 13 22 25 30 33 34 36 26 29 28 23 19 19 13 12 14 16 13 25 39 31 47 44 44 47 52 54 54 52 50 50 44 40 37 34 28 31 35 25 26 21 22 22 31 30
11 15 18 17 17 20 25 29 28 29 36 35 31 29 22 23 21 15 15 10 11 8 27 46 43 47 44 44 48 46 51 53 52 46 48 46 41 37 36 36 37 30 35 38 36 37 29 29 27
14 17 20 21 21 24 26 28 28 26 30 38 37 31 24 20 22 11 9 10 7 8 22 46 42 48 46 50 49 51 54 55 56 48 44 39 37 38 37 40 39 43 45 45 33 27 30 26 32
16 18 21 18 18 19 20 21 21 27 29 34 37 36 27 17 19 14 13 7 7 11 22 39 42 46 50 49 44 54 52 51 54 48 46 47 45 46 43 42 43 41 30 30 31 27 30 36 36
14 17 18 24 23 19 20 20 20 25 27 30 32 40 30 20 18 19 13 13 13 17 27 37 45 45 44 51 41 42 48 59 58 58 50 52 49 48 43 43 36 36 32 32 31 32 36 42 45
15 19 13 17 21 21 25 22 17 21 23 28 30 37 36 26 21 17 18 15 17 23 31 38 44 46 48 55 53 49 47 49 54 56 54 50 47 50 47 43 40 36 33 33 39 42 46 51 56
11 20 16 15 18 20 21 21 18 20 19 26 33 32 33 35 22 19 15 16 15 29 32 44 41 50 48 49 59 49 52 54 51 46 49 47 52 52 48 41 37 36 38 41 52 60 58 58 63
27 27 21 16 18 21 22 23 20 19 20 22 31 29 33 34 27 24 14 14 19 26 38 48 48 44 51 55 46 52 53 52 56 54 53 54 51 51 43 43 46 50 53 55 57 63 65 60 56
32 31 24 19 18 22 22 24 22 22 24 23 26 26 31 35 34 22 21 10 15 23 32 51 42 49 47 57 50 51 51 51 54 54 53 55 55 56 55 55 57 55 60 63 66 69 65 60 60
38 37 27 19 19 22 25 25 24 26 29 22 19 22 27 34 33 26 24 15 11 13 23 36 50 46 54 48 55 59 57 58 57 59 59 60 59 58 60 61 62 65 67 71 68 66 69 67 56
42 41 30 23 22 24 25 28 17 21 25 21 19 23 21 31 30 32 25 21 11 10 15 25 47 43 45 49 49 54 54 57 61 63 62 63 65 64 67 70 70 72 70 66 67 63 62 59 54
48 39 30 29 28 28 26 26 24 24 21 19 23 28 25 22 27 26 26 24 16 9 12 19 29 44 44 50 44 45 51 58 58 62 65 63 68 71 71 70 68 67 62 64 57 57 53 51 51
43 42 38 36 34 30 29 22 32 26 21 22 22 28 30 24 22 22 23 21 21 15 10 13 20 29 39 43 48 44 45 49 53 55 58 60 63 64 65 67 68 68 63 58 55 52 52 51 52
43 44 43 40 39 34 29 28 32 30 26 23 23 26 30 28 18 22 17 20 19 18 15 10 14 22 31 36 41 40 41 42 46 48 53 57 60 58 59 57 55 54 56 53 53 51 49 51 48
52 48 47 43 41 35 31 31 35 34 31 27 25 27 28 30 18 20 20 18 19 21 15 15 15 14 21 29 35 39 42 41 43 45 47 49 49 52 51 51 52 51 48 51 52 51 50 52 53
53 50 53 46 39 35 33 37 38 38 37 30 31 29 31 29 25 21 23 20 19 18 19 15 15 17 16 20 29 34 35 38 43 45 46 46 46 46 46 49 48 49 51 52 49 52 50 51 53
53 51 47 45 39 36 35 37 42 43 41 38 34 33 33 27 29 22 27 26 21 17 19 23 20 18 18 21 23 28 41 40 41 46 50 51 51 52 51 50 50 49 49 51 51 49 50 51 53
57 52 47 44 40 34 34 39 44 44 44 37 34 33 33 30 30 33 28 28 28 24 21 20 24 19 21 19 20 26 32 38 48 47 49 51 54 54 56 54 52 52 51 51 51 50 48 50 52
63 58 52 45 38 36 39 42 45 48 49 42 39 35 36 33 33 36 32 31 32 29 27 25 22 23 22 22 22 23 27 36 40 43 48 54 54 53 55 53 53 55 55 57 54 54 59 58 53

GFSSGP_250_spd_054.txt.gz
Wind_Speed
52 53 54 53 53 56 53 53 54 54 55 59 63 66 67 68 69 70 70 72 73 72 73 77 77 74 78 80 78 79 83 79 77 74 73 74 74 74 73 73 74 73 71 71 68 72 77 84 80
53 51 50 49 49 47 47 49 51 53 52 57 59 61 62 62 65 65 66 67 68 69 70 74 75 73 77 78 78 77 78 78 72 70 70 66 69 69 68 63 65 60 58 55 58 64 65 66 69
51 49 47 47 47 45 47 49 48 47 51 51 53 56 57 61 62 61 60 62 64 66 66 71 73 73 70 70 70 72 68 74 69 66 66 65 64 63 63 60 56 46 41 46 49 52 55 51 53
47 45 45 46 45 45 43 39 38 44 45 44 46 53 58 59 58 58 58 60 62 62 62 61 65 67 63 60 66 63 65 67 64 62 61 59 61 58 56 54 48 41 44 43 44 41 43 41 39
42 40 40 42 43 36 31 30 35 37 37 41 44 46 49 51 52 52 51 51 49 49 55 54 56 54 47 41 48 52 58 58 62 58 61 57 59 56 55 51 38 40 39 33 27 30 27 34 37
37 38 37 37 31 27 28 28 29 34 38 42 42 43 40 42 41 35 24 22 26 34 33 31 33 31 37 40 39 45 44 41 56 58 54 54 56 54 49 46 48 35 38 36 34 31 34 34 32
36 36 36 35 29 24 24 23 25 33 40 37 37 34 27 27 20 18 10 6 8 13 15 15 10 17 26 27 34 38 44 45 47 46 51 50 47 49 41 46 43 40 43 41 33 33 24 24 19
32 32 33 33 25 21 18 19 25 32 36 32 33 28 15 10 17 14 12 12 19 17 18 12 11 8 12 31 25 28 30 40 48 45 42 42 48 43 38 42 37 40 44 37 34 30 24 23 25
32 31 32 26 20 19 18 18 24 30 33 34 32 28 19 12 16 15 13 12 13 11 21 27 11 17 27 26 41 37 35 37 42 41 41 38 38 36 40 41 39 41 44 43 31 32 32 28 27
30 29 29 22 17 17 17 17 23 27 28 33 31 28 24 14 13 14 13 8 8 15 24 25 21 35 32 26 28 35 35 36 40 40 40 34 32 33 38 35 33 42 45 38 31 24 24 25 27
27 27 21 18 15 18 15 19 21 25 25 27 29 29 27 22 13 10 10 9 6 6 31 34 32 20 25 25 15 30 39 38 39 39 33 29 32 33 30 35 42 40 42 35 33 32 31 33 28
26 26 22 18 15 16 16 19 20 25 24 25 26 32 26 23 17 9 11 10 4 3 25 37 38 33 33 42 40 37 37 46 45 40 39 43 44 43 36 36 34 34 36 37 37 29 22 28 31
24 24 23 18 18 18 18 20 23 20 20 23 24 32 29 27 19 12 9 9 5 6 11 27 37 39 43 32 40 44 44 52 46 45 47 48 45 43 36 37 36 35 38 38 33 34 31 37 38
25 24 23 20 20 19 20 22 23 17 18 19 22 28 35 28 21 12 10 7 8 8 10 21 35 38 33 34 33 41 51 53 48 50 56 56 49 46 39 37 39 34 35 34 34 36 40 39 29
29 24 24 21 21 22 18 18 18 19 20 19 20 26 30 31 21 14 10 13 10 16 13 12 31 33 37 36 36 44 62 59 47 51 48 49 52 51 50 49 48 42 36 38 38 41 34 30 35
28 23 20 18 21 25 22 20 24 20 19 20 21 22 26 26 22 14 12 10 12 20 21 15 31 36 34 34 39 51 60 60 45 45 50 48 48 45 41 39 44 44 41 38 39 36 39 37 37
31 26 19 20 19 19 14 13 19 18 22 21 21 22 22 27 30 18 11 13 17 24 26 20 36 42 35 35 39 41 46 53 57 54 50 54 46 47 44 45 45 46 47 44 47 49 44 43 45
36 25 21 21 19 18 18 14 17 17 19 20 21 26 21 25 27 24 12 9 19 23 29 29 35 41 45 38 36 45 46 49 52 58 54 53 56 52 50 53 51 52 52 50 50 44 47 43 46
36 31 27 20 18 16 15 16 17 19 18 20 26 28 20 26 26 29 17 8 13 20 35 33 39 43 47 44 40 47 45 49 49 51 57 59 56 58 54 50 56 57 57 58 57 50 46 51 59
39 42 36 23 22 19 18 18 20 20 19 20 27 24 20 28 26 28 24 12 5 22 30 38 43 48 50 52 41 46 48 51 54 54 52 55 59 61 61 65 60 61 63 58 52 55 56 63 64
39 43 41 26 23 23 21 23 20 19 17 15 17 18 20 25 27 24 25 19 9 8 27 40 44 43 46 53 54 43 43 52 57 56 55 57 58 60 62 65 65 64 61 59 62 64 65 66 69
40 46 38 36 23 28 25 28 21 20 19 17 16 15 19 21 23 24 22 24 15 7 11 31 42 45 43 46 47 52 56 53 50 50 51 52 55 56 56 58 59 60 60 63 65 66 70 74 73
50 45 35 29 32 31 32 32 25 23 25 25 19 16 17 20 21 23 19 20 18 12 6 10 32 42 46 49 50 52 51 52 54 54 54 57 57 59 61 60 62 65 67 68 72 72 73 74 77
48 44 38 36 35 35 39 31 39 29 27 26 24 19 15 19 20 22 18 18 16 16 12 5 10 30 43 47 50 53 55 56 56 56 56 59 60 62 64 66 67 67 70 71 71 72 69 71 62
47 51 47 43 37 40 38 33 38 34 29 28 30 24 22 23 21 21 22 15 18 15 14 10 5 6 21 39 45 51 54 56 54 54 56 58 60 61 62 63 66 67 68 68 69 65 62 61 58
59 59 50 42 40 44 37 30 38 37 34 31 29 30 25 25 26 23 20 19 16 18 12 11 9 7 8 13 28 41 46 52 53 55 56 55 55 56 57 57 61 62 63 59 55 57 58 59 60
57 50 53 46 43 41 40 38 38 39 39 35 30 34 32 27 28 26 23 22 20 20 14 10 13 12 11 10 12 19 33 45 47 46 44 47 49 51 53 54 55 56 55 57 56 58 59 58 57
58 57 55 50 47 47 44 42 43 47 44 39 33 37 35 31 32 29 24 19 25 23 22 18 15 14 13 12 12 14 19 27 39 47 52 52 52 52 52 53 54 54 54 55 55 57 58 58 59
60 57 57 53 51 49 49 48 48 48 45 41 37 39 37 35 36 31 27 24 23 28 28 26 26 20 14 12 12 11 12 14 24 35 43 47 46 46 49 51 52 55 55 56 57 59 63 63 61
63 61 61 59 56 53 52 50 48 47 45 43 41 45 41 39 39 35 30 29 24 27 32 29 30 26 20 18 19 13 16 14 16 18 22 34 45 52 53 52 54 54 55 58 57 59 59 61 62

GFSSGP_250_spd_057.txt.gz
Wind_Speed
41 46 52 54 56 55 51 47 51 50 52 54 56 59 62 66 68 71 73 74 76 79 78 79 81 82 83 84 83 84 83 85 83 81 82 80 81 80 81 80 78 76 77 75 74 73 74 75 75
40 43 47 51 55 53 51 50 49 50 52 54 56 58 61 63 65 67 69 69 71 72 73 73 75 73 77 76 72 72 75 77 77 75 76 73 72 70 71 74 74 72 68 68 67 64 62 63 59
39 41 45 46 48 49 49 46 48 49 49 53 55 56 57 61 66 64 64 65 65 66 68 68 69 71 72 69 67 68 71 70 70 71 70 68 65 65 69 67 66 63 59 47 52 51 41 48 53
37 40 42 46 44 45 42 42 45 44 45 48 47 47 50 54 60 59 57 58 60 61 61 63 65 66 65 62 58 61 60 61 60 60 64 61 63 64 64 59 60 56 51 49 39 36 38 44 50
38 40 41 43 40 40 42 41 39 38 37 38 36 41 46 47 50 49 51 52 52 52 52 52 54 54 54 41 30 24 36 38 53 54 59 58 58 58 55 58 57 47 44 41 42 42 46 47 34
40 39 41 41 39 39 40 38 35 33 27 30 33 39 39 38 40 42 44 41 40 40 36 27 34 40 30 29 27 33 47 38 41 45 53 58 57 58 50 42 50 51 44 41 39 44 37 37 31
39 41 40 39 36 38 37 34 29 22 25 32 37 37 32 29 35 40 32 29 27 32 27 25 11 19 23 25 35 36 46 39 39 37 46 56 49 51 54 49 44 37 41 38 38 40 41 39 32
41 42 39 37 35 38 35 32 18 20 24 30 33 34 29 25 27 32 23 18 16 11 24 30 21 20 23 41 41 30 50 50 38 33 41 53 45 54 47 47 45 41 41 49 45 42 41 37 30
41 44 38 34 36 37 32 25 16 19 24 30 33 34 31 25 23 21 18 14 7 11 28 28 26 23 25 38 56 44 29 53 39 35 36 49 48 48 45 42 40 39 41 41 40 40 37 35 30
43 43 36 35 36 34 30 19 16 20 23 27 29 31 30 25 21 19 13 14 6 13 29 34 31 23 26 43 49 59 44 47 49 40 44 50 47 45 42 37 36 32 37 37 39 38 43 40 31
46 45 33 35 35 32 28 19 16 20 21 21 24 26 27 26 25 16 13 11 10 15 25 36 30 22 31 27 45 57 46 44 39 36 41 46 39 35 34 37 32 40 43 38 44 47 41 31 24
45 41 34 33 32 29 27 19 18 19 23 19 21 22 26 28 26 18 16 11 9 9 27 29 31 25 30 37 36 51 51 43 27 34 39 42 40 35 28 27 33 33 35 42 40 34 38 35 30
49 38 35 32 32 31 30 20 21 21 25 20 18 20 26 29 27 24 15 14 12 15 22 33 34 35 22 26 35 32 34 44 41 41 42 41 38 33 28 32 36 35 41 41 40 36 33 31 36
50 34 36 32 34 31 25 23 23 26 27 21 19 21 26 25 29 27 15 14 10 18 16 29 38 35 36 32 35 40 38 42 46 41 42 35 29 32 39 36 36 42 42 34 30 29 31 35 37
47 36 35 33 34 33 28 24 25 23 21 22 22 22 27 23 27 29 19 12 15 20 16 16 26 30 39 41 37 36 41 41 41 46 42 35 37 37 39 40 36 43 40 34 33 32 36 35 35
47 39 39 32 34 34 29 30 26 26 23 24 23 21 23 24 22 28 24 14 14 18 19 17 17 23 25 39 40 34 41 39 48 46 46 38 35 40 40 44 45 38 37 40 39 39 41 39 37
46 43 39 32 34 32 28 25 25 24 19 23 20 17 22 23 21 24 26 17 16 18 26 22 18 19 24 30 31 25 28 41 49 44 42 43 43 48 42 42 45 47 48 43 46 43 46 46 46
50 43 39 33 32 26 24 22 21 17 16 19 18 17 23 20 22 21 26 19 12 22 23 29 22 26 25 30 26 31 29 45 50 49 45 43 49 47 42 43 48 49 49 50 48 47 52 55 55
48 42 41 37 30 27 24 19 21 17 13 18 17 16 20 16 19 19 21 21 13 20 28 32 28 32 31 33 29 29 32 33 54 46 42 46 47 45 47 40 43 46 48 50 53 54 57 59 58
47 42 46 41 35 31 24 21 19 18 17 15 16 11 11 13 17 17 18 22 14 11 28 36 34 36 38 33 38 35 32 34 50 45 47 46 48 54 49 53 49 52 51 56 60 60 57 59 62
49 46 49 45 34 32 30 28 21 18 16 17 11 8 8 13 14 16 16 19 16 6 21 38 39 43 45 46 38 39 38 40 42 46 49 55 57 57 55 57 60 59 62 65 64 64 66 65 66
50 51 47 47 38 36 33 35 25 19 16 19 20 15 14 14 17 16 16 15 17 13 8 29 45 47 48 44 51 47 41 46 48 50 51 52 51 53 62 63 60 66 63 62 64 66 67 66 65
57 55 47 42 43 41 38 37 33 24 20 20 20 22 18 22 19 20 18 16 16 18 14 8 37 51 51 49 50 52 52 49 50 50 55 59 57 59 57 59 57 61 63 63 64 64 63 66 66
60 53 49 43 39 36 41 39 40 31 26 23 25 23 21 22 24 22 21 18 14 14 14 12 9 37 53 54 53 56 60 59 56 52 52 53 54 55 57 59 59 61 63 61 62 64 65 67 74
60 54 52 46 42 37 45 38 46 39 31 28 27 25 25 23 25 23 21 20 14 14 10 8 10 12 26 54 56 57 58 61 61 60 59 57 56 57 58 59 59 61 63 64 66 70 73 75 74
60 61 57 53 50 47 47 36 49 45 39 32 29 27 28 27 27 26 19 22 19 15 14 8 8 10 9 24 56 53 59 62 62 63 64 64 65 66 66 68 69 70 72 74 74 72 71 71 72
59 56 60 57 49 47 49 45 49 50 44 38 32 30 34 29 27 28 19 25 23 15 18 14 9 9 10 10 14 33 57 57 64 67 66 67 69 70 70 70 72 70 71 69 69 68 68 63 60
58 60 61 57 54 52 51 48 50 54 49 39 39 36 40 35 31 32 24 24 27 23 19 20 19 15 15 13 12 13 20 33 55 62 60 65 69 70 69 71 70 66 65 62 60 61 62 62 62
59 61 61 60 56 56 58 55 55 50 49 48 46 46 44 43 35 36 33 26 31 27 23 19 21 21 20 17 14 12 14 17 25 31 39 53 61 63 62 67 68 64 62 61 60 59 62 59 60
59 61 64 64 59 58 57 58 55 54 55 53 52 52 50 47 44 40 40 34 34 34 31 28 25 22 23 26 21 21 18 15 17 22 24 27 31 39 45 52 59 60 60 60 60 60 61 59 60

GFSSGP_250_spd_060.txt.gz
Wind_Speed
52 49 47 46 49 52 53 52 43 52 49 52 50 52 55 58 59 61 65 70 68 71 76 75 76 78 79 80 81 81 80 80 80 79 78 79 80 82 80 81 81 81 80 80 81 80 80 77 78
63 54 47 43 47 49 48 44 39 46 47 49 51 52 54 56 56 58 66 66 65 66 70 69 71 71 72 73 73 72 72 74 72 72 71 70 73 75 73 74 75 78 78 78 76 77 76 72 72
61 55 47 40 42 44 44 41 38 41 43 45 46 49 51 53 55 57 62 63 64 64 67 66 67 67 68 67 64 60 61 59 58 56 60 63 63 64 61 59 62 64 66 67 67 66 65 63 55
60 55 51 38 39 41 40 42 34 41 41 45 47 47 46 50 50 55 55 56 58 57 57 60 60 59 59 55 52 48 45 40 40 44 47 50 51 55 53 54 55 54 57 56 57 56 42 39 47
66 53 50 42 36 41 38 41 37 41 42 43 41 43 38 41 45 48 49 48 49 47 48 47 46 49 49 44 35 23 17 21 27 25 26 30 38 43 47 48 51 54 58 53 50 46 35 30 28
66 56 51 48 37 41 37 37 39 39 42 39 35 34 32 35 40 45 43 44 44 44 43 40 35 34 30 25 20 22 5 24 33 36 35 37 36 41 48 47 49 45 45 49 48 45 37 39 33
63 51 49 50 39 37 35 37 37 40 41 33 30 30 30 37 33 36 39 36 38 39 40 34 29 27 22 22 34 39 40 29 33 46 48 49 46 43 44 46 46 40 36 35 35 34 27 27 34
55 48 49 50 44 37 37 37 36 40 38 26 25 27 32 32 35 30 32 29 33 36 33 26 20 22 18 18 40 40 50 48 37 43 52 52 51 43 42 42 40 40 27 24 37 40 34 38 38
50 45 49 49 45 37 35 39 37 42 30 25 22 27 27 28 30 27 28 23 30 30 24 24 27 28 26 29 44 49 45 47 45 51 58 51 49 40 40 41 37 37 27 39 33 30 34 33 36
46 47 48 47 43 37 35 40 36 39 29 24 21 24 26 28 28 25 26 23 24 26 25 31 29 30 31 45 51 60 50 44 48 58 60 50 44 29 31 32 31 29 41 41 38 36 44 39 42
51 50 51 43 39 38 34 39 36 33 28 23 22 22 25 23 26 24 21 20 22 23 29 36 34 34 37 55 53 58 59 53 49 54 53 47 41 41 35 40 43 35 40 43 38 36 32 43 40
53 54 45 41 40 38 36 37 36 31 29 25 23 23 24 23 28 28 22 16 23 23 31 37 39 37 39 61 58 55 66 57 55 50 46 43 38 39 43 42 43 37 39 36 36 33 34 41 36
49 49 43 40 41 40 36 36 32 32 30 24 24 23 26 25 29 28 24 17 21 25 21 32 42 40 42 63 62 52 62 62 56 48 46 43 39 42 44 38 38 35 38 36 31 35 36 42 34
50 46 39 38 44 38 35 33 32 31 31 28 30 28 27 26 25 28 27 16 13 24 23 29 41 45 46 53 62 56 58 58 56 45 53 44 41 40 42 36 38 36 34 33 29 39 41 36 36
46 45 36 43 46 38 35 34 34 33 33 31 28 25 27 24 24 25 25 21 13 22 25 25 38 43 40 36 49 58 61 56 61 57 50 51 44 40 39 37 35 33 31 25 40 39 32 31 27
45 42 36 47 44 39 34 40 35 31 31 27 24 28 27 23 23 24 25 22 17 19 26 31 33 37 38 41 36 38 60 62 63 55 49 50 45 39 42 39 36 35 35 36 43 44 40 39 31
47 39 40 45 42 39 34 37 37 35 30 29 26 28 24 20 23 21 24 19 15 16 24 30 27 30 36 39 39 43 48 53 52 49 38 42 40 40 37 32 32 37 35 43 45 46 37 37 38
47 39 42 46 43 40 36 35 35 32 32 28 23 21 21 19 18 19 20 18 18 14 20 30 29 24 26 28 30 28 48 42 52 44 37 43 41 36 34 34 37 40 37 32 37 35 35 40 41
44 37 44 49 44 39 37 33 35 29 25 20 17 18 17 17 16 17 18 16 23 18 16 28 31 26 23 23 24 26 27 29 29 37 38 48 45 39 38 41 43 45 42 37 37 41 44 46 48
32 35 43 46 43 39 36 32 33 29 27 24 17 14 12 12 10 15 13 15 19 23 18 23 25 27 26 25 27 29 27 29 25 30 46 49 40 43 44 45 45 44 44 40 39 42 46 52 52
33 34 47 48 45 42 36 36 33 31 23 23 22 14 13 10 11 15 19 14 14 20 17 19 20 32 27 33 31 32 30 28 27 35 47 48 45 44 44 45 48 45 45 42 43 50 54 54 57
44 43 50 51 47 43 41 38 35 30 24 23 21 18 16 16 19 20 19 22 15 14 15 14 20 36 37 32 35 34 36 34 31 30 46 38 44 44 48 48 49 54 51 51 53 52 57 59 62
45 48 52 53 48 48 41 42 40 34 29 26 23 20 19 19 18 18 21 22 21 14 12 15 12 21 42 37 38 37 34 38 38 34 34 51 41 50 51 48 53 52 53 56 57 59 62 63 68
43 46 50 54 48 47 47 47 42 38 34 30 25 22 21 20 19 21 20 20 19 15 13 11 12 10 25 45 42 39 42 42 38 41 43 43 46 46 49 56 59 59 56 57 61 64 61 62 64
45 44 48 53 49 46 51 52 45 40 35 32 31 28 25 25 21 22 22 20 16 19 17 10 9 7 7 31 45 48 49 49 49 47 47 51 53 56 58 60 61 60 60 61 62 62 62 63 64
47 46 44 52 56 56 55 43 46 42 33 38 39 35 28 30 25 24 23 25 18 18 19 16 13 9 4 4 17 49 44 50 51 53 57 55 57 58 61 61 62 62 63 65 66 67 68 70 68
49 47 43 43 60 58 54 50 46 45 40 38 39 38 33 33 28 29 27 26 24 20 23 21 17 16 12 11 7 11 20 55 47 53 56 60 65 67 66 66 68 68 68 68 69 70 72 71 73
52 53 57 54 58 58 57 54 50 53 47 41 39 42 39 34 32 36 33 31 30 26 24 24 20 19 23 20 17 12 12 15 30 48 50 59 66 64 67 68 71 71 72 75 75 77 77 78 81
57 55 56 55 55 56 58 59 60 54 51 50 50 46 42 40 39 40 39 33 33 33 29 27 25 22 22 24 24 19 17 14 15 20 29 42 48 52 62 71 76 75 76 79 79 82 84 79 76
61 59 58 55 56 54 55 59 60 57 52 54 53 50 48 46 46 46 44 39 35 37 32 29 29 27 25 27 26 26 26 24 21 19 20 25 29 36 45 54 60 65 70 69 68 69 71 70 71

GFSSGP_250_spd_063.txt.gz
Wind_Speed
44 43 42 49 55 56 59 63 62 56 55 60 60 61 63 62 59 63 67 63 61 64 67 70 72 73 74 75 76 77 77 75 76 76 76 77 78 78 78 78 80 80 82 81 80 80 79 77 76
53 48 49 54 63 61 58 59 61 52 55 54 58 55 53 53 53 55 60 59 60 63 67 67 68 69 70 70 70 70 69 67 64 63 62 62 63 63 64 67 70 71 74 75 74 75 75 73 72
54 52 58 63 64 66 64 57 56 49 49 53 49 50 45 48 47 47 53 59 61 56 63 63 64 64 66 66 66 64 62 59 56 52 49 47 49 51 53 55 57 59 62 63 65 66 65 63 63
59 59 67 64 65 67 68 56 56 52 52 49 47 45 38 45 47 46 47 51 54 50 54 58 55 56 55 57 57 53 47 41 34 31 32 36 39 43 45 47 47 49 53 51 51 51 52 53 47
64 69 75 72 69 68 66 57 54 53 47 41 40 43 33 43 42 40 42 46 50 44 45 47 45 41 40 41 38 33 30 22 14 12 21 27 33 32 33 38 41 45 48 49 51 48 45 41 38
72 76 79 74 76 78 62 53 52 53 45 41 36 36 33 38 38 38 38 40 44 45 41 40 37 30 26 25 24 16 21 16 11 18 30 32 30 26 28 27 30 39 41 43 45 45 45 45 38
76 84 82 81 73 63 54 50 51 42 46 36 39 33 33 38 37 32 34 38 38 40 38 38 31 27 19 18 30 34 33 25 17 21 31 34 41 43 44 43 32 31 41 37 33 32 34 34 33
87 94 76 61 58 51 56 44 50 43 41 36 37 34 33 36 32 25 33 40 37 38 35 34 23 23 21 29 38 47 41 34 38 42 29 40 43 54 50 48 38 31 35 35 30 27 29 22 19
84 74 56 57 55 55 51 44 47 43 36 36 37 34 34 32 27 22 27 34 36 35 31 29 22 21 27 32 51 56 43 39 48 40 45 39 47 46 44 47 39 30 32 32 27 22 22 29 23
69 59 53 59 62 52 47 47 45 42 35 36 36 32 33 30 21 20 25 31 34 33 26 26 25 26 34 36 53 61 47 48 61 58 55 49 42 46 44 45 39 36 32 28 26 20 18 26 23
64 51 60 60 61 48 42 47 38 39 35 36 36 32 29 28 20 22 26 31 32 29 26 23 27 30 38 36 49 59 55 59 59 64 57 53 53 46 50 42 41 22 27 33 31 29 28 36 32
60 58 60 62 58 46 42 44 35 36 37 36 35 34 29 25 22 23 25 31 29 30 25 22 28 34 36 37 45 60 55 57 61 57 52 60 60 50 50 35 41 42 37 34 37 34 36 37 28
55 53 55 57 52 41 45 39 37 35 37 35 35 35 26 24 25 26 24 29 28 32 23 22 29 34 39 40 49 57 57 56 59 49 54 61 56 55 49 42 36 42 37 32 36 37 37 35 24
47 48 51 52 47 40 41 39 33 38 36 34 36 35 28 28 29 26 23 25 27 29 25 21 32 34 37 43 50 54 55 49 56 53 61 48 54 38 34 31 23 28 29 37 36 44 41 36 30
40 39 42 42 38 39 41 36 36 38 35 33 36 33 30 29 26 25 23 24 26 28 25 21 25 34 43 41 51 53 52 53 57 58 51 55 51 42 30 32 27 28 32 37 39 42 36 28 29
36 35 34 38 41 42 34 41 37 37 33 35 34 33 28 29 24 21 22 23 25 26 25 22 27 28 47 50 54 59 51 55 59 54 51 51 54 46 37 37 38 32 32 38 39 37 34 25 34
37 37 40 43 43 40 32 45 36 36 34 35 33 30 26 29 23 19 21 22 21 25 24 21 27 32 30 54 54 60 58 58 63 62 57 53 52 54 37 36 36 37 38 42 38 33 30 34 39
36 41 47 48 48 36 37 42 37 37 35 35 34 27 26 27 19 17 22 18 18 21 20 18 23 30 29 31 54 60 60 62 60 63 62 60 57 57 49 40 37 41 47 47 42 33 28 43 40
42 44 47 46 44 37 40 41 39 35 35 33 33 27 27 22 18 10 12 14 14 18 19 17 20 30 30 29 39 63 65 56 59 60 65 61 65 51 44 42 44 51 47 47 39 38 39 39 44
47 45 47 47 37 27 43 38 36 33 35 35 30 25 20 18 17 1 10 14 15 18 16 19 16 24 32 28 34 41 50 59 59 54 50 57 58 52 49 43 50 49 46 45 40 41 43 39 42
51 46 51 36 30 29 40 38 39 35 34 34 28 24 24 17 17 10 13 15 16 19 15 14 7 16 27 30 25 32 35 39 39 47 55 55 49 48 46 48 48 48 44 40 41 41 40 43 45
48 48 47 38 30 33 44 41 36 35 35 33 30 29 26 21 21 16 14 15 15 18 16 13 11 11 24 28 28 23 26 27 29 32 33 35 36 38 48 49 45 45 45 40 43 48 47 50 52
47 49 38 32 30 37 46 40 39 37 35 35 31 28 23 22 20 20 16 15 15 15 17 15 13 11 11 34 30 26 25 29 34 32 29 28 33 39 44 45 44 41 39 45 48 49 48 51 51
45 39 31 32 31 39 46 42 41 41 40 37 31 27 27 22 22 21 16 15 15 13 14 17 17 12 10 12 38 33 32 30 38 36 31 31 38 47 50 48 47 45 47 47 49 51 53 55 55
45 36 35 34 34 37 50 46 47 48 43 42 38 31 31 26 23 22 22 18 16 18 15 15 16 16 12 10 12 40 41 36 40 36 39 39 40 46 52 47 47 48 52 54 53 55 59 60 60
50 42 38 41 38 39 53 44 48 52 47 45 39 40 37 32 28 25 25 23 21 21 20 17 16 16 17 13 10 11 35 43 41 43 44 41 38 40 46 50 51 52 52 57 58 60 60 62 63
47 39 40 46 43 36 46 51 56 50 49 47 47 42 40 39 34 29 30 29 26 22 22 23 18 20 17 17 19 14 14 25 32 40 50 47 49 51 52 52 52 57 62 61 62 66 68 66 68
55 46 50 46 45 43 27 52 55 52 49 52 48 42 39 40 42 40 31 28 29 26 26 25 25 19 21 20 18 22 23 21 20 18 26 48 52 54 56 56 58 61 62 65 68 67 69 71 74
55 56 47 51 47 44 42 36 40 54 54 50 47 45 46 43 38 38 31 31 33 32 31 28 29 26 22 20 21 19 19 22 25 22 21 27 35 45 53 59 63 63 66 67 71 73 73 74 73
58 59 57 50 53 46 45 46 49 53 56 57 56 52 47 41 38 40 38 35 35 37 35 34 31 33 28 24 25 26 26 23 20 26 28 28 27 29 36 40 38 42 50 62 72 76 76 79 77

GFSSGP_250_spd_066.txt.gz
Wind_Speed
60 56 54 52 52 57 56 56 56 55 55 56 57 57 57 59 61 60 61 65 69 72 72 73 74 77 79 80 80 80 81 80 80 81 80 80 79 81 80 81 81 82 82 81 81 79 79 78 77
63 63 60 53 55 53 64 56 53 56 58 53 57 55 50 54 58 59 57 58 61 65 68 70 71 72 74 73 73 75 76 77 77 75 74 74 72 71 71 71 70 73 73 71 71 73 72 71 72
63 61 62 57 52 59 62 61 57 59 59 58 58 56 49 53 58 57 56 54 54 58 63 64 65 67 70 69 68 70 70 71 71 67 63 60 56 56 55 54 57 59 62 63 62 60 60 60 60
66 61 58 49 52 64 69 67 61 64 65 60 58 52 51 53 57 52 52 51 50 52 57 57 53 57 59 59 61 62 63 63 61 55 50 46 45 45 50 46 51 50 50 51 54 52 48 47 48
61 59 56 55 59 68 70 75 69 72 69 62 47 52 50 54 49 47 47 46 42 44 50 52 47 47 47 45 43 38 39 40 36 36 28 24 20 23 28 37 40 41 41 43 46 44 43 43 41
63 62 59 57 60 74 76 86 82 78 67 53 43 51 52 50 46 44 42 41 40 42 42 45 41 35 32 28 25 12 16 17 20 27 23 16 17 23 27 22 27 23 24 33 37 37 39 41 42
68 64 59 62 65 78 90 89 82 72 52 46 41 49 49 46 43 40 37 39 37 37 37 36 33 28 32 26 28 21 6 20 22 23 15 17 25 31 28 31 30 28 26 20 19 30 31 33 38
75 72 67 72 75 80 89 80 69 55 43 43 41 47 46 40 41 39 38 35 34 32 34 34 29 29 28 29 39 44 41 52 42 32 27 25 32 30 33 34 37 36 32 27 23 26 26 28 29
79 78 77 81 83 86 89 67 56 46 40 40 41 38 40 37 36 38 39 32 32 30 32 33 30 29 28 30 44 56 53 53 56 37 38 44 44 46 40 43 44 34 27 29 24 26 28 30 28
92 90 88 91 84 77 75 61 54 48 37 42 42 38 37 34 34 37 36 28 31 31 31 31 31 30 27 28 47 57 60 60 50 45 45 52 51 47 47 43 42 31 33 23 28 27 29 25 29
97 88 87 75 68 64 69 60 52 45 38 45 40 41 35 35 33 37 34 29 33 34 33 32 27 30 26 29 44 58 64 61 52 50 55 60 55 43 43 35 37 34 39 26 16 24 27 24 27
91 76 57 56 58 65 61 58 47 43 42 40 41 40 36 34 33 36 30 30 33 33 32 30 27 28 25 27 43 57 64 64 58 57 52 54 39 44 37 39 33 28 23 30 37 28 29 29 34
70 64 49 51 61 63 53 46 41 42 42 40 39 38 37 32 36 36 29 28 31 32 32 29 24 26 24 27 42 57 63 61 58 60 54 59 48 51 55 46 41 34 33 27 32 39 41 37 39
63 51 52 48 50 47 37 37 41 40 43 40 37 36 35 34 38 36 29 30 32 30 31 28 25 24 25 30 38 46 67 58 51 55 56 59 47 49 52 53 52 44 27 28 30 35 39 43 38
59 52 45 41 38 33 34 36 35 41 40 39 36 35 33 35 36 39 30 26 29 30 31 28 27 24 22 31 35 37 62 66 52 47 49 59 56 50 53 51 46 32 32 24 23 31 38 34 39
57 47 38 39 38 40 36 38 41 42 42 38 38 34 34 36 37 36 30 24 26 28 27 27 28 24 25 32 36 34 35 57 58 51 53 50 48 47 51 54 47 40 29 30 28 33 37 42 41
52 36 37 42 43 45 41 49 49 47 40 37 35 34 33 33 35 32 27 25 24 26 25 24 28 27 24 28 38 38 39 42 53 57 56 56 52 42 38 41 46 41 45 39 33 32 42 40 45
45 34 40 45 47 41 41 52 50 43 40 38 35 34 32 31 34 28 25 22 23 23 22 22 25 25 22 26 40 43 45 49 46 49 55 58 59 50 51 50 44 41 36 39 37 34 39 42 44
35 34 39 47 42 38 47 52 43 39 37 35 32 32 32 32 32 27 22 12 12 14 16 20 25 21 22 26 38 45 45 45 58 49 57 58 58 55 49 50 45 42 39 34 39 39 41 42 46
29 36 44 47 44 46 52 54 45 36 36 35 31 32 34 32 29 23 17 10 10 14 14 15 20 22 11 23 31 37 47 48 50 56 54 60 58 60 61 53 55 48 44 40 40 43 49 47 49
31 42 47 48 46 45 53 47 40 40 37 34 30 30 31 32 27 22 18 14 12 13 15 14 16 17 15 13 27 26 30 53 57 60 56 54 53 48 51 55 55 52 50 40 43 52 52 46 48
36 46 51 50 37 48 50 43 36 38 32 29 28 27 30 32 26 24 22 16 14 12 13 16 15 16 15 19 16 27 27 22 39 52 56 57 56 55 51 51 53 59 53 48 49 52 49 50 49
42 48 52 49 41 48 42 39 40 40 36 38 36 31 31 35 29 26 25 19 15 13 10 12 16 16 16 15 14 17 25 24 26 39 43 45 39 43 46 51 52 52 50 47 50 50 50 47 50
51 50 55 51 50 46 38 39 43 41 42 38 37 32 35 35 34 29 28 20 14 14 12 10 13 17 15 16 17 16 19 22 22 27 37 33 32 33 36 44 46 44 43 46 45 48 46 48 48
46 53 52 51 53 36 38 35 46 47 41 38 38 37 37 36 38 32 26 20 17 15 12 12 11 13 15 15 17 18 17 25 25 23 24 28 32 31 33 36 38 34 44 48 45 45 47 47 51
40 49 49 50 52 34 36 33 44 54 49 42 38 39 41 39 38 34 27 24 21 17 16 11 12 12 13 13 15 15 14 16 31 35 30 29 35 38 39 36 39 40 43 53 52 50 53 55 58
43 49 53 51 56 39 36 37 39 55 48 45 43 42 43 40 35 34 32 29 26 23 20 16 14 12 13 12 14 14 17 19 18 19 40 47 39 40 42 41 45 44 46 51 51 53 53 54 56
48 51 50 49 54 47 39 42 40 51 51 53 50 46 42 40 38 39 38 36 31 24 26 24 20 17 16 16 15 14 15 17 16 21 24 23 29 45 48 50 47 48 54 54 56 57 58 58 61
59 56 52 53 52 47 43 49 33 41 51 51 50 49 45 42 39 41 44 43 40 33 30 30 28 24 20 20 22 20 20 20 22 23 21 24 25 24 25 42 51 48 53 57 59 61 62 66 67
67 63 57 54 59 49 44 45 43 38 42 46 53 51 52 47 42 40 38 41 45 42 35 32 35 33 26 25 24 28 26 28 29 29 30 26 23 26 29 28 28 33 43 53 60 66 69 72 75

GFSSGP_250_spd_069.txt.gz
Wind_Speed
59 61 63 63 66 66 70 66 60 60 59 60 62 63 67 64 62 59 61 60 60 61 62 63 65 68 72 74 75 77 78 77 76 78 78 79 80 81 82 83 85 84 83 84 82 82 82 82 82
58 61 61 60 62 65 70 67 66 63 54 52 56 62 66 66 66 61 54 52 55 57 58 58 58 62 65 67 70 71 73 74 75 74 73 74 76 78 80 81 82 82 81 81 80 79 80 80 79
63 64 64 63 62 67 71 68 64 56 50 53 54 60 64 65 66 61 53 56 53 51 53 54 56 59 60 61 62 62 63 66 69 70 69 67 66 67 67 68 70 72 71 69 69 69 71 69 69
63 66 63 65 64 68 72 67 59 57 53 53 58 62 68 67 67 63 57 53 53 51 49 51 53 54 55 56 56 53 52 57 62 64 64 62 61 59 59 57 58 60 60 59 58 57 59 60 60
70 67 65 58 57 65 70 72 60 55 54 57 60 66 72 73 66 59 51 52 52 49 49 49 47 44 46 48 46 38 41 42 39 38 42 45 45 48 47 48 50 51 52 51 48 45 44 48 49
73 70 64 60 58 65 72 78 64 58 59 63 65 74 69 67 62 52 50 51 49 47 46 44 44 38 38 40 34 26 16 9 8 27 27 24 37 36 27 25 23 23 35 37 39 37 36 42 42
71 68 62 59 63 68 80 81 76 66 64 69 68 67 56 60 57 52 48 44 46 44 42 41 40 34 31 31 25 30 23 12 24 44 29 20 23 22 21 22 24 17 19 21 19 12 21 32 36
73 69 64 65 67 71 83 89 79 76 78 78 76 60 55 52 55 52 47 42 42 40 35 38 38 34 28 31 31 40 36 31 30 48 44 35 36 26 24 27 20 22 26 24 17 21 25 22 26
72 67 66 67 73 71 82 90 91 94 88 76 56 55 54 52 50 51 41 42 41 36 35 37 36 32 29 33 33 44 47 44 43 41 40 47 35 29 28 30 25 31 29 28 20 24 28 24 25
71 71 70 75 78 81 89 102 95 75 49 42 46 45 57 49 48 47 42 42 38 33 35 35 36 36 34 35 32 43 55 53 50 56 51 52 50 32 35 37 38 35 34 27 24 24 28 27 22
73 71 73 77 84 87 83 89 78 57 38 41 40 45 52 47 45 40 38 38 35 33 34 35 38 37 33 33 32 37 63 62 58 59 60 55 47 36 44 43 45 44 37 33 28 27 23 16 21
75 71 77 79 82 85 80 80 63 54 41 39 36 47 48 48 43 40 37 34 34 34 34 36 38 36 33 33 29 32 63 68 58 59 53 54 48 47 43 45 45 42 28 24 18 30 30 29 28
69 73 80 79 79 84 75 66 58 48 41 39 42 44 47 46 42 40 33 34 36 32 32 34 36 37 32 32 30 34 53 68 57 54 54 55 53 51 48 39 43 31 25 10 19 28 33 31 32
73 74 80 81 75 78 69 55 54 44 46 45 43 44 45 46 42 38 33 35 34 33 34 36 38 37 31 27 28 29 35 56 60 56 61 56 56 60 55 44 46 34 32 30 21 26 30 32 31
76 79 78 80 73 74 61 47 43 50 48 47 46 46 46 46 42 36 35 33 32 34 35 35 36 34 30 26 27 29 25 45 54 61 65 57 59 51 42 54 51 46 46 41 29 32 27 25 29
81 82 79 72 71 69 52 42 47 52 48 46 47 46 48 45 38 36 34 31 31 31 34 34 33 32 26 23 24 29 23 31 37 67 65 60 53 61 49 47 44 44 40 37 25 20 22 28 34
84 82 78 70 69 58 42 42 48 49 43 47 45 45 46 42 37 33 31 30 26 30 33 32 30 31 24 23 22 30 26 28 26 51 55 56 55 54 58 53 44 46 42 40 36 35 32 37 32
85 83 72 81 61 44 32 41 46 43 43 46 46 46 43 38 34 31 30 27 25 27 28 28 26 27 23 20 19 29 31 28 31 34 58 49 49 48 51 52 55 46 39 38 26 31 33 37 38
81 78 83 58 53 32 32 40 39 39 39 42 44 43 39 37 29 28 31 28 23 23 23 17 19 21 24 15 14 26 29 36 36 32 44 48 48 52 53 57 49 44 43 46 49 47 39 39 41
78 81 72 48 40 28 31 37 39 40 48 44 46 42 38 33 29 28 27 27 22 18 14 13 16 15 19 16 14 22 27 38 41 40 36 44 44 50 51 48 51 53 52 47 43 41 37 32 40
76 72 55 45 30 27 33 45 44 44 47 47 41 38 34 32 27 27 28 24 22 15 13 12 14 11 14 16 10 17 24 32 41 43 41 44 49 50 52 54 55 54 54 54 54 51 42 45 39
67 69 48 40 28 26 33 46 40 48 47 44 39 33 30 29 24 27 29 25 24 18 16 12 11 13 11 12 11 10 21 22 32 40 44 48 50 52 52 51 47 51 54 53 50 52 52 52 43
64 54 36 35 29 26 39 49 45 47 44 43 39 38 42 37 26 26 30 27 26 21 16 11 7 8 11 9 11 4 17 25 25 23 26 39 46 58 58 54 54 50 51 49 45 50 44 43 45
47 43 35 35 33 30 39 50 47 51 52 51 48 46 46 39 33 28 30 29 29 23 18 13 10 6 7 10 9 9 3 19 24 26 24 25 31 34 35 42 46 40 43 44 45 46 40 38 40
39 39 36 35 31 33 44 45 53 59 61 55 49 42 45 45 41 35 33 31 32 26 19 15 12 11 6 6 8 9 9 5 14 25 25 22 25 29 32 30 31 33 34 36 36 35 33 36 36
37 39 36 34 34 41 50 42 59 60 57 50 41 38 42 44 44 40 39 34 33 28 24 20 16 12 9 8 6 8 9 9 5 3 23 29 26 28 34 35 35 33 33 31 34 34 37 38 43
38 38 37 37 39 45 53 46 57 62 58 51 44 42 42 41 40 40 36 34 35 32 26 24 20 17 12 11 10 9 8 11 12 12 8 5 13 24 30 30 34 36 39 39 37 37 37 43 48
39 44 40 39 44 47 59 51 55 61 57 49 44 45 42 43 39 37 37 37 38 35 30 26 26 22 18 15 14 14 13 13 15 15 18 19 17 14 14 19 33 44 43 42 40 42 42 47 53
43 45 44 40 42 55 53 54 48 64 58 52 48 45 41 42 43 42 41 41 39 36 36 35 29 26 26 24 19 16 16 17 19 20 20 21 22 20 19 18 20 21 30 43 44 47 48 50 52
52 50 49 47 47 55 55 61 49 53 61 56 52 48 46 45 45 46 45 44 41 43 43 41 37 33 31 31 30 26 22 20 20 21 22 23 23 23 23 20 19 18 21 26 30 41 49 53 54

GFSSGP_250_spd_072.txt.gz
Wind_Speed
58 59 61 62 59 58 64 66 63 63 63 66 67 67 67 67 70 67 65 64 61 59 56 54 54 58 61 65 66 69 71 72 73 73 75 76 77 76 77 80 80 80 80 81 81 83 83 83 84
60 59 60 58 55 59 69 67 64 64 64 61 62 64 67 68 70 72 71 63 62 61 57 53 52 52 55 60 62 62 62 63 63 62 68 70 72 73 73 72 76 76 76 78 80 81 82 83 84
62 61 59 57 55 63 66 68 69 70 70 69 67 67 64 64 66 67 70 68 61 60 59 56 53 49 51 52 54 54 55 52 52 59 60 59 62 64 64 65 64 65 65 68 70 72 73 76 76
62 60 58 58 58 65 71 73 68 68 67 65 62 61 61 60 58 62 66 68 64 61 56 53 49 51 50 46 47 47 44 42 49 48 44 47 49 54 55 56 58 57 56 58 57 62 65 65 67
60 61 62 58 68 72 75 72 68 68 66 61 57 53 55 56 59 61 65 70 64 60 55 51 51 49 45 42 39 37 36 39 35 31 27 24 21 23 32 38 45 49 52 53 58 58 57 58 58
66 65 65 67 71 74 74 76 73 70 62 60 56 57 59 57 62 65 76 77 66 55 53 54 49 43 39 36 34 25 26 28 23 19 11 20 19 23 25 29 36 35 34 39 43 48 50 51 47
76 77 73 68 69 72 79 79 74 69 62 61 62 60 62 64 68 74 82 80 65 54 51 49 44 42 35 34 24 21 26 26 26 18 20 28 21 26 19 14 16 23 25 21 29 36 30 23 23
78 80 72 64 66 70 74 77 76 69 69 68 71 67 70 76 78 80 84 72 66 53 48 43 41 39 35 30 25 26 31 42 35 34 35 37 36 31 22 23 21 21 21 12 13 20 14 11 12
73 69 62 64 69 70 73 76 78 74 74 74 77 83 85 70 63 67 64 61 58 52 44 39 37 37 36 32 27 30 32 49 43 41 34 30 36 33 30 34 26 21 25 23 23 21 17 13 17
66 67 62 67 69 70 71 76 81 79 80 84 75 67 61 59 56 58 56 52 53 47 38 39 36 33 36 33 31 30 34 46 52 47 44 47 44 38 36 42 30 24 25 31 26 26 19 14 15
65 63 67 67 71 70 70 76 81 80 76 81 66 58 48 52 55 53 51 44 47 40 38 38 34 31 36 36 32 33 29 38 59 54 52 51 48 51 50 47 45 26 26 30 31 26 22 21 17
62 61 63 65 69 75 72 74 79 77 74 80 68 44 43 49 54 50 45 44 45 37 37 36 31 30 33 37 33 32 31 35 51 61 56 58 55 51 52 49 43 38 32 32 35 36 28 22 24
60 60 62 67 69 71 68 71 75 77 75 77 60 44 42 50 48 46 44 42 40 36 37 33 28 32 34 37 32 32 30 31 44 69 60 62 60 54 53 49 40 35 36 37 30 14 18 23 23
62 62 63 63 63 66 68 73 71 80 86 71 50 45 48 48 45 42 44 38 37 37 33 30 30 33 37 38 35 32 31 31 41 61 67 64 62 54 47 50 42 36 32 27 25 19 23 16 20
64 60 58 62 65 69 79 71 81 78 82 58 49 48 53 49 43 45 42 37 37 36 29 29 31 34 37 38 35 27 31 28 41 53 68 67 60 58 51 53 42 42 37 34 35 33 25 26 32
62 59 59 66 68 74 80 70 78 79 65 51 46 49 54 51 45 43 40 35 37 33 27 28 27 32 38 35 31 24 29 26 35 42 50 57 59 58 53 53 52 45 42 41 40 41 34 31 22
69 61 63 67 72 78 75 67 85 62 50 45 43 45 52 50 44 41 37 35 35 30 25 22 26 31 33 35 28 26 25 22 25 32 38 50 48 51 54 51 51 43 47 46 41 36 33 27 27
66 63 65 70 76 80 72 66 68 50 40 38 35 44 50 49 44 39 36 34 31 26 20 20 23 25 30 30 23 24 19 21 23 23 25 29 39 47 58 50 52 52 37 38 41 38 37 33 29
64 63 67 70 77 79 68 58 53 42 30 31 36 45 49 47 44 39 36 32 26 23 18 17 16 18 22 22 19 16 16 23 26 24 21 27 32 40 52 46 54 53 48 46 45 44 35 32 35
63 66 68 72 76 76 71 60 46 33 28 28 41 46 47 46 40 39 34 28 23 22 18 16 14 12 14 17 15 14 17 25 32 27 30 24 33 36 43 44 43 51 53 50 45 44 42 39 39
68 68 67 71 77 74 63 41 38 29 25 38 46 47 46 42 40 37 31 26 24 21 19 16 13 9 11 11 14 10 17 26 37 32 27 27 27 32 39 43 44 45 50 48 49 48 47 51 47
66 69 67 67 72 69 47 29 37 25 34 44 46 48 47 42 40 34 31 27 24 22 22 16 14 12 8 7 11 10 10 21 35 40 33 36 32 33 36 40 42 44 46 49 49 53 49 46 51
65 66 67 70 72 58 38 32 40 27 42 46 51 52 50 46 39 34 33 29 25 23 24 18 14 10 4 5 7 10 4 13 25 37 35 33 35 36 42 46 45 47 50 48 46 43 42 42 43
70 70 68 68 63 47 33 33 38 31 49 53 51 52 53 48 41 36 31 28 29 27 25 20 16 13 6 1 4 5 8 9 19 23 28 28 26 28 41 44 43 48 48 48 47 47 48 44 48
73 69 65 63 55 36 34 34 46 37 51 53 54 55 52 46 39 37 36 35 33 31 30 23 20 15 10 5 0 4 4 4 7 20 25 27 26 23 28 32 36 37 39 43 40 39 43 44 47
75 65 58 56 46 35 37 35 47 38 50 51 54 56 48 44 40 40 40 38 38 33 34 26 22 17 13 11 7 5 0 5 3 3 12 25 27 26 23 25 28 30 31 33 35 35 36 34 32
69 60 57 44 38 35 42 40 51 49 53 55 54 54 46 44 45 43 39 39 36 32 33 32 26 25 21 16 14 11 9 5 1 2 3 2 7 21 30 28 25 34 36 36 35 33 33 30 31
64 53 46 40 39 35 45 44 48 52 54 54 53 55 49 46 44 41 39 36 36 32 32 34 30 29 26 21 16 14 11 10 8 7 6 5 6 5 7 15 25 35 35 38 39 40 38 37 36
59 47 41 42 39 37 49 41 51 55 49 58 60 60 52 48 45 42 39 37 38 40 40 39 35 33 27 26 24 19 16 14 14 13 13 13 11 9 10 9 9 9 14 21 22 26 35 43 42
58 46 42 44 42 39 52 43 53 54 52 56 58 61 53 49 46 43 42 43 42 41 42 42 39 37 35 33 28 28 27 22 20 20 18 18 17 16 16 15 16 16 15 15 15 15 19 24 25

GFSSGP_250_spd_075.txt.gz
Wind_Speed
61 63 62 65 66 63 62 63 60 59 60 65 63 63 64 65 67 66 65 68 67 67 66 66 64 61 56 55 55 57 57 62 64 66 68 69 73 74 76 79 78 79 79 79 80 80 80 80 80
63 63 65 65 60 60 65 67 66 64 62 63 63 61 61 64 68 68 68 67 67 67 64 63 63 64 61 56 53 52 52 51 54 58 62 66 67 68 71 74 78 77 76 75 74 75 77 79 79
65 63 63 60 60 63 67 68 66 64 64 62 59 59 67 71 70 67 64 64 65 66 63 60 60 61 60 58 51 51 52 45 46 50 55 54 55 60 62 65 69 72 70 70 68 67 70 71 72
63 64 62 63 61 65 71 68 65 65 63 61 65 68 71 70 67 66 62 60 62 61 61 57 55 53 53 54 50 47 43 40 40 43 42 38 39 43 50 54 63 64 60 58 59 58 58 60 62
64 63 68 65 60 58 68 69 72 74 72 71 70 72 75 72 65 61 59 60 62 61 60 58 53 50 49 50 48 43 36 32 35 37 30 28 35 35 36 38 37 43 47 49 52 55 54 56 58
74 67 67 65 65 64 71 76 73 71 71 73 74 74 67 63 59 57 57 60 65 66 63 61 58 53 52 49 44 38 28 23 28 27 27 22 15 17 16 23 20 25 37 41 47 51 54 54 54
81 78 70 64 65 66 81 84 80 79 78 74 72 63 59 60 60 60 64 69 74 74 68 67 63 56 54 49 39 32 25 22 22 19 22 26 23 18 19 21 20 17 23 28 36 40 42 43 41
80 76 63 64 66 71 85 83 78 76 73 62 63 58 61 64 65 71 76 81 85 82 78 74 62 56 49 45 35 33 30 28 33 37 37 37 34 33 30 24 25 15 14 20 17 20 22 21 20
77 76 62 66 67 74 79 76 74 71 65 59 62 63 64 67 73 79 74 75 76 66 65 60 53 50 41 40 37 38 34 37 42 47 48 42 38 38 37 34 30 32 27 24 12 11 14 16 15
63 63 59 66 70 73 73 71 70 64 65 65 62 69 70 73 68 72 70 67 66 59 61 56 47 36 35 37 38 38 37 37 38 57 56 48 47 44 35 33 32 31 28 27 21 23 16 15 13
59 54 58 62 69 67 64 68 69 66 67 70 69 72 70 63 66 66 61 63 59 53 55 48 37 31 33 35 37 35 34 41 44 45 55 51 55 54 46 36 32 33 30 31 29 26 24 19 17
58 57 61 64 68 67 65 66 64 67 70 70 65 68 64 67 68 64 58 51 50 48 49 42 30 31 32 35 34 33 31 35 36 44 48 56 51 54 47 48 38 36 42 41 34 33 28 28 17
61 54 56 57 57 58 60 60 63 66 67 68 63 66 67 67 60 57 54 46 45 47 45 37 30 31 34 34 32 32 28 28 33 39 44 52 55 57 54 49 47 46 44 42 34 31 31 27 22
62 60 56 60 61 59 57 55 57 61 68 67 68 67 66 65 60 50 47 41 43 48 41 36 31 32 33 33 31 31 28 26 29 36 36 53 53 62 64 54 51 51 50 47 38 37 27 27 26
62 61 62 65 66 59 59 53 59 64 67 66 70 67 68 57 52 46 39 40 46 45 39 36 31 31 32 31 30 31 26 27 30 33 33 46 54 61 65 61 55 51 52 51 45 43 30 30 27
64 65 63 65 63 59 56 52 61 61 64 69 74 75 63 51 44 39 37 43 46 40 38 36 29 30 28 28 29 31 28 30 29 31 32 42 45 62 64 62 55 52 48 41 32 32 32 34 34
63 68 64 65 66 62 62 59 63 63 64 69 76 75 58 45 38 35 41 46 44 39 40 32 27 25 24 25 29 31 29 28 30 31 31 38 40 52 64 64 61 46 51 49 45 36 36 36 33
61 61 65 66 68 67 63 62 59 63 70 72 72 63 48 37 32 34 42 46 42 40 38 29 24 22 22 24 27 27 23 27 28 28 26 29 37 43 48 66 59 48 50 47 46 44 41 37 34
62 69 69 65 68 64 66 61 54 62 67 71 64 46 37 32 27 29 43 45 42 42 33 24 21 18 17 20 24 21 21 20 23 26 24 31 35 43 38 44 59 56 51 52 52 47 40 38 35
58 64 68 68 68 65 61 51 54 61 70 67 46 36 29 29 24 40 47 43 44 39 29 23 18 15 14 17 17 16 20 17 25 25 27 26 23 33 31 37 46 47 51 53 49 49 44 41 38
65 65 69 65 67 63 57 53 56 63 64 55 33 29 30 28 39 47 44 45 42 36 27 23 19 18 13 12 14 14 17 17 27 30 26 23 26 29 33 35 41 44 47 47 49 49 46 47 49
67 61 58 59 58 59 57 48 54 62 61 44 33 32 32 36 44 45 43 44 42 34 28 24 20 17 15 11 12 9 10 14 30 34 33 35 27 30 33 37 37 38 40 42 43 44 48 49 50
61 65 62 56 56 54 56 51 52 60 62 37 37 35 38 42 45 44 46 46 37 31 28 24 20 17 13 9 7 5 6 11 31 34 35 31 26 29 36 37 36 39 42 41 41 44 50 49 49
59 57 56 58 57 58 57 59 55 60 54 31 38 38 40 43 43 44 45 41 36 33 28 28 22 17 15 10 5 2 5 10 21 28 34 32 30 27 27 26 35 41 42 43 43 46 47 48 44
61 61 64 65 65 60 57 54 51 51 44 36 42 43 43 41 43 46 46 43 40 36 32 30 26 20 19 16 10 5 4 4 20 24 32 33 31 33 36 36 38 39 41 43 46 48 49 49 49
64 65 68 72 68 64 61 55 49 45 38 41 45 48 47 43 46 48 48 44 42 37 33 32 30 25 22 21 16 10 5 8 8 23 26 28 30 34 32 33 34 44 55 55 53 53 56 55 52
70 72 74 74 73 65 57 48 42 42 37 45 49 53 50 46 50 50 48 46 42 38 35 35 36 31 25 23 22 17 11 8 7 9 15 26 30 31 29 26 24 26 28 31 36 38 37 36 37
72 72 73 72 69 61 44 41 33 45 42 48 54 53 52 49 51 51 50 46 42 40 37 36 39 34 29 27 24 22 18 14 12 10 8 9 11 15 25 32 31 33 34 34 33 37 37 37 39
71 72 72 68 58 44 33 37 38 45 49 49 58 53 53 52 51 49 49 46 41 40 40 40 42 37 33 32 28 23 21 20 18 15 14 13 12 13 16 16 19 24 27 28 33 37 41 45 48
75 75 69 63 54 36 33 38 48 47 47 53 57 56 53 55 53 51 51 49 44 42 41 41 39 38 38 36 31 28 27 24 22 22 22 19 17 17 16 16 18 22 22 21 21 25 30 31 28

GFSSGP_250_spd_078.txt.gz
Wind_Speed
61 63 64 64 63 61 62 67 68 65 64 64 64 64 63 64 65 64 61 60 56 58 62 65 67 66 63 62 62 60 58 57 55 57 59 64 68 71 72 73 74 76 78 79 80 80 81 81 80
63 66 66 65 62 62 65 70 69 66 65 66 67 65 66 66 66 63 58 55 60 64 65 64 64 64 64 63 61 59 56 55 53 54 56 54 59 63 66 67 69 71 73 75 77 80 81 80 79
67 68 68 65 65 64 69 74 71 70 68 67 68 65 63 65 64 62 60 66 67 70 67 63 62 61 60 59 59 57 56 52 48 48 50 54 50 52 57 62 65 67 68 70 70 71 73 78 78
72 71 70 67 67 67 69 73 72 69 68 71 67 65 66 70 69 70 71 73 73 70 65 62 59 59 57 55 53 50 48 46 41 43 45 46 43 42 44 50 56 60 63 65 63 60 60 64 68
75 75 74 71 69 67 71 75 71 69 72 72 68 68 68 68 68 72 74 76 74 68 60 60 57 56 58 55 51 48 44 42 34 40 36 33 35 33 31 29 32 41 48 54 50 56 56 55 58
74 78 74 72 73 72 76 76 71 74 74 71 68 65 66 72 75 77 76 74 65 63 61 60 56 55 56 53 52 44 44 37 31 31 24 16 10 15 20 24 33 31 32 32 38 43 50 52 54
67 72 73 78 76 78 82 86 80 76 72 71 67 68 72 77 77 79 76 67 62 63 64 61 61 64 61 60 52 48 44 35 30 24 23 21 30 30 29 26 24 23 25 27 36 42 47 49 47
78 68 75 71 71 80 86 91 85 83 79 79 72 71 73 75 78 73 62 61 68 67 67 72 71 66 63 59 55 52 45 37 36 35 36 39 36 33 23 32 37 23 18 29 26 29 32 33 33
75 72 68 67 67 75 82 87 85 79 72 68 68 66 64 67 65 62 61 65 71 73 77 66 62 58 57 54 51 47 43 36 41 40 47 50 45 38 41 49 43 38 19 14 25 17 18 22 25
76 72 70 69 65 59 68 77 77 70 66 64 62 59 61 60 59 63 66 70 74 71 69 61 62 56 50 48 45 40 38 38 41 44 54 56 54 49 52 52 45 42 34 25 25 18 16 17 19
77 73 72 67 62 60 57 61 65 62 62 64 64 58 54 61 64 67 69 73 67 68 65 57 57 48 43 41 38 38 39 38 43 46 57 63 60 54 51 46 48 50 41 37 28 21 24 20 22
73 75 73 69 65 64 60 62 57 60 60 64 65 65 62 63 65 66 67 68 70 67 60 52 49 42 36 33 35 39 39 37 40 49 51 67 65 60 51 51 51 47 39 34 35 28 31 29 25
71 74 73 69 64 63 60 58 63 52 55 59 56 58 59 62 62 66 69 72 68 68 51 48 41 35 29 32 35 37 36 34 39 46 50 52 68 67 59 57 57 53 53 42 32 35 34 33 30
73 73 72 68 66 65 58 56 52 53 59 58 59 56 55 55 61 66 71 68 71 58 46 43 37 28 28 33 35 34 33 34 39 37 50 53 57 65 60 57 61 59 59 51 42 40 39 38 34
75 74 73 69 67 62 62 59 55 62 62 57 59 58 58 57 61 68 63 67 66 49 42 36 32 27 30 33 34 32 35 35 35 34 37 50 57 53 53 54 57 57 58 52 44 42 42 39 35
75 73 77 70 65 61 61 60 60 63 60 58 61 57 59 64 66 68 65 67 56 40 40 32 32 29 30 33 32 32 34 33 34 34 34 38 45 50 49 56 61 60 57 57 56 50 43 45 38
73 78 75 73 67 60 61 61 64 65 62 59 59 62 65 68 70 64 64 59 41 39 36 32 34 33 32 34 31 30 31 32 32 33 33 34 38 44 44 60 64 64 63 54 52 51 49 46 49
72 75 78 68 60 54 56 61 62 67 65 64 64 66 67 68 70 63 59 44 36 42 34 35 36 32 33 32 27 27 27 28 30 33 32 34 34 35 37 57 56 65 65 54 51 48 45 43 42
71 75 69 69 61 49 50 58 61 67 65 65 67 70 64 71 66 57 46 38 42 40 35 35 37 32 35 27 23 23 24 26 27 30 28 32 33 33 35 38 52 58 62 63 55 47 43 42 39
66 67 72 65 67 55 58 61 61 62 61 63 62 66 67 65 56 47 37 40 44 36 36 39 35 35 31 22 21 20 21 23 25 25 26 31 32 37 42 40 50 57 55 54 50 48 49 48 47
59 66 64 64 71 61 60 62 62 63 63 62 66 64 61 56 49 38 38 40 39 36 39 38 36 33 27 21 15 15 18 22 24 22 27 29 29 31 45 46 46 50 56 52 48 48 51 49 45
59 60 71 69 68 73 61 59 62 60 63 65 64 60 52 47 39 35 38 41 39 40 40 38 35 33 25 19 14 15 16 20 20 26 29 30 31 29 36 42 38 40 45 47 50 51 51 51 49
57 64 64 65 64 61 63 62 57 59 63 61 56 51 52 43 34 35 40 38 40 41 41 40 36 29 24 20 14 15 14 16 19 31 30 31 29 29 33 39 41 39 44 47 49 44 42 44 51
58 62 67 64 68 65 67 61 55 54 56 53 57 50 43 35 35 35 33 40 44 43 42 40 35 28 26 19 15 13 12 13 20 33 32 33 31 29 37 38 38 38 42 44 48 48 50 52 51
54 59 55 55 60 65 61 60 54 48 54 57 54 48 37 33 34 32 38 46 46 48 45 41 34 30 28 21 17 12 13 11 19 33 36 40 34 32 32 36 45 44 45 50 50 51 54 56 54
59 58 58 58 59 57 52 53 55 54 56 55 51 48 35 36 37 36 45 47 49 48 44 40 35 30 32 25 20 15 12 12 17 29 40 42 39 39 32 37 44 47 51 53 54 52 51 54 53
66 64 59 56 52 52 54 56 57 59 58 59 51 42 36 40 41 42 48 48 52 51 47 40 35 33 33 30 25 21 16 12 12 17 31 45 44 41 34 33 36 36 38 40 44 48 50 54 55
63 61 62 61 60 59 59 62 60 58 58 58 51 38 40 44 45 45 49 50 53 52 47 42 36 36 37 34 30 26 21 17 14 14 15 35 42 44 47 47 49 48 48 46 49 54 57 55 54
68 67 64 63 66 66 65 64 63 62 57 55 45 37 43 47 48 44 50 51 51 53 49 44 39 39 39 37 32 31 27 24 22 20 20 18 19 25 32 39 43 42 42 41 38 37 39 41 43
71 71 70 69 66 66 68 65 58 56 49 48 41 40 48 51 53 45 49 51 53 52 50 44 42 40 40 40 35 31 31 29 28 26 26 24 22 23 23 22 22 23 25 28 32 37 42 45 46

GFSSGP_250_spd_081.txt.gz
Wind_Speed
54 56 58 60 60 60 60 63 67 67 65 60 64 63 63 65 63 66 63 62 59 57 57 56 55 54 60 62 61 60 60 62 62 58 60 63 61 62 63 64 68 70 71 73 76 78 79 79 78
59 60 61 63 61 62 63 67 71 70 68 64 67 66 65 66 66 67 64 62 57 56 57 59 60 64 66 64 62 60 59 58 57 57 54 52 56 59 53 54 58 61 64 66 71 74 76 78 79
61 64 64 63 61 63 66 71 71 73 71 68 68 68 67 68 69 70 67 64 59 59 63 62 63 65 67 69 65 60 58 57 54 52 50 48 47 45 46 47 53 52 51 57 62 67 71 72 73
62 66 67 66 66 69 71 74 79 71 71 71 71 69 70 71 71 70 69 66 67 64 64 69 69 69 70 68 63 59 57 54 51 47 44 40 37 34 36 39 40 39 43 45 48 55 57 59 60
56 58 62 66 74 76 78 73 79 79 76 74 73 73 68 69 71 72 72 71 69 66 68 71 75 75 70 65 59 57 54 53 51 43 35 30 22 20 22 22 23 29 33 37 37 40 48 50 52
61 65 56 63 63 72 79 79 79 81 80 77 73 73 65 69 72 73 72 72 72 70 74 77 77 78 69 63 62 59 59 55 49 37 27 13 6 8 12 14 21 26 32 36 36 40 36 40 47
67 68 64 59 61 64 71 68 76 80 83 79 78 74 78 76 69 71 73 73 75 77 77 76 77 74 65 60 60 63 62 56 49 34 28 28 26 28 24 29 29 23 30 36 35 39 33 34 40
68 70 70 64 67 65 72 69 76 72 69 77 83 78 82 80 74 76 79 81 77 78 77 76 72 64 62 64 65 61 64 56 55 39 34 39 37 37 39 37 37 40 43 39 27 31 27 27 36
69 70 66 68 70 73 70 69 70 64 65 72 75 76 75 72 73 79 77 76 76 73 74 69 65 64 61 67 65 57 56 51 49 44 42 46 48 44 43 43 41 42 44 44 43 27 27 24 27
74 74 71 73 74 77 74 73 69 63 61 61 66 66 64 62 70 69 69 76 70 68 65 64 63 64 62 65 65 56 49 48 48 46 46 53 53 47 44 47 50 50 50 46 46 38 24 20 22
74 74 79 79 80 79 75 73 72 65 57 57 59 59 63 57 60 63 66 68 62 64 67 66 65 62 62 66 59 53 44 41 41 43 46 56 55 53 51 54 49 53 50 48 44 37 38 25 21
80 72 78 81 84 79 79 73 71 67 59 61 56 55 54 55 59 63 67 69 66 65 66 67 63 61 64 63 55 44 36 35 38 43 47 58 58 64 57 58 59 53 50 47 45 45 41 26 25
83 82 79 82 82 80 76 73 66 67 59 60 59 58 52 55 60 55 57 59 62 65 68 62 60 58 63 58 46 36 29 35 42 46 50 56 59 65 67 58 64 59 51 51 45 44 39 32 28
91 84 82 86 87 84 77 73 65 65 63 61 56 54 56 51 52 56 60 63 65 70 69 66 59 59 62 46 39 30 31 38 43 47 49 52 53 59 70 73 53 61 59 50 48 46 39 34 38
88 85 81 79 81 81 79 68 60 64 66 59 56 57 55 57 58 56 59 66 70 70 68 65 63 61 48 38 33 30 34 39 44 46 46 48 46 53 64 76 68 56 57 56 53 52 54 47 40
75 72 70 71 74 73 73 64 65 66 64 60 57 59 57 55 53 59 65 69 66 68 70 63 60 57 38 36 29 34 36 41 42 42 44 47 43 46 48 68 74 64 55 57 57 57 58 46 42
68 64 63 69 65 66 67 64 67 64 62 55 52 58 56 56 60 58 64 67 70 72 72 68 62 47 36 34 31 33 37 39 41 39 40 42 43 47 55 60 71 70 57 59 55 57 57 54 50
66 59 61 61 61 65 63 60 61 66 56 54 56 60 63 60 64 68 68 70 72 70 69 66 56 39 38 30 32 32 36 38 39 37 39 42 42 45 48 54 64 62 58 56 57 58 54 55 47
60 57 57 59 61 59 56 49 53 64 57 49 55 56 62 67 70 71 72 72 71 70 67 61 43 36 36 31 32 33 37 37 36 36 36 39 39 40 42 48 50 59 58 59 59 55 57 58 55
55 55 55 57 59 50 54 60 62 65 52 50 60 63 67 70 69 69 73 74 74 64 62 46 38 38 30 31 32 33 36 35 34 34 35 36 37 39 40 43 45 56 59 67 62 60 57 52 50
53 51 51 47 49 47 54 57 63 59 49 49 60 62 61 61 63 69 76 74 66 61 49 38 38 36 30 32 31 32 35 31 32 30 31 32 32 35 41 38 39 50 59 57 61 65 60 55 46
52 50 47 48 52 50 51 55 63 65 53 63 63 63 62 63 65 71 71 64 59 52 37 36 39 30 31 32 32 34 29 31 25 28 28 26 28 34 35 42 36 40 51 52 52 55 59 56 52
54 49 51 55 49 47 50 60 60 64 68 64 64 63 58 61 69 70 62 56 50 37 33 41 34 32 33 34 34 33 27 24 23 21 23 23 27 30 36 44 45 42 40 50 56 51 46 48 52
54 54 54 49 47 47 52 61 60 68 68 70 63 56 57 59 67 64 56 47 36 31 40 38 35 35 35 34 36 30 26 22 20 19 22 26 31 32 34 37 46 46 43 46 49 49 49 49 50
54 59 57 51 47 52 55 60 61 62 62 61 62 58 57 62 62 55 54 36 33 37 42 38 37 37 36 34 34 27 25 20 15 18 23 28 32 33 33 30 29 40 42 39 49 50 51 48 50
53 57 59 56 53 53 56 58 61 60 60 61 57 55 62 62 57 52 41 33 35 44 44 42 41 39 38 33 29 28 24 19 16 14 24 32 33 31 28 31 35 32 37 35 40 47 49 55 53
57 56 55 54 56 56 55 58 63 64 65 66 63 58 60 56 56 48 31 34 45 47 46 44 44 41 39 34 29 30 26 20 16 11 24 34 36 32 27 28 31 35 39 39 43 45 48 54 58
61 59 58 55 53 54 56 55 58 59 57 54 54 55 58 54 52 40 33 40 49 50 49 46 47 43 41 36 33 32 29 21 16 15 20 40 38 37 34 35 33 36 44 48 50 54 56 58 57
59 63 63 62 59 58 56 55 54 54 50 51 54 57 57 53 49 38 37 43 48 54 53 51 49 44 41 39 36 34 31 25 20 18 18 31 44 45 41 39 37 37 44 49 54 54 53 55 56
63 63 66 66 62 61 59 56 58 57 57 58 57 60 59 53 48 37 42 48 55 56 56 55 51 46 41 39 39 36 34 31 27 24 21 21 30 48 45 47 43 48 48 44 49 53 56 57 59

GFSSGP_250_spd_084.txt.gz
Wind_Speed
44 46 50 51 49 47 47 52 57 60 63 58 57 59 66 64 67 62 59 60 58 58 57 58 56 56 54 52 53 54 56 57 57 58 59 59 61 63 63 62 64 66 69 71 69 67 68 67 68
43 47 50 51 48 47 50 59 61 63 62 55 59 64 67 66 70 62 62 61 61 61 60 60 58 57 56 56 57 56 59 58 60 58 56 55 54 51 50 50 50 51 53 55 56 54 54 57 61
40 43 47 47 47 46 53 60 64 69 58 59 63 67 68 69 73 62 66 66 63 63 63 63 61 61 60 59 58 62 61 64 63 57 54 51 49 44 42 38 38 39 40 42 44 48 49 52 52
47 48 44 41 38 41 46 54 60 66 67 59 69 72 67 76 74 69 65 70 66 65 64 64 65 63 63 63 64 66 68 69 67 61 53 51 44 35 28 27 23 27 27 28 29 33 39 43 44
52 52 49 46 45 49 56 58 52 62 62 61 64 73 71 71 73 71 71 72 68 67 66 66 66 66 66 66 70 71 73 74 70 62 55 48 37 23 16 4 5 13 17 27 31 38 38 36 38
54 55 49 49 54 59 61 62 64 55 54 65 65 62 65 70 67 71 72 73 70 66 63 65 67 65 67 70 71 72 73 71 72 62 55 43 28 21 13 8 4 16 25 35 39 34 42 41 40
61 57 50 50 55 58 63 68 68 65 61 59 64 65 68 67 61 62 69 76 76 74 73 72 72 68 72 75 74 72 73 68 68 61 52 39 30 32 27 15 10 16 42 40 37 36 43 46 40
60 57 52 54 55 55 69 70 71 69 63 75 68 63 68 66 65 63 64 74 75 76 74 75 75 75 76 73 72 69 66 64 65 64 55 45 38 41 37 31 28 32 37 42 50 40 35 42 31
64 61 62 68 67 62 68 73 73 71 71 74 71 63 64 58 53 58 63 66 68 69 70 73 74 72 72 68 66 62 61 64 63 59 48 48 44 50 48 44 43 49 47 44 48 47 52 48 39
68 69 69 71 78 78 78 77 76 75 73 74 75 69 60 57 50 58 60 60 63 64 66 64 64 65 66 62 58 58 62 65 63 56 45 45 47 55 55 50 49 46 47 52 44 48 45 43 39
75 74 77 77 82 82 81 79 77 74 76 77 73 69 62 54 52 53 54 61 64 60 58 62 63 65 62 62 57 59 64 64 60 51 42 42 49 59 58 53 54 53 46 49 50 48 45 43 44
80 81 81 85 86 88 87 81 75 75 71 77 72 67 61 51 53 52 53 58 60 62 60 62 63 64 62 57 57 61 57 59 55 47 40 42 52 59 61 53 57 55 55 50 47 52 51 42 42
97 86 86 82 78 84 87 83 83 77 80 77 73 68 62 56 56 51 57 61 59 61 64 63 56 56 61 59 66 64 59 57 50 40 39 44 49 57 63 60 57 57 59 61 54 49 49 48 38
92 90 89 86 87 93 94 94 90 81 85 80 77 69 59 55 51 50 52 59 64 62 56 55 57 62 64 65 61 60 56 53 41 39 41 43 49 51 59 65 65 61 63 57 55 52 51 50 37
93 95 91 93 91 90 98 88 86 87 90 82 76 71 59 51 51 51 56 58 57 58 59 51 62 65 62 59 63 59 55 44 38 41 44 44 49 52 52 56 62 62 59 62 56 51 47 49 42
87 90 91 82 86 83 85 69 77 82 87 83 76 65 55 49 55 55 57 59 61 54 52 57 63 66 63 60 66 53 48 38 38 42 42 44 46 52 52 56 57 63 68 55 60 57 58 52 47
90 87 82 73 76 71 70 62 66 69 70 69 68 63 53 52 53 55 59 59 65 55 54 59 66 71 64 64 65 51 39 35 40 41 40 43 45 47 52 47 51 55 65 65 55 60 57 54 54
91 82 72 67 67 65 61 58 60 60 62 60 62 56 48 53 55 53 57 59 56 56 61 64 69 69 71 67 62 48 35 39 41 39 38 42 46 50 51 49 49 51 60 61 53 52 54 55 53
85 77 68 62 61 59 55 54 53 53 52 53 54 52 53 56 54 53 57 55 58 64 64 67 68 72 73 74 55 38 37 42 40 38 38 40 42 47 50 53 49 50 52 53 55 53 55 56 53
78 74 64 59 57 52 49 49 48 48 47 51 52 48 56 56 52 52 53 52 54 62 66 68 71 75 73 65 44 37 41 41 37 36 37 38 40 43 47 51 52 49 54 57 56 55 56 56 50
72 65 59 54 50 46 48 47 42 41 45 46 47 51 46 48 52 48 52 59 58 65 63 68 72 76 73 52 38 39 42 38 35 34 35 37 37 40 41 45 48 49 50 52 56 58 59 58 58
64 62 54 51 47 43 46 35 33 41 41 44 42 43 50 49 46 49 58 60 59 67 69 73 77 71 51 39 39 41 40 35 33 33 34 36 37 39 40 44 47 49 50 50 56 59 62 60 58
60 54 48 49 44 42 36 33 32 39 44 45 49 51 55 48 51 58 64 63 67 69 71 72 71 51 36 41 40 40 36 33 32 33 34 33 37 36 36 39 42 46 44 47 59 60 60 60 59
57 49 44 46 45 35 43 35 38 46 51 54 55 54 57 53 54 59 61 65 67 69 70 68 48 37 39 41 42 38 35 31 32 31 28 31 29 30 30 34 37 38 41 37 60 60 59 61 56
53 47 43 44 46 38 41 39 45 36 49 56 55 53 56 57 56 58 63 69 71 71 66 49 36 37 42 42 39 36 34 32 30 27 26 26 25 25 25 31 39 38 39 41 40 53 49 53 50
50 46 44 43 46 43 43 40 40 42 40 51 50 49 56 62 62 62 63 67 68 56 46 36 36 42 42 42 38 36 32 31 26 25 27 23 22 25 24 29 36 44 43 44 38 40 54 46 50
47 45 45 43 48 46 47 43 41 43 42 38 49 52 59 58 61 62 62 62 55 45 46 32 41 42 43 40 37 33 33 30 24 27 24 22 25 25 29 31 35 45 46 42 44 42 43 47 44
44 44 46 46 48 51 52 50 43 47 49 48 49 51 51 55 53 56 58 54 46 41 35 37 43 44 43 38 37 36 34 29 26 28 25 23 32 32 31 32 31 29 33 34 28 32 36 40 48
44 44 50 53 48 51 55 54 53 56 51 53 49 44 49 55 57 58 56 42 33 37 29 37 44 44 44 39 40 37 35 30 28 24 25 25 37 37 35 31 31 31 35 33 35 37 38 43 46
44 44 52 53 54 52 54 58 57 64 62 51 52 54 53 51 53 51 53 47 34 34 32 47 52 48 49 44 41 39 36 32 29 25 24 23 34 41 36 37 36 37 33 39 40 44 44 48 50

GFSSGP_250_spd_087.txt.gz
Wind_Speed
31 29 29 29 30 27 32 41 47 53 55 46 40 45 51 57 58 58 54 53 54 56 56 55 57 56 56 55 54 54 51 50 50 51 54 54 59 60 63 59 59 58 58 58 58 58 56 56 53
33 32 30 28 29 29 30 42 45 50 53 47 42 43 51 62 60 52 51 53 53 56 55 57 57 56 57 55 53 52 52 51 52 51 52 57 56 57 57 55 52 49 45 43 40 36 40 44 45
37 35 34 34 30 31 30 41 42 50 49 46 45 44 50 62 64 54 54 57 58 55 57 60 60 59 58 57 55 55 55 54 53 53 58 57 58 53 49 42 40 36 29 27 23 25 26 31 34
45 45 40 33 35 41 39 43 46 53 51 48 44 46 50 56 60 60 54 51 62 60 59 61 64 64 62 59 57 57 57 56 54 57 61 59 58 52 42 35 31 24 18 13 15 19 29 34 35
54 48 40 40 37 46 48 49 52 56 57 52 50 49 51 52 53 57 54 49 56 60 60 62 62 65 64 60 57 55 57 58 61 62 65 63 58 51 39 25 19 12 9 13 22 25 27 32 43
55 52 46 43 41 47 51 55 56 57 63 58 55 51 58 55 50 48 52 56 58 62 59 62 58 63 65 64 61 61 63 66 66 68 68 66 60 51 30 23 21 19 15 13 23 26 33 42 40
55 54 51 51 44 46 54 59 57 61 60 62 61 60 60 64 59 55 52 55 62 61 60 57 54 59 62 64 66 65 66 66 65 68 66 68 59 43 30 32 32 23 20 12 32 34 41 43 44
56 56 55 57 48 48 58 62 66 67 64 65 65 61 70 69 64 65 59 53 56 60 59 60 60 59 56 60 60 63 67 67 65 63 63 65 61 43 35 41 34 33 24 29 20 39 37 42 33
62 59 56 60 59 56 60 64 72 73 69 72 73 68 68 69 70 69 67 58 54 59 54 54 51 53 53 56 57 58 60 60 60 59 59 59 61 47 40 47 44 40 35 30 41 44 42 47 47
62 64 68 70 67 60 66 70 74 77 75 76 72 77 79 77 77 74 69 62 52 58 53 54 51 49 47 51 51 51 54 56 58 59 58 62 63 45 41 53 55 46 38 40 36 41 40 49 52
70 66 71 71 73 71 70 73 76 80 88 89 87 82 83 83 77 70 66 61 53 54 53 52 47 49 49 50 55 55 55 57 57 57 58 63 59 45 43 56 60 53 48 46 50 48 50 47 44
81 81 74 81 87 87 85 82 83 88 89 93 92 82 83 78 69 69 63 61 54 51 51 53 47 47 49 51 54 56 56 50 57 61 63 67 57 45 41 56 66 57 58 54 54 53 49 45 46
77 80 82 85 91 90 90 88 93 93 91 89 88 84 81 81 73 70 61 58 55 54 52 54 53 50 49 53 55 51 54 58 61 57 59 63 53 43 41 53 68 58 63 57 60 60 57 54 51
81 83 89 88 85 84 83 84 93 89 93 94 94 92 91 86 77 73 70 60 52 61 50 48 53 48 52 51 50 51 56 60 53 51 57 55 48 40 41 53 63 59 68 59 63 61 61 52 46
82 88 88 89 92 90 87 86 88 88 95 96 94 95 93 88 82 74 73 57 50 58 50 40 47 54 48 49 50 54 56 58 47 54 55 52 42 38 43 52 59 61 67 66 65 61 60 58 55
86 86 85 92 98 86 87 86 81 84 87 86 88 84 82 82 81 76 74 60 48 57 51 38 43 57 49 46 53 59 56 56 57 60 55 45 39 38 45 53 52 56 64 65 61 63 63 57 58
88 87 94 97 93 83 82 79 71 73 76 73 73 74 72 73 71 72 74 59 54 54 48 42 46 57 57 53 57 60 57 59 61 62 54 40 37 43 49 52 47 50 61 64 62 60 58 61 57
95 94 100 99 90 84 75 67 66 66 64 65 64 67 67 63 64 65 66 57 56 50 39 45 49 56 58 59 59 59 62 64 63 62 42 38 41 46 47 47 48 46 47 55 66 61 53 56 59
96 102 103 94 84 80 69 64 63 57 56 57 57 58 58 55 54 55 53 54 47 44 37 43 54 63 59 58 62 63 63 65 64 59 39 39 43 48 43 45 45 47 47 48 54 62 55 48 55
98 102 93 84 80 78 68 57 54 50 48 49 50 50 50 49 48 50 50 48 39 36 30 46 53 53 55 59 61 62 65 66 69 47 40 42 45 46 45 44 45 48 50 45 49 52 49 50 51
101 101 88 79 74 68 65 50 43 44 44 42 39 40 43 46 49 48 50 39 33 34 34 46 54 55 55 56 59 61 67 70 54 39 42 44 45 44 41 43 43 48 51 50 45 39 44 50 51
98 92 84 75 67 59 57 37 37 41 35 35 35 37 41 41 45 48 50 39 34 38 42 46 49 53 57 57 61 69 69 54 38 42 43 44 41 39 37 39 40 45 49 52 50 46 46 53 53
89 79 73 69 59 49 48 25 32 35 33 33 34 35 37 40 43 51 46 42 37 37 42 46 52 56 59 65 65 67 54 39 39 44 43 38 35 34 34 37 40 44 44 46 49 49 50 58 59
85 77 67 60 53 41 38 29 32 30 27 29 36 32 31 37 40 38 36 36 29 34 38 47 56 58 63 66 71 52 38 36 43 43 38 35 30 32 35 37 36 39 42 45 49 49 50 55 62
77 73 59 53 44 38 32 32 27 28 23 21 26 35 33 38 44 40 43 34 34 41 45 51 56 61 66 68 52 39 33 41 43 38 34 29 29 33 35 34 35 36 39 41 45 45 48 57 63
71 68 57 43 42 35 32 31 25 34 26 31 33 41 39 41 40 42 44 42 38 40 43 51 54 60 61 47 36 32 39 42 38 32 30 27 28 32 30 30 30 31 33 34 39 39 45 54 60
62 56 55 39 41 34 35 33 22 30 38 37 36 45 43 42 43 41 41 41 40 43 43 42 46 44 39 34 31 36 41 38 36 30 28 27 27 30 27 25 25 33 33 34 29 30 28 37 42
57 53 48 43 40 37 38 39 48 35 29 39 32 37 48 45 41 43 40 41 43 45 24 24 30 33 27 28 36 39 37 38 32 30 28 26 26 28 26 29 36 34 34 34 35 36 36 36 34
51 46 44 43 38 38 44 47 48 53 51 45 43 41 40 38 40 44 45 42 42 41 31 38 24 26 35 33 40 38 39 37 33 30 29 26 27 26 28 29 34 33 37 40 39 41 42 43 44
48 48 41 38 40 40 46 51 52 55 53 50 48 44 42 45 38 42 41 43 42 48 39 32 35 42 46 43 42 41 40 36 31 32 29 23 28 24 32 29 35 34 31 31 36 34 36 33 33

GFSSGP_250_spd_090.txt.gz
Wind_Speed
22 23 23 19 17 16 21 34 36 45 44 41 40 42 42 40 44 48 48 46 45 45 48 52 54 55 56 57 57 58 57 55 55 55 56 56 55 55 54 56 57 53 52 56 55 53 49 44 43
27 28 28 26 27 24 28 37 34 43 43 41 40 41 43 42 42 46 46 46 47 47 48 51 51 52 56 55 54 52 51 51 52 53 52 51 50 50 51 52 51 50 48 45 39 38 35 30 35
33 33 30 28 34 36 33 40 42 45 42 41 43 41 39 37 37 46 46 44 45 48 51 53 54 59 58 56 56 53 52 51 51 53 52 50 48 48 49 50 47 41 43 39 29 24 17 22 22
37 38 36 35 37 40 38 45 45 46 47 48 49 46 42 39 43 44 45 43 44 48 49 50 53 56 60 62 60 56 54 53 51 52 51 51 49 51 51 50 43 37 35 29 19 13 19 25 22
45 43 40 41 39 42 42 48 47 49 53 51 52 52 49 40 44 45 46 44 42 52 52 50 51 56 59 59 58 59 58 56 53 52 53 55 56 56 55 48 40 34 29 23 21 19 25 22 23
50 48 42 42 45 44 46 50 50 53 56 56 53 54 53 49 47 50 48 49 53 53 62 58 52 56 60 59 56 54 55 56 54 54 57 59 59 58 54 48 38 33 34 33 32 29 23 22 24
55 52 47 52 57 48 52 55 53 53 58 58 57 58 59 59 55 53 50 51 57 61 64 62 57 58 59 61 57 54 54 52 54 54 55 59 58 59 56 49 39 36 42 40 34 29 24 19 25
57 57 58 59 54 49 58 56 57 59 56 58 64 63 61 64 62 60 60 60 62 60 67 68 64 61 59 59 58 53 53 50 48 50 52 53 52 54 53 51 43 37 41 45 34 21 22 20 25
59 59 58 61 62 56 61 61 69 61 58 64 67 67 70 70 70 69 71 66 66 63 68 68 66 62 59 58 55 46 45 45 47 45 46 45 46 48 49 49 48 41 43 47 36 29 16 37 34
65 62 65 67 66 65 64 67 68 70 71 70 69 71 72 76 76 69 70 71 69 64 67 73 65 62 60 56 54 46 43 42 42 45 49 46 46 46 47 50 49 39 46 52 43 37 34 36 38
68 67 72 70 70 70 68 68 66 68 67 73 77 82 83 83 83 83 82 81 77 77 79 71 71 64 58 55 48 45 45 43 44 46 46 47 46 45 54 60 58 45 45 56 44 45 41 43 44
69 71 71 70 70 71 70 73 67 68 72 78 83 80 84 83 84 87 88 83 79 69 68 64 69 62 54 51 47 43 40 40 41 46 51 48 48 50 55 58 51 46 43 59 51 48 46 39 45
72 75 74 74 74 74 76 74 71 75 79 82 87 84 83 86 83 83 85 84 78 71 67 61 65 60 52 48 48 47 43 43 45 48 46 45 47 47 53 50 48 42 43 65 56 46 51 46 46
78 76 79 80 80 80 85 77 77 76 81 83 85 86 90 87 89 86 79 80 78 72 68 65 62 64 54 51 48 47 42 45 45 45 46 48 46 52 48 49 43 39 43 68 63 55 58 51 45
80 78 79 81 81 77 90 74 77 80 85 84 90 89 86 88 85 82 81 75 76 71 71 68 64 63 58 52 51 44 42 43 42 45 45 48 48 47 49 48 40 38 45 64 70 59 60 61 55
83 79 78 84 83 81 89 71 78 85 88 91 84 84 84 85 85 82 78 74 75 72 73 75 65 67 58 48 47 40 43 42 43 50 50 48 51 51 53 46 36 38 46 57 69 63 66 62 63
77 80 84 85 90 84 87 81 82 87 88 85 78 75 73 75 76 73 72 68 65 67 69 75 70 62 55 44 42 40 43 46 52 55 49 50 56 54 56 43 36 39 44 54 69 64 68 64 62
76 73 78 78 82 87 85 87 86 84 84 77 71 68 68 68 68 68 63 60 59 61 61 64 66 54 57 44 41 42 48 50 58 55 53 55 54 57 60 39 36 38 44 51 60 64 63 69 59
77 79 75 81 84 91 95 91 90 88 79 73 69 64 64 64 60 57 56 53 54 54 55 55 53 52 54 45 49 47 52 53 54 55 54 54 57 59 51 36 37 41 44 50 52 54 55 62 64
80 83 88 85 89 93 91 86 92 82 74 70 66 60 58 54 52 49 51 49 49 51 49 48 50 54 53 42 41 51 54 55 54 53 54 56 58 56 42 36 40 43 48 47 50 54 54 52 55
88 92 91 92 97 93 94 81 85 77 65 60 58 52 46 46 46 45 46 45 45 44 44 45 53 49 42 33 43 55 53 52 53 53 53 57 54 45 37 38 42 45 47 49 51 47 45 45 52
90 96 97 101 99 95 84 83 78 66 54 50 47 40 38 39 38 38 40 36 36 37 41 46 43 43 27 42 52 51 51 49 53 54 57 57 49 37 38 42 46 43 45 52 52 50 43 41 41
97 103 101 101 102 88 81 71 65 54 46 39 35 34 33 32 33 35 33 34 32 37 40 41 41 31 41 42 41 43 46 51 56 58 60 51 35 38 41 44 43 44 42 48 46 46 52 42 43
101 103 102 100 94 82 73 62 56 41 37 32 30 29 30 28 29 27 30 32 39 37 34 40 31 33 36 38 44 45 50 56 59 61 47 35 34 38 41 39 42 42 40 40 40 45 46 50 44
97 97 94 89 83 72 62 52 44 34 34 30 27 30 30 31 31 29 32 41 42 39 36 34 38 41 34 34 41 50 52 58 59 48 33 30 35 36 38 39 40 39 39 41 40 43 45 48 50
94 92 86 78 69 56 55 43 35 33 31 27 29 25 27 33 29 34 39 46 43 45 42 33 29 35 30 31 44 50 55 48 39 30 27 32 34 35 35 37 36 33 36 36 36 39 42 45 51
89 83 84 73 66 46 49 35 34 35 33 34 32 26 34 33 32 39 42 45 44 50 41 31 24 12 21 32 31 35 36 29 28 23 31 33 34 35 36 32 31 30 30 33 34 35 38 40 41
85 79 74 66 53 42 41 31 37 40 39 41 38 38 37 37 35 38 45 42 42 34 32 30 18 19 21 27 30 29 23 20 22 28 32 33 34 35 31 31 24 28 28 27 24 25 25 25 30
75 67 64 58 46 35 36 30 40 40 37 42 41 46 38 41 40 43 40 40 38 33 34 33 28 14 15 22 27 34 24 21 26 32 34 35 34 32 31 27 20 28 23 28 29 27 23 25 25
68 55 50 51 41 34 32 33 48 47 46 43 51 43 40 44 42 43 45 46 37 39 38 30 23 19 23 25 37 41 39 28 33 36 36 37 34 32 30 22 19 28 27 30 32 31 31 32 35

GFSSGP_250_spd_093.txt.gz
Wind_Speed
31 30 29 26 21 23 29 31 35 38 38 42 42 42 44 45 47 51 54 58 53 52 54 56 56 61 70 70 69 71 71 71 68 67 66 64 64 62 58 57 55 54 52 53 52 55 54 49 44
38 39 36 30 29 31 37 38 36 39 39 39 36 35 36 36 38 41 44 48 49 47 46 47 51 55 58 60 66 67 66 66 65 63 62 61 60 59 56 52 51 48 46 48 44 41 37 34 29
41 41 41 34 36 40 40 42 39 38 38 40 41 38 35 34 35 36 40 44 46 45 45 46 47 49 53 56 59 57 57 59 58 60 59 58 58 56 53 52 50 46 46 44 42 42 33 21 18
41 41 38 39 44 46 46 48 44 45 45 44 41 39 40 42 40 44 44 47 47 48 47 46 44 44 46 50 55 54 55 54 55 57 57 59 57 57 55 50 47 47 43 36 34 33 26 22 24
42 39 34 39 47 49 49 53 47 51 54 54 52 43 40 40 43 45 50 50 50 50 52 50 49 51 49 54 55 56 54 55 55 55 56 57 57 59 59 55 52 49 42 33 32 33 32 26 31
47 44 38 42 46 54 55 57 55 57 58 57 54 45 43 44 46 46 49 52 55 54 56 59 59 57 58 60 61 57 59 56 54 52 53 52 53 55 57 59 57 52 45 39 38 39 38 35 30
50 46 43 50 54 55 62 59 58 56 58 62 59 52 49 51 46 46 50 54 59 62 63 63 63 63 65 65 66 67 60 60 55 53 53 54 53 53 53 54 53 52 46 42 41 43 45 40 31
54 49 48 55 60 54 63 60 60 59 60 63 60 59 59 55 57 58 55 56 59 61 66 66 65 68 69 67 71 67 66 62 60 52 51 52 51 50 47 43 42 43 43 42 41 42 48 43 33
58 53 49 58 61 58 64 63 65 66 62 64 68 67 66 65 62 60 58 58 57 63 68 71 75 74 71 67 67 69 69 68 62 51 50 49 50 46 40 40 38 39 37 40 39 39 49 44 35
56 52 55 57 61 64 66 67 71 67 68 69 71 69 68 66 68 71 71 66 63 67 69 72 73 74 73 71 73 74 75 75 61 50 50 46 46 45 44 37 40 41 35 41 38 35 42 46 34
59 58 64 61 61 62 64 69 71 70 66 67 71 71 71 71 70 69 71 68 69 69 70 76 80 80 80 76 77 69 70 64 56 47 46 47 47 46 37 38 40 42 46 45 45 34 45 47 34
60 62 66 67 69 69 69 72 73 73 72 75 76 77 72 73 73 73 76 76 76 70 69 74 76 75 77 82 75 63 64 60 56 47 44 42 39 40 37 38 41 43 43 48 47 38 47 51 37
64 67 69 70 70 72 70 71 76 77 75 75 75 76 74 74 76 81 85 86 81 74 72 73 77 77 76 81 67 62 60 56 54 46 41 40 39 42 39 39 41 45 48 52 45 41 53 54 43
69 71 76 80 79 77 75 75 76 76 75 72 75 76 74 80 81 84 87 89 81 74 73 74 78 77 77 74 65 62 57 53 52 47 45 42 42 42 40 39 43 43 47 50 40 39 52 60 52
74 77 75 78 80 78 80 77 77 81 81 76 80 79 77 79 87 89 88 85 80 73 70 73 79 76 77 73 67 60 58 52 52 48 44 41 41 41 40 43 45 44 44 44 36 41 52 68 61
80 81 82 88 89 89 85 78 87 78 74 76 77 77 81 82 85 90 95 94 87 76 69 75 77 76 75 73 70 64 59 52 50 49 42 40 40 43 45 43 46 43 45 42 34 42 59 67 63
83 81 82 86 92 91 89 85 84 83 67 71 74 77 83 83 88 95 97 94 86 76 70 69 71 78 77 74 71 69 60 49 48 47 41 39 40 48 49 48 48 46 48 40 33 44 61 67 64
84 84 83 85 94 95 93 85 92 85 77 77 78 81 83 86 87 91 86 83 79 74 66 63 63 71 74 69 64 59 51 46 43 42 42 40 45 49 47 47 47 50 49 37 34 46 60 69 64
80 82 84 92 94 94 99 95 93 88 83 86 84 85 84 84 83 81 74 72 70 66 65 59 60 59 57 65 66 57 51 48 49 43 37 47 47 47 50 50 47 51 46 33 34 45 57 68 66
84 86 88 91 98 97 98 95 91 89 89 90 87 78 81 79 76 72 67 64 62 61 56 53 51 50 50 56 63 48 49 47 38 38 44 53 49 47 48 52 48 45 44 30 35 43 52 58 64
87 86 88 87 96 99 100 89 90 92 93 89 80 77 76 70 64 63 58 53 49 46 43 43 44 43 47 55 54 44 47 43 37 45 50 48 46 47 47 45 50 55 40 31 37 43 50 59 54
84 90 93 96 97 97 101 97 87 93 87 82 78 72 68 63 58 56 45 40 40 40 37 36 40 43 47 52 48 43 45 44 36 48 52 51 48 44 46 52 56 52 35 33 42 43 51 53 48
91 96 97 100 101 97 100 97 87 92 73 74 71 63 58 54 46 42 36 35 38 36 34 36 42 42 44 44 39 41 41 50 36 41 46 46 42 47 52 56 56 40 35 38 42 48 49 48 46
96 97 100 100 100 98 95 94 89 75 71 67 63 54 49 44 37 33 32 33 33 31 34 36 39 41 42 38 43 43 46 41 36 38 45 43 47 51 60 55 44 37 38 44 45 45 48 52 50
100 101 101 98 100 95 96 85 75 68 64 60 53 46 41 38 35 30 30 31 30 33 32 33 40 39 40 42 47 46 38 27 37 41 46 51 55 58 55 43 37 37 39 43 45 42 42 45 56
99 102 100 99 96 93 90 80 72 66 59 51 45 41 39 41 32 29 31 30 33 36 38 39 42 45 47 48 42 26 21 29 36 40 47 54 57 47 39 36 37 38 38 39 37 40 38 40 47
92 94 93 97 92 84 76 68 69 59 52 44 40 39 39 35 28 29 29 32 40 46 43 40 41 39 40 33 25 25 31 31 26 37 43 45 43 34 33 35 36 35 36 35 41 40 42 42 43
89 89 88 88 84 75 64 60 61 54 44 41 37 40 42 35 30 31 34 40 53 50 43 39 34 27 17 23 23 19 29 25 27 25 32 37 30 31 31 32 32 34 33 35 35 36 35 37 42
86 85 80 79 79 73 56 50 53 45 41 41 39 46 44 35 40 37 42 55 47 49 45 37 37 30 20 19 21 27 27 22 31 31 27 25 27 28 30 31 31 31 27 31 28 28 29 30 34
81 78 77 77 69 61 50 37 45 38 41 42 43 49 45 38 44 41 47 56 48 48 48 43 39 29 28 27 27 23 25 22 31 32 25 23 24 28 30 30 29 28 27 25 24 24 25 22 23

GFSSGP_250_spd_096.txt.gz
Wind_Speed
33 31 30 32 34 37 43 43 36 31 28 28 27 26 28 31 32 33 38 46 51 50 50 50 52 56 59 61 70 69 68 68 68 69 70 70 68 70 72 73 72 71 69 65 64 60 57 54 54
36 36 34 35 37 43 48 45 35 37 31 31 25 25 24 30 31 31 32 37 42 45 46 46 48 52 54 56 58 60 62 58 57 59 61 61 63 64 65 67 69 69 67 61 59 53 49 46 44
36 37 38 36 41 48 49 47 41 36 36 35 33 32 34 35 36 34 37 39 41 43 44 44 45 47 50 51 54 56 55 51 46 47 51 54 58 59 60 61 62 61 59 55 53 49 44 43 41
39 39 36 34 41 49 52 49 44 41 38 37 36 39 39 42 44 42 41 40 42 45 49 51 50 49 48 50 51 53 49 45 42 42 46 48 52 55 57 58 58 57 57 55 53 48 42 37 33
43 42 36 37 45 48 51 51 46 44 42 42 41 47 47 43 42 44 46 46 45 46 50 54 56 56 53 51 52 54 52 52 52 48 49 47 48 52 52 53 56 56 54 55 53 49 42 40 35
48 46 41 42 47 51 55 53 49 49 49 50 44 43 46 48 47 45 46 49 49 51 52 54 55 56 58 58 55 56 60 61 60 54 52 49 50 50 51 51 50 52 54 53 52 51 47 44 39
52 47 44 46 48 53 60 55 51 52 52 55 52 52 49 51 50 49 52 53 57 54 55 56 58 61 61 59 58 60 61 63 65 64 59 53 55 56 52 51 50 50 50 49 47 49 50 51 45
53 50 48 52 54 55 61 56 54 54 55 59 58 55 57 60 58 59 59 59 61 57 57 58 58 59 61 61 63 63 66 69 71 68 65 60 59 62 55 52 50 47 48 45 44 41 45 49 46
53 49 53 57 56 56 61 60 59 57 55 58 65 63 61 63 62 61 62 61 60 58 57 56 58 64 65 64 64 67 68 70 69 67 65 64 61 55 51 51 50 44 43 38 39 36 39 44 42
59 53 58 62 60 59 60 62 64 61 59 60 64 66 64 63 61 59 60 61 61 61 61 64 62 63 67 70 68 70 70 70 70 71 72 68 54 50 48 50 49 44 40 35 36 31 38 39 37
61 58 62 61 63 60 59 63 65 68 67 66 68 67 64 65 70 71 71 69 69 69 69 68 64 63 65 68 74 73 73 73 71 71 74 66 49 47 47 50 47 42 37 35 33 35 38 37 38
66 67 66 64 64 65 65 65 65 67 68 71 70 74 74 72 71 71 75 67 68 66 68 67 66 70 69 68 73 73 72 71 68 69 71 65 48 45 48 48 46 36 34 33 35 37 41 43 39
69 68 67 67 66 67 66 64 65 69 76 76 75 74 76 77 76 76 73 69 71 71 73 72 71 71 73 75 69 76 71 71 70 66 65 64 47 44 46 42 41 35 34 33 34 34 42 44 37
71 72 70 70 70 69 67 67 69 72 77 80 80 79 78 76 80 81 82 77 76 75 75 76 77 77 77 75 71 68 69 69 67 65 62 61 45 42 45 44 42 36 34 35 35 37 44 44 37
75 73 72 72 74 73 72 69 73 80 78 78 82 82 82 80 81 84 86 78 73 70 75 80 81 78 76 75 75 74 69 74 72 65 63 57 46 42 41 43 41 35 33 36 38 38 42 37 34
79 77 76 77 74 73 73 75 81 84 84 83 84 84 83 85 85 88 91 80 76 75 81 83 83 82 81 77 71 79 74 72 70 65 61 58 46 43 41 41 43 37 38 38 39 40 40 33 36
82 80 79 79 80 77 75 76 82 89 88 84 83 84 84 86 90 90 92 83 84 85 87 85 85 80 79 73 69 75 69 65 66 65 60 57 47 44 41 40 43 40 40 37 38 40 41 31 42
84 84 84 84 87 81 79 77 83 87 86 86 86 86 90 92 92 93 89 85 84 84 89 90 82 76 72 70 62 65 65 60 61 60 59 60 50 45 38 43 46 44 40 38 39 41 40 31 45
86 87 84 86 87 84 83 81 87 90 90 89 90 93 94 92 91 91 87 87 84 84 83 82 79 74 72 67 59 59 57 56 60 62 62 56 46 41 39 45 41 39 41 38 39 40 35 31 52
85 88 88 87 90 86 85 82 90 95 96 93 93 96 93 93 92 94 84 83 83 80 73 73 74 70 67 60 56 55 57 52 50 56 54 45 41 42 39 47 44 40 39 39 39 41 35 32 56
83 86 87 86 89 91 88 83 91 95 94 95 97 98 99 98 93 83 78 78 74 71 67 62 59 62 57 55 55 49 51 49 47 50 38 38 39 42 41 43 42 41 40 39 40 42 37 36 53
80 85 86 88 88 91 93 85 91 95 96 97 99 101 100 97 79 70 69 70 65 61 56 51 51 51 48 50 46 47 46 46 49 49 40 25 46 54 44 50 46 45 39 40 42 45 36 40 52
85 91 90 92 94 94 95 97 87 97 101 100 101 101 96 82 65 66 60 59 53 47 45 43 44 42 42 40 41 41 40 50 51 48 49 56 67 57 51 50 49 42 43 46 49 45 35 41 45
90 92 93 93 94 93 96 97 88 97 96 95 96 92 82 67 60 59 56 49 44 39 37 36 37 36 37 38 38 39 44 46 51 54 50 50 50 55 47 40 40 43 48 51 50 38 40 40 45
92 93 94 94 94 93 96 93 91 94 90 87 85 78 66 57 57 53 48 41 36 32 31 33 33 34 34 35 32 32 35 43 48 47 48 40 41 43 41 44 48 53 54 54 44 36 40 45 46
94 94 95 94 93 91 96 92 89 88 85 82 77 69 57 54 51 45 38 33 31 28 27 29 29 27 27 27 32 37 40 45 45 38 24 32 37 37 40 46 53 54 53 46 34 39 41 41 46
95 96 96 95 95 94 92 88 86 85 76 75 70 66 53 45 43 36 30 32 29 27 29 27 24 23 26 27 31 36 36 37 32 27 25 25 21 27 38 48 52 49 46 33 34 35 38 42 41
95 95 96 96 95 91 85 83 79 74 76 70 65 60 47 41 38 30 31 29 27 28 29 29 28 29 32 30 29 36 37 32 30 27 29 33 35 37 40 42 42 41 33 30 26 30 33 34 36
92 92 91 92 91 88 83 77 74 72 67 68 60 53 43 39 33 30 29 29 30 32 35 38 37 34 34 38 34 33 32 28 26 21 28 30 30 34 28 30 31 30 27 26 28 33 35 36 38
87 88 86 85 84 82 80 73 70 65 63 63 54 46 40 38 34 36 35 32 36 40 46 47 44 42 38 38 34 37 37 31 21 21 31 24 28 31 21 25 26 24 24 27 29 31 32 36 37

GFSSGP_250_spd_099.txt.gz
Wind_Speed
33 33 33 29 33 39 44 41 36 30 30 28 23 21 20 19 16 21 27 30 34 39 41 46 51 55 57 59 62 65 66 63 63 63 60 58 59 59 62 66 67 67 67 68 68 66 66 64 65
35 34 31 31 35 44 45 43 39 31 30 31 27 25 25 29 25 26 26 31 35 36 38 40 42 44 49 52 52 55 55 56 56 55 53 54 54 53 53 53 54 58 63 64 63 61 60 59 56
35 35 33 34 40 45 48 44 39 34 33 31 30 27 32 32 30 31 31 32 33 37 40 41 43 44 46 47 48 49 51 52 52 51 49 47 44 44 42 46 48 53 56 59 58 57 54 54 54
41 39 35 37 43 48 49 45 42 38 33 31 33 30 40 36 37 38 40 38 37 39 42 43 44 46 50 50 52 53 53 49 49 49 45 46 43 43 42 45 43 46 49 53 56 55 55 54 53
47 44 37 41 47 51 53 49 45 43 40 38 33 38 42 43 42 41 40 42 43 42 41 42 45 46 50 51 52 53 54 55 52 50 49 47 47 46 48 48 46 44 43 49 51 53 54 55 52
50 46 39 44 50 54 57 51 46 45 46 44 41 42 44 44 47 46 45 47 48 49 48 51 51 52 50 48 47 47 50 51 52 55 52 48 49 52 52 53 50 49 46 47 49 47 49 52 50
51 49 46 49 56 57 61 55 51 49 49 49 46 45 46 46 48 50 50 51 50 50 52 54 57 58 55 55 54 52 52 53 57 56 54 51 49 51 56 57 55 53 52 49 47 50 48 47 47
46 44 49 55 55 57 60 57 57 54 51 51 53 51 52 49 49 50 51 53 54 55 54 53 57 59 59 59 59 59 57 59 58 57 59 57 55 53 54 55 54 53 52 50 41 43 46 46 45
54 49 48 55 56 57 60 58 60 58 55 56 55 52 52 54 53 53 56 57 57 55 55 55 58 60 63 65 66 65 64 60 61 59 59 63 60 58 58 56 58 56 53 49 40 40 42 41 38
54 49 56 60 62 62 62 62 64 60 60 62 59 58 56 54 57 57 59 61 61 60 60 60 63 64 64 66 71 70 68 65 63 61 62 61 61 63 61 59 59 58 59 51 39 38 40 37 37
58 57 59 59 65 64 65 68 65 64 62 63 63 62 59 59 59 61 61 65 66 65 68 69 69 66 63 63 66 71 71 70 62 63 61 62 62 63 58 58 58 59 56 44 41 39 38 40 39
65 65 66 65 67 66 68 66 69 64 66 68 64 63 63 60 60 61 67 68 68 69 70 70 67 66 68 68 66 66 70 71 65 65 61 66 62 61 59 52 47 49 50 41 39 38 39 39 40
69 70 71 72 72 72 69 67 66 67 69 68 69 65 64 65 66 65 66 70 73 71 72 70 66 67 65 67 68 68 67 69 70 68 64 58 55 54 56 52 46 45 47 38 35 37 37 41 36
78 75 75 74 75 74 73 67 64 68 71 69 69 69 70 69 69 72 75 75 71 71 71 71 73 68 68 68 68 69 72 73 74 70 68 61 58 51 54 50 45 44 45 37 36 37 38 40 39
84 78 76 76 79 76 74 70 70 69 69 68 69 71 73 74 75 76 79 80 78 75 78 77 78 76 79 76 73 73 73 75 77 74 72 67 59 56 53 50 43 45 44 41 37 39 39 43 40
81 81 81 79 78 78 76 74 73 75 74 72 73 74 75 77 77 79 79 78 79 80 81 81 84 82 79 76 76 79 79 79 78 75 71 64 59 59 51 52 44 44 43 37 37 40 38 39 40
86 84 78 79 80 78 78 76 77 79 78 78 77 77 79 79 80 79 80 82 84 86 88 89 91 87 87 86 86 83 82 79 77 76 66 58 55 58 49 47 41 43 43 37 37 42 37 38 37
86 82 80 84 85 82 78 77 78 81 81 83 81 78 79 82 85 85 84 85 88 91 94 95 95 96 93 94 92 89 83 77 77 80 64 57 52 54 48 48 41 39 43 36 40 39 39 37 35
84 81 79 84 86 81 80 79 83 86 85 84 83 81 80 83 85 88 91 94 95 96 97 99 99 102 102 98 95 87 82 78 75 71 59 53 52 50 44 47 41 40 43 44 39 39 40 38 37
82 79 82 82 83 80 81 82 85 88 88 87 83 83 85 86 87 90 92 94 96 97 100 100 101 104 98 87 79 76 71 68 68 59 53 48 48 41 39 44 38 40 44 41 38 35 33 33 39
87 81 82 83 81 81 79 80 84 88 89 87 86 87 88 89 91 92 92 93 95 99 100 102 103 90 78 77 74 69 64 56 50 47 47 46 45 35 40 35 37 39 41 40 43 42 36 37 38
90 87 85 84 80 82 81 78 83 88 91 89 88 89 92 94 95 96 97 97 96 98 97 92 83 72 70 70 67 63 56 50 46 47 47 43 40 36 35 32 32 40 43 42 38 35 37 37 37
93 91 87 84 82 81 83 83 81 88 93 90 93 93 95 97 96 98 97 93 91 84 77 68 64 63 59 56 55 52 45 42 44 45 45 43 42 42 38 34 46 45 53 50 46 39 38 38 39
97 94 89 89 87 80 81 83 77 84 89 92 94 94 94 95 94 95 94 83 71 69 59 54 55 49 44 41 41 36 36 38 40 44 44 49 49 48 48 54 55 55 57 44 42 41 41 38 41
98 96 90 88 85 81 83 83 79 84 88 90 90 90 93 93 93 89 80 64 59 53 47 44 40 36 32 32 29 27 29 33 38 41 47 57 59 55 53 52 63 61 57 44 46 44 45 44 48
94 92 90 87 85 86 85 80 85 88 88 89 89 89 90 92 85 73 60 55 48 42 37 32 30 28 27 24 20 23 24 30 35 40 46 58 54 55 45 48 51 51 49 53 54 50 49 48 45
93 90 88 88 87 88 85 87 89 87 88 91 90 91 89 83 73 57 51 44 40 35 28 24 23 23 22 18 21 22 23 27 32 37 40 50 39 33 35 32 40 44 47 51 54 51 52 47 41
89 90 88 87 85 86 89 89 88 89 87 87 88 84 82 73 58 50 46 38 34 28 25 23 21 21 24 25 24 27 30 32 37 38 39 34 35 34 33 28 33 37 40 47 50 50 45 41 40
87 87 85 86 84 85 87 88 88 87 84 81 79 82 77 66 53 47 39 35 31 27 24 23 24 28 32 29 32 37 39 35 42 40 38 41 37 36 42 34 39 41 49 54 50 41 35 37 42
75 78 80 84 88 89 87 83 84 82 79 76 75 76 74 60 51 43 37 33 31 27 28 28 32 34 39 39 38 36 34 38 43 43 40 43 40 43 44 35 39 43 37 36 31 30 32 36 39

GFSSGP_250_spd_102.txt.gz
Wind_Speed
41 39 38 35 37 42 42 35 33 31 30 30 28 27 26 22 24 25 25 27 27 27 29 33 38 40 42 47 50 54 58 56 53 54 56 56 54 53 54 55 54 55 55 55 56 59 60 59 61
42 39 40 41 41 43 43 38 34 33 34 33 32 33 30 28 29 30 28 31 30 29 31 32 33 34 36 39 41 43 45 46 47 47 46 47 47 47 47 49 51 49 47 49 53 56 57 55 55
46 44 41 42 46 46 47 41 39 35 35 34 33 34 35 31 33 35 33 33 34 35 37 36 34 36 38 41 41 40 43 46 48 49 48 46 48 47 44 45 43 43 45 48 50 51 53 55 54
47 47 45 46 50 54 49 43 42 37 34 36 37 37 37 36 34 37 36 38 40 39 40 40 41 40 40 37 39 39 42 45 45 48 48 46 47 48 50 47 49 43 44 44 41 45 47 52 52
46 46 44 49 55 57 54 47 43 40 37 38 41 40 41 40 43 41 41 40 40 40 41 43 42 44 44 43 41 43 42 42 41 42 45 45 44 47 53 54 55 51 48 47 47 47 47 47 50
50 46 44 46 55 58 58 52 47 46 43 43 42 45 45 43 46 47 46 44 45 44 45 45 46 44 44 45 43 45 45 44 46 47 46 44 44 44 48 52 54 56 53 50 49 48 47 46 47
54 49 44 47 53 56 59 54 53 52 50 48 46 49 50 46 47 48 50 49 48 49 46 44 46 48 49 47 48 47 49 52 51 52 54 53 53 53 49 51 51 52 52 53 52 49 47 45 43
55 51 47 50 51 50 53 52 55 56 51 52 49 48 53 50 51 51 50 51 52 52 49 50 50 48 52 51 54 52 54 54 48 54 59 60 59 55 51 48 50 52 54 54 52 51 48 46 42
54 50 49 55 54 53 55 55 52 54 58 57 58 54 52 54 54 53 53 53 53 53 52 54 51 55 54 58 57 60 61 60 56 55 52 58 58 58 55 53 53 51 53 56 52 51 49 48 40
56 52 54 55 58 59 57 59 58 58 59 61 64 60 57 57 58 57 55 54 53 52 54 55 55 55 57 58 62 61 63 63 60 60 55 56 58 59 59 57 51 52 54 55 52 51 51 48 38
61 58 58 59 60 59 62 63 60 58 59 65 63 63 61 60 61 62 60 57 58 58 56 56 58 58 59 63 62 61 60 63 63 63 58 56 57 59 57 54 55 54 55 52 50 44 43 45 38
65 67 68 68 67 64 65 65 66 62 66 67 65 65 63 60 61 61 63 62 60 60 60 58 61 62 67 70 67 65 59 61 61 65 64 59 61 61 59 54 57 56 53 50 50 41 40 40 41
72 74 74 73 72 73 71 69 67 67 72 70 67 66 65 63 61 59 61 62 61 61 60 62 67 69 71 71 70 69 67 66 64 63 65 64 63 65 64 62 54 53 50 48 45 39 38 38 39
77 75 78 78 78 77 76 74 72 72 71 73 70 68 66 64 61 61 61 61 61 64 66 67 69 72 71 71 69 72 71 70 68 68 66 67 68 69 68 67 58 48 49 50 43 39 37 37 38
82 83 84 82 83 83 82 78 78 78 77 75 72 71 69 68 65 63 62 64 64 65 68 70 74 75 73 75 75 77 75 73 73 71 67 72 70 72 70 70 63 55 48 48 43 38 35 38 41
89 89 91 89 88 81 80 77 78 76 77 76 76 75 72 71 69 68 67 68 70 71 72 73 74 76 77 80 81 81 81 80 79 78 77 72 72 73 75 71 67 55 50 50 44 36 35 40 43
90 94 93 91 86 85 84 82 79 81 80 78 79 78 76 75 71 69 70 72 72 73 76 77 76 78 81 83 85 86 86 86 86 85 83 77 78 77 73 69 64 52 50 49 45 36 37 41 43
96 96 96 90 88 89 87 85 81 81 79 79 79 80 79 77 74 74 73 75 75 75 77 80 81 82 83 85 88 90 92 90 93 92 86 86 84 80 69 65 61 52 50 50 48 36 38 43 42
104 97 93 93 90 88 84 83 82 84 81 78 79 80 80 79 78 77 77 78 79 78 79 80 83 85 87 89 90 92 92 95 97 97 95 92 87 78 57 55 54 52 51 48 44 37 39 42 42
109 102 95 92 93 86 87 82 80 81 79 78 79 79 78 77 78 79 81 80 80 80 82 83 83 86 89 91 93 95 97 99 97 97 93 85 78 65 53 51 52 51 48 46 40 36 39 41 42
114 110 102 100 95 92 87 87 86 85 82 79 78 79 79 79 80 81 82 83 84 85 86 88 89 93 96 97 97 99 99 100 98 91 76 70 70 57 52 48 49 49 47 46 39 35 38 41 41
110 111 110 108 104 99 92 91 89 92 86 79 80 80 79 81 83 84 85 87 88 89 91 92 93 96 96 96 96 98 95 85 76 70 67 63 58 55 50 46 43 45 40 43 38 35 37 41 44
104 112 110 108 105 103 97 92 96 92 90 85 81 80 81 84 85 85 86 89 90 93 93 91 91 91 94 94 86 81 75 69 65 61 56 50 49 50 47 43 27 46 40 39 37 36 39 43 45
100 107 104 101 100 94 93 90 97 89 86 86 84 84 85 86 86 86 87 89 89 90 88 83 85 89 83 70 62 62 62 59 55 51 44 41 43 47 49 52 50 54 37 32 33 34 41 45 45
101 101 100 98 97 91 95 93 97 86 88 87 85 86 88 88 88 87 87 88 90 88 89 84 78 68 62 60 56 51 48 45 44 41 39 42 45 49 54 53 55 47 43 44 41 45 44 50 43
89 92 91 86 86 90 87 92 90 88 87 87 88 89 89 89 89 89 87 90 88 87 83 74 60 52 49 47 44 37 33 33 37 37 36 40 46 51 56 55 51 45 44 46 49 43 41 42 42
83 84 82 85 86 85 84 89 89 86 87 89 88 89 90 90 91 89 89 88 85 83 69 56 49 44 40 37 31 27 26 27 28 28 32 39 46 55 58 55 46 31 37 39 49 46 52 47 48
81 82 80 85 84 81 83 86 89 84 87 89 89 89 91 91 90 87 86 85 81 62 54 45 39 37 31 27 27 23 25 23 23 24 28 38 44 61 62 56 49 34 34 33 37 51 54 53 54
77 79 78 82 82 82 81 84 84 86 88 89 88 88 89 89 87 87 83 80 66 47 43 36 33 30 24 27 27 23 22 21 18 26 28 33 44 56 51 47 40 30 32 37 41 45 49 51 57
62 67 72 75 76 78 80 81 83 88 88 87 86 86 85 88 86 84 77 67 47 40 35 31 30 27 30 33 34 32 26 25 33 36 36 34 39 46 46 45 42 40 30 34 41 47 51 54 59

GFSSGP_250_spd_105.txt.gz
Wind_Speed
43 43 43 44 46 44 45 41 37 31 32 35 33 34 32 30 35 35 31 29 30 33 36 39 39 41 43 44 46 46 42 40 39 42 46 44 43 45 46 47 50 52 51 51 52 54 58 61 61
47 48 47 47 48 49 49 43 38 30 34 34 33 33 32 32 37 36 34 36 37 36 35 33 34 34 35 34 35 36 37 37 37 36 37 37 39 42 45 46 46 48 49 49 50 51 50 53 53
48 47 48 48 53 54 54 45 41 35 34 36 36 36 34 34 36 36 39 38 40 40 40 39 39 39 39 37 37 37 36 35 35 37 40 42 43 45 45 47 48 46 46 48 48 48 49 50 49
50 49 48 49 53 56 54 49 50 40 38 38 37 37 38 37 39 40 39 40 44 45 44 44 43 41 39 39 40 41 39 37 35 36 38 41 40 40 44 46 49 47 48 46 50 54 53 50 52
51 48 50 52 56 57 55 52 50 48 43 42 41 42 42 38 41 44 43 43 45 47 47 49 45 43 43 42 41 40 40 41 37 37 39 38 40 42 41 42 46 45 44 46 52 54 59 58 57
56 51 50 53 59 60 57 52 49 47 46 48 47 48 46 38 43 47 46 44 46 49 49 48 47 46 45 45 44 43 42 42 44 43 44 42 44 44 46 46 47 51 54 50 50 52 51 55 58
58 55 52 53 58 60 58 52 51 46 46 49 49 54 51 46 44 47 48 49 48 49 50 49 50 51 50 47 46 46 45 47 47 49 47 48 48 47 43 49 52 55 58 55 50 49 50 49 49
57 55 55 56 60 58 57 54 52 49 46 45 48 52 52 49 46 49 51 54 50 50 51 52 51 51 51 51 53 51 50 49 51 51 52 52 50 47 45 39 47 53 56 54 53 54 54 51 49
58 54 55 57 58 57 55 53 55 52 54 52 52 53 49 52 54 54 55 56 55 54 52 53 55 57 55 55 53 52 51 51 52 56 57 55 52 51 50 47 40 47 53 51 56 53 52 52 49
59 56 56 60 58 59 57 56 58 54 57 55 58 54 52 51 55 56 58 57 58 57 56 54 56 56 56 56 57 55 55 53 57 61 63 60 55 53 51 52 48 44 49 53 51 54 52 50 45
61 59 60 58 61 61 60 61 60 58 56 58 58 55 55 54 57 58 61 61 58 58 57 56 55 55 56 57 57 57 56 59 63 64 66 61 57 56 51 52 55 53 50 53 53 51 47 48 45
66 66 67 63 60 63 66 65 66 67 64 68 64 64 62 61 60 62 63 61 59 58 59 58 57 56 58 55 56 58 61 65 65 68 65 63 60 59 55 52 56 57 57 55 53 54 53 49 47
73 74 74 77 75 70 74 71 70 70 73 73 70 69 69 67 65 65 62 64 61 61 60 58 59 58 57 57 60 61 63 64 67 69 68 66 67 65 62 57 54 57 59 62 60 55 56 50 48
83 80 76 78 77 80 81 78 76 75 78 76 76 75 73 71 70 69 68 66 64 62 60 60 61 61 60 60 60 62 67 69 70 70 69 69 72 70 66 61 55 55 57 65 63 60 54 55 48
92 96 87 86 86 82 81 78 79 79 78 80 81 79 77 74 69 70 66 66 64 65 64 63 64 63 62 62 64 66 68 69 70 71 72 73 73 75 70 65 65 65 62 61 64 60 53 56 51
94 94 93 91 93 93 95 83 84 83 83 86 86 82 77 79 72 73 71 69 68 66 64 65 64 66 66 67 69 69 68 70 71 72 74 77 77 77 73 71 73 70 70 68 65 62 55 52 53
103 99 100 99 104 97 94 92 91 91 86 91 89 85 82 78 75 71 71 71 71 71 69 66 66 68 70 71 72 73 74 75 76 76 76 79 80 79 80 81 79 76 76 73 68 62 57 52 52
106 107 104 101 105 102 100 93 94 92 90 90 90 88 84 82 79 74 73 71 71 71 73 73 70 69 70 72 74 76 77 78 79 81 82 82 84 82 82 83 86 84 79 75 71 58 56 49 52
112 114 111 104 105 109 96 98 98 96 93 92 89 88 85 86 81 75 74 74 72 69 72 74 73 70 71 71 73 76 78 80 81 82 87 85 86 87 87 91 90 84 80 78 71 60 57 50 57
114 109 110 111 112 113 105 98 101 100 95 95 91 87 85 87 85 80 78 75 75 75 74 75 75 76 75 76 79 81 82 84 86 89 92 93 95 94 92 89 88 83 82 74 63 60 56 50 56
117 114 105 111 116 118 107 101 105 102 98 94 90 91 85 83 83 84 81 80 77 78 77 77 78 78 80 82 84 85 86 90 93 97 96 100 98 93 91 92 86 79 67 54 50 52 53 53 52
94 92 96 93 101 109 106 101 106 107 102 99 98 95 89 89 88 85 85 84 85 81 80 79 79 82 84 87 86 84 88 92 94 96 93 98 93 86 89 85 74 65 45 39 49 52 52 52 50
77 85 88 90 89 97 102 97 103 107 105 104 102 100 96 94 95 91 89 91 87 84 82 81 84 86 86 87 88 89 90 92 93 93 91 93 90 74 62 59 55 51 38 42 40 34 44 48 47
67 71 79 89 93 93 90 97 103 109 105 107 107 100 97 97 96 96 90 88 86 83 84 84 87 88 87 86 87 88 88 89 87 82 74 67 59 55 51 52 49 44 44 45 42 33 44 49 47
61 66 74 78 87 83 86 95 93 107 106 101 99 97 99 96 93 90 87 85 86 87 86 87 87 88 87 88 89 87 85 78 68 61 53 48 51 51 48 47 47 46 50 52 51 49 53 51 47
61 65 70 71 74 80 82 85 91 98 96 93 96 96 97 94 91 88 87 85 85 87 88 89 89 88 86 85 83 81 65 60 54 51 46 37 47 39 39 42 47 50 56 58 53 48 48 48 49
55 57 68 73 75 77 76 78 79 81 75 83 90 90 90 91 89 89 87 84 86 88 89 89 88 88 83 79 77 61 53 46 39 35 32 33 38 35 34 40 45 54 50 47 46 43 44 51 52
56 62 70 79 81 78 80 85 88 91 92 89 85 84 85 87 88 87 86 86 88 87 88 88 86 84 78 73 59 50 39 30 19 15 22 30 32 33 37 39 48 59 50 50 44 45 49 51 45
59 60 64 81 82 86 90 90 89 88 91 82 83 85 84 85 87 85 86 88 87 86 87 88 84 75 70 56 49 38 29 29 24 21 23 27 26 34 39 48 51 56 53 52 38 43 33 39 43
55 60 60 66 70 77 79 84 87 91 85 83 83 82 84 85 86 87 89 87 86 87 86 83 76 68 54 44 40 31 32 33 26 24 26 25 28 33 39 52 48 53 51 47 22 21 31 43 45

GFSSGP_250_spd_111.txt.gz
Wind_Speed
44 46 46 45 43 45 50 46 36 35 33 37 42 40 39 37 34 33 36 37 36 39 39 40 40 38 38 38 37 38 40 39 38 38 39 38 40 39 38 39 42 45 46 46 47 48 46 46 45
48 49 45 47 51 48 52 45 41 38 36 41 45 39 39 40 34 32 37 34 33 38 37 35 34 35 36 36 37 37 39 39 39 38 36 40 39 38 37 38 41 43 42 44 46 46 44 43 43
49 48 43 45 50 53 56 49 44 40 36 41 46 44 41 40 40 39 40 37 34 37 37 35 35 34 33 33 35 36 38 39 40 40 39 38 40 41 42 41 43 41 41 40 42 43 44 45 44
54 51 53 49 50 52 53 54 48 44 37 37 40 43 46 43 40 41 47 40 37 36 40 35 36 36 35 36 37 38 39 40 41 42 42 42 42 43 40 40 40 43 44 44 42 43 42 43 45
59 57 55 47 50 53 54 58 50 43 41 41 44 43 43 46 41 41 48 46 42 40 41 40 38 39 39 38 38 39 38 39 41 42 44 43 42 41 41 38 40 45 44 44 43 43 45 44 43
64 60 51 51 52 59 56 57 53 43 42 44 43 46 49 42 40 43 47 50 45 43 45 44 43 42 39 38 40 42 41 42 43 44 44 43 44 43 43 44 44 44 46 45 46 46 44 44 41
65 58 51 51 54 61 60 58 49 45 44 47 43 41 48 45 34 43 51 50 42 44 47 46 46 44 44 43 45 44 44 45 45 42 44 46 46 44 44 44 46 48 47 48 47 44 44 41 39
70 53 52 55 54 58 61 60 46 42 48 43 42 44 46 43 34 39 51 51 43 46 43 44 44 45 46 47 47 46 47 48 49 48 46 47 48 46 44 46 46 49 49 49 50 42 40 36 38
62 48 55 57 54 53 57 52 49 38 44 43 44 42 52 45 39 38 49 54 49 47 49 46 47 48 49 47 47 47 49 51 52 50 48 49 50 49 50 49 46 48 48 51 47 45 42 40 36
50 48 56 57 57 55 57 57 57 46 50 48 49 45 51 50 44 45 52 52 52 43 51 49 50 51 49 50 51 52 53 51 49 50 51 51 52 51 50 49 50 47 48 48 50 48 47 45 39
56 55 60 64 63 62 61 60 64 61 58 61 54 55 58 55 57 51 54 58 57 50 44 51 48 49 53 51 54 53 53 52 51 51 51 51 52 52 50 50 52 50 45 51 50 50 49 46 45
56 59 62 65 67 66 62 61 63 62 61 66 64 64 64 57 54 61 62 62 60 53 51 55 59 55 55 57 56 56 55 53 53 52 52 52 52 52 53 52 48 46 51 53 51 51 50 49 50
72 73 73 74 75 77 75 71 68 71 74 70 68 67 67 66 64 63 65 65 67 60 59 59 60 64 57 56 58 57 57 54 55 55 52 53 53 55 54 54 52 55 55 55 54 50 48 51 48
79 76 75 76 75 79 85 79 76 77 81 80 79 76 74 73 74 77 78 71 69 72 67 64 62 64 62 60 59 58 59 60 61 55 54 55 57 58 58 58 59 60 57 54 51 52 53 49 50
82 84 83 81 79 86 94 72 78 77 83 79 80 81 81 82 82 81 82 77 70 67 66 64 65 67 68 65 66 62 60 58 62 62 61 59 57 60 60 61 60 59 60 60 58 55 53 53 52
89 90 89 84 90 92 98 58 78 83 81 76 81 84 81 79 84 81 81 78 73 72 69 72 74 71 69 69 69 64 59 58 59 62 62 65 62 61 62 63 62 62 62 62 62 61 55 56 54
95 96 97 88 97 93 98 82 77 82 86 86 87 84 85 87 87 82 81 79 76 75 76 78 75 74 70 67 65 64 62 57 57 58 60 63 67 68 64 65 66 66 63 62 61 61 58 56 52
98 100 97 95 90 91 93 93 84 85 91 88 90 90 86 90 92 85 82 81 77 79 82 80 78 76 75 71 67 65 64 61 59 59 61 60 58 61 62 62 64 65 64 61 61 61 60 55 52
102 103 104 95 92 98 93 96 95 83 93 93 94 95 94 95 95 86 83 81 81 83 85 83 81 79 77 73 72 68 67 63 62 61 61 61 62 59 62 63 65 66 65 66 63 57 55 47 46
103 103 102 98 98 101 96 95 99 99 100 107 103 98 98 102 100 95 84 82 80 85 90 86 85 83 78 76 73 74 70 70 65 62 62 63 65 64 65 70 68 66 62 58 58 46 43 53 62
104 107 105 102 96 91 98 97 96 91 98 97 95 93 100 104 97 97 87 86 83 90 92 88 87 85 81 77 76 74 73 71 69 70 68 70 71 72 71 69 68 70 64 56 52 44 39 74 71
105 110 108 103 97 86 91 96 80 92 93 94 93 104 107 100 96 88 78 87 89 94 89 89 85 86 84 80 79 77 76 75 74 74 75 75 76 76 76 75 68 63 62 55 51 44 52 58 65
111 109 104 97 93 89 83 97 59 85 83 86 90 104 104 88 90 85 91 96 89 89 88 85 88 86 87 87 82 80 78 77 77 78 77 78 79 78 77 75 71 65 57 58 57 50 60 71 74
111 106 104 96 87 78 83 77 52 68 66 71 83 87 90 84 78 81 85 86 88 88 86 84 87 88 87 86 86 84 81 79 81 81 81 80 79 80 77 74 68 72 65 54 53 51 53 62 78
102 101 95 87 81 72 70 57 45 53 55 58 71 74 77 71 76 77 78 75 78 84 90 85 86 89 92 86 89 85 83 81 83 84 84 81 80 80 80 75 67 72 65 57 55 50 57 62 59
97 93 83 80 72 57 52 48 41 45 44 49 53 55 59 56 64 65 68 72 77 83 81 81 78 80 82 84 86 85 84 81 82 84 82 80 81 79 77 72 68 65 57 56 53 48 53 52 58
93 84 77 69 64 49 43 42 39 36 34 34 36 52 49 54 50 55 57 57 63 70 76 77 78 77 78 80 80 81 82 79 81 81 81 82 79 73 71 69 62 51 57 59 53 42 50 51 52
83 75 66 61 53 49 42 34 38 34 30 31 38 44 49 51 54 49 59 65 68 71 71 75 77 78 77 78 80 81 81 81 80 81 82 79 73 68 66 55 45 46 57 51 49 46 54 56 52
74 61 58 54 50 44 42 34 41 42 43 45 49 52 55 52 54 55 50 59 62 66 69 71 72 70 65 65 64 67 71 75 77 78 78 71 65 62 52 36 36 42 46 46 51 57 60 57 59
58 53 50 52 48 44 42 41 44 51 53 55 57 58 61 62 61 62 60 60 64 63 67 67 66 64 59 61 63 62 66 72 75 75 67 60 59 52 35 33 34 33 32 36 40 46 50 46 69

GFSSGP_250_spd_114.txt.gz
Wind_Speed
42 41 39 42 44 48 44 39 45 43 37 38 36 38 38 35 34 33 35 37 36 39 39 39 41 41 40 39 38 37 36 36 36 35 34 36 36 38 38 39 41 41 42 44 43 42 45 45 46
41 43 46 45 44 50 55 47 47 44 41 40 40 45 39 35 36 35 35 39 34 37 37 34 35 35 35 34 32 33 34 34 34 34 35 36 38 39 39 39 39 39 41 39 37 40 42 42 43
42 43 44 39 44 53 56 52 47 45 40 40 42 45 41 36 36 41 41 37 40 38 39 36 35 33 32 32 31 31 30 31 33 34 34 37 38 39 40 39 40 39 39 38 38 40 43 42 45
46 38 41 46 50 53 60 51 45 43 39 41 42 44 41 38 35 35 44 42 40 43 43 40 39 37 33 32 31 31 32 32 31 32 33 36 38 40 40 40 40 38 40 40 39 44 41 44 45
49 48 45 50 49 57 61 54 44 42 35 38 44 44 41 41 44 46 47 47 42 43 44 42 43 42 39 36 34 33 33 33 34 35 36 37 41 41 40 39 40 40 42 44 41 44 43 45 45
50 49 47 50 55 59 60 53 44 40 33 36 42 45 43 38 41 44 48 50 46 42 43 45 45 45 43 41 39 38 36 37 38 37 38 40 42 42 43 41 42 42 43 43 44 42 43 45 46
59 55 55 54 57 64 58 46 39 35 31 35 42 42 42 38 40 43 48 51 49 42 43 46 46 43 44 44 41 39 40 40 41 41 42 43 44 45 45 44 44 43 44 43 45 46 44 43 44
56 55 55 56 56 52 51 45 40 37 33 35 40 42 43 41 40 42 46 51 52 46 42 44 44 42 41 41 40 41 42 43 43 42 42 44 46 46 45 44 43 45 45 46 49 47 46 43 42
58 54 60 60 48 45 47 48 42 41 44 46 43 38 37 39 40 39 46 51 49 48 41 39 43 45 44 45 45 45 45 44 43 43 45 46 46 45 45 45 45 44 45 47 49 49 46 45 43
56 58 62 53 49 51 48 50 54 47 48 54 54 50 45 40 41 47 48 53 51 45 45 44 40 45 48 48 47 46 47 45 45 45 46 45 46 47 47 47 46 45 43 44 46 47 49 45 48
58 49 48 47 49 50 51 53 58 56 54 54 54 56 61 54 47 48 53 57 54 47 47 50 50 51 54 50 47 47 47 46 47 47 47 49 48 48 48 48 47 47 44 43 45 45 47 50 54
48 50 47 53 64 63 61 63 68 67 57 61 59 61 60 60 61 57 57 60 57 54 54 55 55 53 53 57 52 52 54 49 50 48 48 49 51 50 51 52 50 49 47 46 44 44 49 54 55
57 60 61 65 74 71 69 64 66 69 74 74 71 68 68 69 66 65 65 63 65 57 52 51 54 58 65 62 61 59 59 54 52 50 52 49 48 51 51 51 51 50 50 50 48 50 52 56 53
62 63 65 71 75 75 71 68 72 75 81 75 77 80 77 69 74 71 68 63 63 64 63 59 62 64 68 67 61 63 60 56 53 51 52 52 53 52 50 51 53 51 51 53 53 53 53 55 55
69 69 72 75 79 80 79 65 76 82 84 82 85 86 83 73 75 74 74 72 67 63 64 66 63 64 70 67 61 60 57 57 58 56 56 55 53 54 53 52 53 52 55 53 56 56 54 53 53
73 73 75 77 83 86 88 75 89 89 88 85 83 83 73 80 85 79 68 67 67 68 66 65 68 69 69 69 67 66 63 60 58 59 64 59 55 55 50 51 39 54 55 59 57 58 56 55 56
79 80 81 86 90 93 96 85 86 88 89 87 83 76 77 81 92 85 76 71 69 70 68 69 75 74 70 70 71 70 67 64 61 58 58 58 60 62 59 58 51 41 56 62 56 56 54 51 50
89 91 90 94 95 94 95 87 84 90 91 88 86 85 84 86 91 91 84 80 77 75 74 74 79 79 75 73 73 72 71 70 64 62 59 59 56 54 54 59 64 61 60 57 54 60 59 56 50
90 94 92 88 93 94 95 89 87 87 92 94 92 89 94 95 96 94 92 89 83 80 82 80 81 82 81 78 76 74 74 74 70 68 63 62 59 57 52 56 62 65 65 63 60 60 59 55 55
98 97 94 86 93 99 98 91 91 90 98 103 101 97 103 100 101 105 100 91 86 85 87 88 86 85 83 81 79 77 76 75 74 73 71 66 63 61 58 57 55 58 61 61 63 58 57 50 46
98 98 96 95 96 101 104 97 93 92 101 103 102 97 106 96 97 96 99 91 89 88 88 90 91 88 84 82 79 79 79 79 76 76 74 72 69 64 63 60 60 61 63 63 64 60 57 53 45
99 102 101 101 102 101 105 105 88 95 95 96 92 89 94 89 85 87 91 94 90 87 94 91 95 92 92 86 84 82 81 81 81 79 77 76 73 72 69 66 65 64 64 65 66 63 55 55 55
102 103 106 107 105 103 102 109 89 87 84 84 81 80 79 81 79 81 82 88 78 86 88 89 92 92 96 91 92 89 86 85 85 83 82 80 79 77 74 71 70 70 70 71 70 66 57 55 60
104 105 107 107 109 104 105 106 79 76 73 76 68 68 69 69 68 76 78 78 77 83 83 83 89 92 95 92 94 96 92 89 89 86 86 83 84 83 78 76 74 75 74 72 75 70 63 58 61
105 107 108 109 108 106 102 93 79 66 65 65 57 55 53 59 58 61 65 64 65 69 72 81 88 91 92 91 94 98 90 91 87 88 86 86 86 84 79 78 78 78 78 72 73 70 65 63 63
103 106 108 107 107 99 90 85 68 58 55 52 48 46 42 45 48 51 53 52 55 62 65 71 70 73 80 79 87 87 87 88 89 95 97 89 88 87 84 81 79 78 77 72 72 70 64 68 66
103 106 105 103 99 90 79 75 61 47 47 45 40 40 36 38 39 31 37 43 44 50 54 52 59 64 68 72 72 72 77 85 88 95 86 89 87 84 83 81 79 78 78 70 69 69 66 66 66
104 101 100 93 88 79 69 63 51 41 41 41 36 31 23 29 30 40 38 43 42 42 47 49 53 60 64 68 72 71 76 81 82 83 81 81 80 81 78 78 79 79 71 68 66 65 58 56 50
96 90 84 81 77 66 59 52 43 35 38 38 34 14 24 34 43 48 57 46 47 48 44 49 56 60 62 69 66 70 72 70 68 70 70 72 71 76 78 77 76 68 61 60 59 53 48 45 51
81 75 73 71 65 56 52 45 38 34 36 43 41 43 50 57 63 63 59 51 55 53 51 52 61 64 66 67 67 67 65 61 62 65 66 67 69 69 66 66 64 57 53 52 50 42 42 49 56

GFSSGP_250_spd_117.txt.gz
Wind_Speed
39 39 42 40 40 43 43 40 37 39 45 44 41 42 42 43 43 39 37 37 39 36 38 38 37 37 37 36 35 35 36 37 39 39 37 36 34 33 34 35 37 37 38 38 39 39 39 42 41
44 49 45 42 43 45 42 39 42 42 37 44 43 40 39 41 43 43 40 40 41 41 39 39 35 34 34 33 32 31 32 32 32 33 35 34 33 33 34 35 35 36 38 39 39 39 39 41 42
42 42 45 43 45 43 46 39 40 41 41 41 43 41 41 41 44 42 45 45 44 40 39 41 38 37 36 36 33 31 29 29 30 30 31 28 28 28 30 32 34 36 38 39 39 39 40 40 43
43 41 39 44 48 47 47 45 40 43 40 40 35 36 36 40 41 44 45 46 45 42 39 42 43 41 43 40 37 34 32 30 29 30 30 31 32 32 33 34 36 39 40 41 39 39 41 42 43
46 46 36 48 50 58 57 52 52 45 42 39 38 37 38 37 40 44 46 46 48 46 46 45 44 45 45 45 43 40 38 35 33 32 31 33 34 34 34 36 39 40 42 42 42 42 41 43 42
41 50 51 57 60 56 51 50 46 46 47 42 39 38 37 39 43 43 46 48 49 46 46 46 47 46 46 45 44 43 43 41 39 36 35 36 36 37 37 38 40 43 45 45 45 44 43 43 44
48 48 56 60 62 60 56 46 49 48 44 36 37 37 38 37 40 41 42 46 48 46 44 44 46 46 47 46 45 43 43 44 43 41 39 39 39 37 36 38 41 43 45 45 45 45 44 42 43
52 58 62 59 57 59 56 51 52 45 38 39 41 38 34 37 37 39 41 44 46 47 42 43 46 48 46 47 46 43 42 41 40 40 41 41 40 39 39 41 42 43 43 45 46 47 45 44 44
57 56 58 56 52 55 54 56 51 43 42 42 44 43 40 38 39 36 42 48 49 46 44 39 43 48 49 46 45 45 46 44 44 44 42 42 42 42 43 41 40 41 43 45 46 46 46 45 43
50 54 52 53 53 55 61 57 48 39 39 43 43 41 45 44 42 44 45 49 55 52 49 47 41 44 48 50 48 47 46 47 46 43 39 39 38 41 44 42 41 42 42 45 47 47 46 47 44
54 53 53 58 57 50 53 53 49 42 54 56 55 57 59 60 54 49 50 51 53 51 52 54 51 50 51 53 53 52 53 51 50 45 41 42 42 42 38 40 44 45 46 46 48 48 48 46 47
51 57 61 62 50 44 50 52 58 63 64 64 60 62 61 61 62 58 54 57 55 56 55 55 55 60 59 59 57 55 52 50 51 49 48 47 46 44 47 43 42 42 44 46 45 48 49 48 48
56 61 62 52 48 52 58 62 64 65 70 70 70 70 70 70 70 70 66 63 61 61 62 59 60 64 65 65 64 60 57 52 52 53 55 57 52 51 47 43 42 43 46 46 45 46 48 50 49
63 61 60 60 62 60 59 59 61 67 72 75 76 75 77 79 80 78 76 71 69 67 69 65 64 65 65 67 66 60 59 58 56 54 54 53 52 50 50 45 45 46 45 45 43 46 43 45 49
62 64 66 66 64 61 61 62 65 67 71 74 80 85 87 89 88 88 87 82 72 70 69 70 66 68 70 71 71 70 66 64 61 59 55 52 52 49 49 50 52 51 37 33 40 47 46 42 48
64 65 65 68 70 68 67 61 69 77 82 84 86 89 91 89 88 88 87 85 81 73 70 70 66 69 72 74 75 73 69 67 62 61 57 55 56 55 50 48 47 44 35 32 39 43 51 44 55
65 62 67 69 71 71 72 65 74 80 85 87 89 91 94 91 93 91 90 86 83 82 74 76 70 73 73 76 76 71 73 73 70 67 63 60 55 55 53 52 51 50 39 30 41 44 45 50 59
63 67 70 72 77 77 77 74 78 86 89 90 90 92 92 90 92 93 94 92 89 85 81 83 79 78 79 79 78 75 74 74 74 72 69 65 66 71 69 62 52 52 54 51 50 54 53 47 51
69 71 76 82 85 84 83 81 81 97 99 100 96 96 93 92 94 97 98 98 91 86 86 85 92 84 83 84 82 80 77 76 77 75 73 70 70 70 72 67 68 65 62 61 66 70 61 47 56
78 79 80 83 88 89 87 84 86 97 99 99 99 102 101 98 100 101 96 91 89 85 83 86 94 96 91 91 89 86 82 80 79 80 77 75 73 73 71 69 67 68 66 67 68 74 68 66 71
82 82 86 87 91 90 91 86 90 98 100 100 101 105 107 104 99 99 88 85 88 84 82 81 86 96 101 97 94 91 87 84 82 82 83 79 78 76 74 71 70 70 67 64 67 71 71 77 73
89 91 89 89 92 93 94 96 97 99 98 101 104 105 106 103 95 89 79 75 76 77 77 79 82 88 93 102 101 99 93 90 88 85 84 84 83 80 76 75 73 71 71 69 69 69 69 71 71
89 90 92 93 94 94 98 106 98 99 98 103 103 102 99 90 85 75 65 64 66 70 74 71 75 83 88 93 91 96 96 95 93 89 88 85 82 81 79 76 77 75 75 75 74 74 72 73 76
93 96 98 97 98 99 102 104 98 98 102 104 102 97 88 78 70 64 59 57 65 69 66 65 67 72 78 88 87 93 96 94 95 96 94 89 86 86 82 80 80 79 81 80 79 77 74 76 76
97 98 102 101 101 101 103 104 106 106 105 103 97 84 73 66 61 56 51 52 57 60 59 56 60 66 74 80 83 89 96 97 97 99 97 97 94 91 92 88 85 84 86 87 82 81 80 80 78
101 105 106 107 106 103 105 108 108 107 100 94 82 74 63 55 51 51 49 47 50 49 49 49 52 60 68 74 78 83 91 93 101 97 101 95 95 97 98 94 89 91 89 87 87 83 82 82 82
107 104 105 107 105 107 108 106 104 102 93 78 67 62 52 50 47 46 45 38 43 37 40 43 49 53 60 67 73 79 85 87 92 97 96 98 95 94 97 94 97 96 94 88 88 86 84 84 85
106 108 105 104 107 107 105 100 99 89 77 65 57 50 46 48 45 39 30 33 33 33 34 38 44 46 54 59 64 68 70 77 82 85 90 96 91 92 93 93 95 96 89 90 89 88 85 84 82
112 110 108 110 108 102 97 90 81 74 63 57 49 46 43 49 45 46 41 36 38 38 37 39 42 46 48 50 51 54 58 63 65 69 73 77 80 82 84 83 86 82 79 82 83 79 79 81 82
109 107 107 106 97 87 84 72 68 61 57 50 48 47 44 50 50 44 42 34 28 52 47 41 41 44 44 45 48 55 60 60 62 66 65 67 68 71 71 74 79 80 80 82 80 79 75 70 69

GFSSGP_250_spd_120.txt.gz
Wind_Speed
35 40 41 43 44 49 47 42 41 35 32 33 36 34 36 38 39 43 43 42 41 44 43 39 35 33 32 34 35 37 37 35 35 35 34 35 34 36 36 37 36 37 37 35 35 35 36 35 36
37 38 40 43 47 48 44 44 40 32 32 35 37 37 38 40 41 41 41 41 43 44 42 39 38 38 33 33 33 33 33 32 32 33 34 33 32 33 32 31 31 30 31 31 33 32 32 34 34
41 43 46 50 52 48 40 35 37 33 41 40 39 39 43 43 37 39 42 43 44 46 44 40 40 39 36 35 36 35 35 35 34 32 32 31 30 28 28 29 29 31 32 32 32 32 32 34 34
46 47 45 53 51 50 43 35 39 43 40 36 35 40 43 43 46 45 44 42 44 45 43 42 40 41 41 40 40 40 37 38 38 36 35 35 33 33 31 31 31 32 32 33 33 33 34 35 35
44 46 48 54 52 44 41 42 43 47 48 43 39 41 46 49 46 45 44 40 40 42 43 41 41 43 43 43 43 41 41 39 39 39 39 39 38 37 37 36 35 33 34 34 34 35 35 35 35
53 53 55 56 56 56 47 45 51 50 48 44 43 44 42 45 45 45 45 43 41 44 42 42 42 42 44 44 43 43 43 42 40 40 42 42 41 41 40 38 38 37 37 38 38 38 37 35 35
58 52 54 58 60 54 50 53 55 53 51 43 43 44 46 48 45 46 44 43 41 42 43 42 41 41 44 46 45 44 44 45 43 42 42 44 42 42 42 41 40 40 41 41 41 40 36 33 33
55 56 56 56 54 56 55 55 54 50 49 45 44 44 49 51 47 44 45 43 40 42 42 41 37 40 42 45 47 46 46 45 44 44 43 43 40 40 41 41 41 42 44 45 43 39 37 36 36
63 62 62 55 54 56 55 51 48 47 48 52 50 45 47 50 45 46 45 43 45 44 43 43 41 40 42 42 45 48 48 46 44 45 45 43 42 42 41 42 42 40 41 42 42 42 41 41 36
64 64 65 64 59 55 55 52 49 51 54 48 45 45 42 40 42 38 42 46 47 50 49 50 50 47 46 46 46 46 49 49 47 46 46 46 45 44 42 40 38 37 37 38 39 42 44 41 36
63 65 68 62 56 51 50 52 54 56 52 46 42 50 44 47 52 46 50 52 50 50 51 51 52 53 53 53 50 49 50 51 51 51 48 45 46 46 47 44 41 42 43 45 44 42 41 42 38
62 65 61 58 49 49 53 58 56 55 54 50 52 55 59 59 56 57 58 59 62 61 56 55 56 57 59 60 60 58 53 53 53 53 52 49 47 50 47 47 46 47 47 47 45 39 36 36 32
63 62 60 55 52 52 54 55 57 55 56 63 64 61 60 61 62 66 61 59 60 62 64 65 66 63 63 64 64 67 64 59 58 56 52 50 48 48 46 48 48 47 47 45 48 43 41 29 27
59 61 59 57 58 55 53 55 54 62 67 67 66 66 66 67 67 67 68 66 66 68 70 74 75 76 77 74 71 67 71 68 62 61 57 57 54 52 49 47 49 48 45 47 48 46 30 28 29
62 60 61 65 64 59 56 57 62 63 68 72 74 71 70 70 71 72 75 77 77 79 82 78 79 81 81 78 77 75 74 71 69 64 63 61 59 59 56 50 48 47 46 45 42 35 34 33 30
68 66 63 64 63 62 59 57 67 69 70 72 75 76 75 74 75 77 79 81 82 83 83 79 79 79 80 81 80 77 77 78 71 70 69 68 68 61 57 52 50 49 46 45 44 38 36 30 27
69 67 64 62 62 60 60 60 72 73 72 74 78 78 79 81 83 81 83 87 87 83 81 83 80 82 84 83 82 84 85 83 78 75 74 75 74 72 66 55 54 53 49 46 42 41 34 45 44
69 66 64 59 63 61 61 64 71 74 77 81 84 85 86 85 85 89 92 94 94 90 86 84 84 82 84 87 85 85 87 90 90 84 79 79 79 77 75 72 66 63 55 50 42 43 44 37 37
72 67 65 67 66 62 62 61 71 76 79 82 87 89 89 90 91 93 96 99 95 94 91 88 88 88 89 88 92 92 90 95 94 93 85 81 79 75 76 74 75 68 68 65 65 52 44 42 50
72 71 69 68 71 70 69 72 80 81 84 86 89 92 94 95 96 98 100 100 96 94 93 93 91 92 94 94 92 93 96 93 99 99 92 86 83 79 78 75 75 77 74 72 69 69 65 62 61
76 76 77 75 77 80 80 79 82 83 86 90 94 97 97 98 100 100 99 98 95 94 94 93 91 90 91 91 87 88 91 93 99 104 102 94 88 83 79 77 78 77 76 77 79 79 79 80 85
78 83 83 85 85 85 85 81 83 87 91 95 97 99 101 100 101 101 101 99 96 95 92 87 84 81 81 82 82 83 88 91 96 105 105 101 94 90 87 80 77 77 77 77 77 76 77 79 80
83 84 86 87 87 87 87 91 84 87 91 96 95 98 100 103 105 105 104 93 88 82 80 73 71 67 70 71 74 78 83 91 92 103 110 104 104 98 91 85 81 79 77 78 80 79 77 77 77
87 89 89 89 91 90 91 97 87 92 96 99 99 101 103 104 103 98 96 87 80 72 68 63 62 62 61 63 67 71 75 80 92 93 105 112 106 99 94 91 87 84 83 80 80 81 79 78 77
93 94 94 92 93 96 96 98 94 96 98 101 103 104 105 103 101 91 85 78 71 63 58 55 54 54 55 58 61 69 70 75 85 92 97 105 109 106 100 94 91 90 89 85 84 81 81 81 79
94 96 98 100 100 98 98 98 99 99 101 104 105 109 107 104 93 84 74 71 64 57 49 49 46 43 48 52 58 61 67 71 76 85 91 95 102 108 103 99 97 94 91 88 88 85 83 86 85
97 100 104 107 105 105 104 105 104 103 106 106 105 104 99 92 83 75 67 63 57 52 49 44 39 39 41 46 53 57 60 66 74 82 84 89 92 96 101 101 99 100 98 93 91 92 91 89 93
106 107 107 110 112 109 107 105 103 104 103 100 96 92 88 79 74 65 60 54 53 50 51 47 42 41 47 47 50 53 59 64 71 75 79 83 86 89 93 98 101 98 96 96 96 97 98 96 96
111 109 109 110 109 108 104 94 92 93 89 84 81 78 75 71 65 59 52 50 50 50 50 50 43 38 37 41 46 47 56 62 63 65 66 71 77 81 86 93 96 99 101 98 94 95 97 97 97
114 112 109 107 103 101 98 84 86 81 76 74 74 72 67 61 59 53 49 49 50 49 49 49 44 40 39 43 46 48 52 52 52 56 59 59 60 66 76 84 89 90 92 89 90 95 96 93 92

GFSSGP_250_spd_123.txt.gz
Wind_Speed
37 38 37 38 38 36 36 38 33 35 35 37 37 33 34 38 37 38 37 38 39 40 41 43 41 39 39 36 31 33 34 35 35 36 38 38 37 38 36 35 34 34 34 32 31 30 28 28 29
37 37 39 40 39 40 38 39 42 43 43 36 34 35 37 40 41 42 43 41 44 46 44 42 40 40 40 38 37 35 34 34 34 35 36 36 34 34 34 34 33 31 29 27 26 25 25 26 27
38 38 36 38 40 40 41 42 41 41 38 36 39 41 40 42 45 45 46 46 46 45 42 39 39 40 40 39 37 38 36 35 36 36 37 36 34 32 31 30 28 30 29 29 29 28 27 26 27
40 42 42 43 43 43 45 45 44 38 37 41 42 45 51 53 51 45 45 46 45 45 45 43 41 41 41 40 39 39 40 40 40 40 39 39 37 35 34 32 30 31 33 33 32 29 29 30 30
42 42 44 46 46 45 47 42 44 48 42 43 47 52 52 50 49 50 50 49 45 46 47 43 42 42 41 41 42 43 43 42 41 41 40 40 41 41 38 35 33 34 35 33 32 32 33 34 33
47 48 49 52 49 48 52 45 45 48 45 46 53 55 54 53 49 49 46 48 50 48 46 45 43 42 40 41 42 43 45 46 44 42 42 42 41 43 42 39 37 36 35 34 34 35 36 36 36
53 52 56 52 48 50 52 51 49 51 48 51 53 53 53 52 46 46 49 49 53 50 44 43 40 40 41 40 41 41 43 45 47 46 44 43 42 43 45 44 40 37 38 35 34 35 36 36 35
55 56 51 55 54 51 50 51 55 59 60 51 48 50 49 47 49 52 51 50 50 48 45 41 39 36 38 40 41 41 41 44 46 46 46 45 44 44 44 45 41 37 38 36 34 33 32 32 33
59 59 58 57 53 49 50 50 57 63 61 53 46 46 47 49 48 46 47 47 45 47 48 44 43 42 39 42 43 43 44 42 43 46 47 45 45 45 44 43 40 39 38 39 33 29 28 32 33
51 51 50 51 50 50 51 52 54 58 55 52 44 47 51 51 46 46 46 43 46 46 47 46 48 46 49 54 54 51 48 47 43 44 46 47 47 45 45 44 43 42 39 36 34 33 34 35 35
54 50 47 52 55 56 56 55 56 59 54 49 47 51 50 48 45 45 51 54 57 56 55 53 54 54 55 56 52 53 52 52 52 48 44 46 47 48 47 45 45 44 42 42 39 37 39 37 33
60 58 61 63 58 57 55 56 55 57 53 52 53 52 52 47 47 48 55 56 58 62 60 56 54 54 57 58 58 59 61 59 59 59 55 49 47 48 49 49 48 50 47 45 45 40 40 39 34
61 64 63 58 58 56 55 54 52 54 56 59 58 57 54 50 50 53 61 64 65 62 61 63 63 63 64 65 68 65 67 70 65 63 63 61 56 50 50 51 52 49 49 46 44 42 40 38 38
61 63 61 62 61 56 53 54 54 55 58 61 61 62 55 54 58 61 60 62 64 65 66 66 67 67 68 71 74 76 77 77 75 73 69 67 66 61 52 53 52 49 49 50 47 41 39 39 36
63 64 65 65 62 60 62 63 59 56 57 59 61 63 62 60 63 67 69 70 70 71 71 73 75 75 75 75 78 81 81 82 81 79 76 70 70 69 65 56 55 55 56 55 49 44 39 37 32
70 68 66 62 64 63 60 59 62 60 57 59 62 67 72 73 74 75 75 75 74 75 77 78 80 81 83 82 83 84 84 80 79 84 80 73 70 70 74 64 55 59 60 58 55 50 48 42 34
68 64 63 66 68 69 66 59 63 62 57 59 64 69 72 76 77 76 77 78 79 81 82 83 85 86 87 87 88 87 83 82 80 80 84 81 74 72 73 76 70 63 63 63 57 53 50 44 35
68 66 63 63 66 66 63 62 62 62 60 64 68 68 70 73 75 76 79 81 83 84 85 86 89 92 94 95 92 87 84 82 82 82 84 86 84 78 74 78 80 74 72 65 57 59 57 50 38
73 67 64 68 67 63 67 67 67 66 64 67 69 73 73 74 78 80 81 84 84 87 91 93 95 95 96 93 93 90 86 83 84 85 86 88 89 85 82 80 86 84 81 80 75 65 52 41 44
72 70 74 72 73 66 64 65 64 65 69 74 77 80 83 85 88 89 89 89 92 93 97 99 100 99 97 94 95 96 96 93 89 90 90 90 91 92 89 85 85 90 89 86 83 79 70 61 51
79 77 77 74 72 71 67 69 66 69 75 80 84 87 89 90 90 90 91 93 95 96 98 100 99 98 98 98 96 96 96 94 94 92 92 93 95 97 96 93 89 89 94 92 89 86 84 80 80
82 86 83 78 76 74 73 75 73 73 76 82 87 89 90 91 92 93 96 97 98 97 99 100 99 100 100 100 91 89 90 90 91 92 90 91 96 98 100 99 97 93 93 96 91 87 88 86 84
86 86 86 83 79 76 77 81 78 80 81 83 87 90 92 94 97 98 99 99 98 98 99 101 100 100 95 91 83 80 79 78 82 81 83 83 88 95 98 100 99 100 98 97 96 90 86 87 88
88 87 86 86 86 84 85 87 77 80 84 86 89 92 97 100 100 100 100 101 103 102 102 102 95 90 82 78 70 69 67 66 68 68 72 74 81 86 94 97 99 102 102 99 96 93 90 89 89
91 92 91 90 90 90 89 88 82 84 88 93 96 100 102 105 105 104 104 102 98 95 94 86 87 77 66 62 61 59 58 58 60 59 62 70 73 80 86 93 96 98 103 101 97 95 90 89 87
95 97 97 97 95 93 89 85 87 91 96 100 103 104 106 106 104 101 99 92 86 81 77 74 75 64 55 51 53 49 51 54 57 56 64 64 67 74 79 83 91 97 99 102 99 96 94 87 87
97 99 99 99 98 96 94 93 93 97 103 104 104 104 103 98 94 90 85 78 74 67 65 63 60 56 48 44 46 45 46 48 52 57 58 59 63 67 71 77 82 90 94 98 101 98 93 93 91
101 101 101 103 103 102 101 98 99 103 107 107 102 98 92 88 86 81 76 70 68 61 56 55 54 53 47 43 44 43 45 47 50 53 55 59 62 65 70 72 75 81 88 93 100 99 99 96 97
104 103 104 106 109 110 108 99 102 104 104 98 93 89 85 81 79 75 72 66 61 54 50 51 50 51 50 42 44 47 44 50 53 52 51 54 60 63 68 67 69 72 79 87 92 97 100 99 102
108 109 109 110 112 113 113 100 101 97 89 87 83 79 77 73 71 70 65 60 56 50 48 47 46 49 50 44 43 49 49 48 51 51 51 55 59 59 55 59 64 69 72 74 79 84 95 99 98

GFSSGP_250_spd_126.txt.gz
Wind_Speed
39 39 40 44 42 40 40 32 34 36 38 39 40 43 46 44 38 33 34 39 41 42 43 43 42 41 38 38 41 43 41 42 41 38 37 36 35 33 33 32 31 33 34 34 34 32 30 28 26
43 42 41 41 41 36 33 35 37 34 39 42 41 42 40 38 38 41 42 45 46 46 45 44 43 43 41 40 39 41 42 42 43 40 38 36 34 33 32 31 30 29 29 28 27 26 26 27 29
45 46 44 42 39 39 38 38 37 41 41 45 43 40 37 40 44 45 46 48 47 46 43 41 43 45 45 44 42 42 42 43 44 44 41 37 34 34 34 33 32 30 28 28 28 27 26 27 29
45 46 45 42 42 40 38 37 39 40 43 41 42 44 43 42 44 47 50 50 47 44 43 39 43 48 48 47 44 44 43 42 43 45 44 42 41 39 37 37 35 33 32 31 31 29 28 28 30
47 46 48 46 40 42 45 44 48 42 35 36 42 45 46 45 47 51 52 49 46 45 42 41 44 50 49 48 46 45 45 44 44 45 46 46 45 42 40 39 39 38 37 35 34 33 31 29 31
51 49 48 47 47 47 49 50 46 49 48 46 41 46 50 49 48 52 50 49 46 45 44 48 48 50 50 51 48 46 46 46 46 46 46 46 46 46 42 40 40 41 41 40 37 36 34 31 32
55 54 53 53 52 51 50 51 48 45 47 42 43 46 49 52 49 49 50 47 46 47 47 50 51 51 49 46 47 48 47 46 45 46 46 46 47 46 46 42 41 41 42 42 40 38 36 33 32
53 53 58 58 59 57 54 51 44 41 41 41 42 44 46 50 51 50 49 47 49 50 49 47 48 48 47 45 44 42 42 43 43 44 46 47 48 49 47 45 44 43 43 42 40 39 37 35 31
54 53 53 53 51 47 46 42 41 47 50 50 47 46 49 50 51 49 49 50 53 53 49 47 47 46 47 46 45 44 41 39 41 44 47 48 47 48 49 48 46 43 42 41 39 38 36 35 32
56 51 47 45 48 49 48 49 56 56 49 52 45 46 48 50 48 49 52 54 53 55 51 49 50 51 49 45 49 50 50 47 45 44 46 46 48 48 49 49 48 46 45 41 40 41 37 36 35
47 48 50 48 53 52 51 52 57 56 52 48 46 44 47 47 48 50 55 57 54 55 54 53 56 58 60 60 57 57 59 57 51 47 48 49 49 49 49 52 54 48 45 45 43 42 40 39 39
52 54 56 56 54 52 54 53 53 53 53 46 46 47 45 45 51 56 56 55 56 56 57 59 62 64 66 65 65 64 61 60 57 53 50 50 51 53 57 54 52 54 50 47 45 44 45 44 44
55 55 57 57 56 55 55 53 53 56 54 54 55 55 50 46 53 56 57 56 57 61 66 68 68 69 69 68 70 70 70 69 64 61 59 58 58 57 55 61 59 53 53 52 49 46 45 47 44
52 54 56 57 54 55 54 56 57 56 54 55 57 54 51 51 53 55 54 56 60 63 68 71 71 73 72 72 73 72 72 73 74 72 68 65 65 67 64 61 66 62 57 56 50 48 46 45 46
49 50 53 55 56 57 60 60 58 56 58 59 59 58 56 57 55 56 58 59 58 59 65 71 74 76 77 77 78 79 79 78 78 78 76 75 74 72 71 68 63 67 64 61 57 51 49 48 52
54 55 57 57 59 60 63 61 59 59 57 57 57 56 54 55 57 61 63 63 68 72 74 77 79 79 80 82 83 81 81 83 85 85 84 82 80 78 77 72 67 65 66 65 66 59 54 55 56
57 58 59 61 64 62 61 62 63 62 59 62 61 60 60 58 60 61 65 69 74 77 78 78 79 81 83 85 85 86 87 86 88 89 90 90 87 84 79 74 71 68 67 69 68 66 63 57 59
61 57 57 63 62 62 63 62 62 62 65 64 63 64 64 63 63 66 69 74 78 76 76 80 82 83 85 88 90 93 93 91 92 92 91 91 89 86 82 77 75 76 74 71 72 73 70 65 63
63 66 64 64 68 67 66 65 66 68 67 67 66 66 67 66 65 73 74 74 77 79 80 78 83 88 91 94 95 94 96 94 93 93 92 91 92 89 84 81 79 78 77 78 74 74 76 69 67
67 68 71 71 71 72 72 73 72 72 74 73 71 69 68 69 70 74 78 81 82 87 90 92 93 95 96 97 98 99 100 101 100 98 96 94 91 90 92 90 85 84 82 82 83 81 81 82 74
67 70 73 77 77 81 79 77 73 76 77 77 76 76 74 73 75 77 81 85 89 92 95 96 97 97 97 99 101 102 104 104 103 102 101 99 96 94 93 91 91 92 90 88 84 87 87 86 84
72 75 77 80 80 83 80 80 80 77 77 78 78 78 79 80 81 82 84 86 89 92 94 96 98 100 101 103 104 102 101 103 105 102 100 98 94 91 92 90 93 94 95 93 90 88 91 89 89
77 79 82 83 85 86 87 86 85 82 81 84 85 85 85 87 87 87 87 87 89 91 95 98 102 104 105 106 106 103 103 98 96 95 93 90 86 86 86 85 85 90 96 96 95 91 91 95 92
82 84 86 88 91 90 90 91 87 85 89 90 91 90 89 89 88 89 91 93 96 97 101 104 104 101 99 98 97 94 90 86 85 83 81 77 74 78 76 77 81 83 89 96 98 97 92 94 96
89 89 92 94 95 95 92 90 87 87 92 92 92 92 92 92 94 95 97 100 102 105 106 103 100 95 90 89 85 86 74 74 73 71 70 66 60 65 67 68 71 75 82 88 94 100 98 95 97
96 98 98 103 102 99 96 92 88 90 94 96 98 99 99 99 99 101 103 104 104 102 97 93 87 82 76 80 78 76 67 64 63 59 55 55 52 54 61 64 64 68 71 78 87 94 96 96 98
100 102 106 103 107 107 97 92 90 91 96 100 104 104 105 104 104 105 103 100 93 88 85 80 75 75 67 71 70 67 59 50 48 42 45 51 56 54 55 58 58 59 64 69 73 82 90 94 97
107 107 106 111 110 106 99 94 95 95 100 104 106 109 109 107 104 98 92 87 84 82 77 70 66 65 62 65 63 59 49 41 42 40 48 52 56 59 60 56 56 57 60 62 64 70 80 86 90
110 113 111 113 111 107 102 101 98 100 103 107 109 109 109 105 95 91 85 80 76 76 72 65 58 59 57 59 56 53 44 38 38 39 46 53 57 62 58 57 58 56 58 56 58 61 68 77 84
115 114 114 112 110 106 108 104 106 105 106 107 107 105 100 94 88 81 74 72 73 72 65 58 55 53 53 52 50 49 40 39 40 43 47 48 52 55 55 53 52 54 54 51 52 54 56 64 71

GFSSGP_250_spd_129.txt.gz
Wind_Speed
41 41 40 39 40 41 43 36 37 36 34 34 33 33 36 39 45 42 41 43 38 39 41 41 40 42 42 42 42 44 46 47 45 45 44 43 42 39 37 36 34 31 30 30 31 31 31 31 28
45 45 46 43 42 41 43 35 38 37 36 39 37 42 43 45 43 39 37 39 44 45 42 42 41 42 43 43 46 44 45 48 49 48 46 43 42 42 40 37 35 33 31 30 31 29 29 28 27
50 50 48 45 44 44 44 35 39 37 36 37 38 40 39 37 37 38 42 41 44 44 45 47 42 42 45 47 48 48 50 49 49 49 47 47 44 44 43 38 36 36 36 34 32 31 30 31 29
49 51 52 49 50 43 45 42 39 38 42 44 46 43 39 43 37 40 42 43 46 48 49 49 45 45 48 49 49 51 51 50 49 49 48 47 46 44 44 42 39 39 40 38 36 34 33 34 32
49 47 47 50 49 48 49 43 42 42 44 47 45 43 47 45 38 39 42 46 47 48 51 49 46 46 49 48 53 53 51 49 48 48 49 49 47 46 45 45 43 42 42 42 40 38 37 36 36
52 53 52 53 49 51 49 48 49 51 52 53 52 52 41 37 39 40 44 47 49 50 49 49 46 45 50 52 51 52 51 49 48 45 47 48 49 49 47 47 47 44 42 43 43 42 41 40 39
57 56 56 53 50 50 50 50 51 52 50 49 48 43 39 39 42 41 42 43 43 50 52 50 46 47 49 51 52 48 46 44 44 44 45 44 48 49 48 47 47 48 46 43 43 44 42 41 42
60 60 61 52 51 51 51 48 49 49 45 44 45 42 49 54 50 44 41 42 45 49 51 49 48 50 51 51 48 46 44 45 42 40 38 38 37 40 45 46 48 48 49 47 45 44 44 42 41
58 55 55 56 57 50 48 44 47 43 45 46 46 47 46 47 42 40 42 41 46 48 49 51 53 53 51 51 49 48 47 48 47 44 43 39 40 40 41 43 45 47 45 48 47 45 44 42 42
60 60 59 55 52 43 43 46 47 45 48 47 47 48 45 42 44 44 45 43 47 49 51 52 56 55 54 53 53 51 49 47 48 48 48 49 49 46 40 43 43 43 43 45 49 50 45 43 41
60 58 55 55 56 46 49 53 53 52 50 49 51 46 47 46 46 47 47 47 49 53 54 57 59 57 56 54 56 56 58 59 58 59 54 56 57 57 49 43 44 43 43 43 46 50 52 48 44
61 55 54 51 54 48 51 57 57 55 54 51 51 49 50 46 47 49 49 49 56 58 59 57 61 59 57 59 62 63 64 62 61 62 61 59 61 60 57 52 50 48 46 47 46 47 48 46 43
62 57 54 50 49 48 53 55 56 56 53 50 50 51 50 47 51 52 53 52 56 62 64 64 61 63 62 64 68 70 71 72 68 66 63 61 60 59 55 51 52 52 52 50 50 51 51 48 48
62 54 51 50 45 47 51 51 53 51 52 51 55 55 49 54 54 51 52 54 59 63 66 68 67 67 67 69 72 74 76 75 74 75 71 69 67 66 64 63 62 62 60 59 56 57 56 55 52
55 54 50 46 45 44 49 52 51 54 56 58 58 56 53 56 56 56 54 54 56 59 66 69 70 71 69 70 72 72 72 73 75 79 79 78 75 72 70 68 67 66 67 66 62 56 59 60 56
53 52 48 46 52 49 52 55 50 55 57 58 59 58 56 58 58 58 59 58 56 58 62 65 66 71 73 73 77 81 82 81 80 76 79 85 84 81 78 76 72 69 72 72 71 70 61 62 57
51 51 51 50 53 52 57 59 61 58 53 56 57 57 58 60 64 67 65 65 63 63 62 63 71 74 80 83 86 86 85 87 86 85 87 87 86 85 87 85 84 80 80 80 77 74 66 68 62
57 57 58 58 55 54 56 57 60 61 62 66 67 69 71 70 72 71 72 70 69 67 68 69 70 74 79 82 87 89 89 88 90 90 90 92 93 95 96 92 87 83 79 78 80 78 74 69 74
57 59 60 62 62 57 61 61 60 59 62 64 69 72 73 73 73 75 75 74 72 72 71 73 76 79 84 85 87 90 90 87 89 91 96 100 101 100 101 96 91 89 89 80 73 76 76 78 80
65 65 65 68 68 66 67 64 63 65 66 69 73 76 78 76 76 79 76 75 76 76 78 78 80 81 84 87 91 95 98 100 103 106 106 107 105 103 102 99 98 97 95 91 84 76 78 76 83
66 68 71 70 70 69 70 68 69 64 69 75 78 79 78 80 81 81 81 81 81 81 82 83 85 86 88 90 93 97 102 106 106 108 108 108 107 106 105 104 103 100 99 97 93 88 80 80 81
67 69 72 75 73 72 68 67 73 75 72 78 80 80 82 86 88 87 85 85 86 87 88 89 90 90 91 93 95 96 97 99 102 104 106 108 109 110 111 110 108 105 103 100 99 97 90 85 85
76 73 76 76 80 79 79 81 80 80 78 81 83 85 88 89 91 90 89 89 89 88 88 89 91 92 95 97 98 99 102 105 106 107 110 114 109 107 105 104 102 100 97 95 94 93 93 91 87
78 79 81 83 84 83 88 89 82 88 84 90 92 92 91 96 96 92 91 92 94 95 96 97 98 99 101 102 104 106 106 107 108 107 104 99 97 94 94 90 87 85 83 81 82 81 85 86 86
81 84 84 85 90 90 93 91 87 92 91 97 97 98 101 99 102 97 95 98 100 101 102 101 102 103 104 104 102 100 95 90 86 86 85 82 83 80 77 73 71 72 73 73 73 72 75 78 80
87 89 92 93 94 91 96 91 95 99 98 102 103 103 107 110 103 99 102 105 107 107 106 103 101 100 96 91 86 83 80 75 76 76 74 73 72 68 65 62 61 62 63 65 66 67 67 72 75
93 94 93 96 95 97 97 99 101 98 101 104 107 112 111 109 105 104 107 108 108 106 103 98 94 91 88 83 78 73 70 65 68 68 66 63 60 58 52 51 51 48 53 56 56 58 58 62 65
99 97 101 105 98 103 100 101 102 102 103 109 112 113 114 109 108 109 112 112 107 101 96 91 88 84 78 71 69 65 64 61 62 60 57 52 48 45 44 45 48 51 53 55 54 56 54 56 56
110 109 106 104 103 104 105 105 107 109 109 112 116 113 108 108 111 114 115 108 102 95 90 86 82 79 73 64 62 58 58 57 59 54 50 45 43 40 41 42 49 51 52 54 55 57 56 52 51
113 107 111 111 107 110 109 104 113 110 113 109 106 106 110 113 115 115 107 102 97 90 83 78 74 72 69 60 58 57 57 54 53 50 45 42 38 36 44 50 52 54 57 58 61 58 52 48 45